GFSSGP_sfc_dewp_000.txt.gz
Dewpoint
56 39 42 43 34 35 28 32 39 36 35 32 32 33 32 31 30 33 56 59 59 59 60 69 73 72 71 70 68 67 66 64 62 61 59 59 59 59 60 62 62 60 58 59 61 62 62 63 64
47 35 43 41 26 25 24 35 38 38 32 32 32 33 32 30 35 43 51 59 60 59 60 64 72 72 71 70 69 67 66 64 62 61 60 59 62 59 60 60 60 61 61 60 60 61 60 62 62
42 34 35 34 32 23 28 35 31 29 32 32 33 30 30 32 35 43 55 59 60 60 61 65 73 72 71 70 69 68 66 65 63 61 63 63 65 62 61 59 60 60 59 60 60 59 61 62 62
42 39 33 26 18 23 31 32 27 31 33 34 33 31 31 38 41 51 56 59 59 60 62 69 73 72 72 70 70 68 67 65 64 64 62 63 65 65 63 63 61 59 60 60 60 60 60 61 61
43 37 33 31 31 25 24 27 27 31 32 34 35 34 33 43 51 53 58 59 58 60 62 64 72 71 71 70 69 68 67 65 65 63 63 64 65 67 64 65 62 60 60 60 60 61 61 61 60
41 38 31 31 32 32 33 30 30 31 33 34 33 32 35 45 49 54 59 59 60 61 64 63 70 72 72 70 70 68 68 67 65 63 63 64 66 67 66 65 63 61 61 61 59 62 63 63 62
42 37 33 33 31 32 32 28 29 32 33 33 33 32 33 40 51 56 59 59 62 62 64 63 64 69 72 71 70 70 69 67 66 64 63 65 65 66 66 64 63 63 63 62 62 62 63 63 63
43 39 34 34 30 33 33 28 37 35 33 35 33 32 33 43 47 55 58 60 61 64 64 64 64 65 65 66 70 69 69 68 67 67 67 66 66 65 64 65 64 64 64 64 62 62 61 62 63
42 37 33 34 34 32 31 35 39 39 37 34 34 33 36 46 49 53 54 57 60 62 64 65 64 65 65 65 65 68 68 68 67 66 66 64 58 60 60 63 64 64 64 63 63 63 62 64 64
42 38 35 36 36 35 35 38 40 39 36 35 32 34 35 37 41 45 47 49 54 57 61 63 64 64 65 65 65 64 63 63 61 61 60 58 57 59 61 62 64 64 65 65 64 64 63 63 57
43 38 38 38 38 37 39 39 41 40 39 35 34 33 35 36 37 39 41 48 50 53 57 62 64 65 65 65 64 63 63 62 62 62 61 59 58 58 59 59 59 59 62 59 59 59 57 57 57
41 41 39 40 41 41 40 41 41 42 42 40 40 40 37 35 34 35 38 45 50 52 54 57 61 64 65 65 64 63 63 62 61 61 61 60 59 59 59 58 59 59 59 59 59 58 58 58 58
43 40 41 41 42 42 43 42 41 41 41 41 41 38 36 34 34 36 47 50 51 52 54 55 58 61 64 65 64 64 62 62 61 62 61 61 61 60 60 60 60 60 60 59 59 59 58 58 58
43 42 41 41 42 42 42 41 40 39 39 37 36 36 35 36 39 43 46 49 50 49 49 51 54 57 60 63 64 63 62 62 62 62 62 61 61 61 61 61 60 60 60 60 59 59 59 59 59
44 42 42 42 42 41 42 39 37 38 31 32 32 33 39 41 42 44 45 45 46 46 48 48 50 53 58 61 62 62 62 62 62 62 61 61 61 61 61 61 61 60 60 60 60 59 59 59 58
45 44 39 39 42 42 38 35 36 32 31 30 31 35 40 41 41 43 44 45 45 46 48 51 51 52 56 59 61 60 61 61 61 60 60 60 60 60 61 60 60 60 60 59 58 58 57 57 57
44 39 38 37 41 40 37 34 31 31 32 31 31 36 38 40 41 43 43 44 44 46 50 51 52 54 56 58 58 58 58 58 59 59 60 60 60 60 60 58 56 55 55 55 55 55 55 55 55
38 37 36 36 36 35 33 35 33 32 31 31 32 36 38 39 40 42 42 44 45 48 51 53 55 56 57 58 58 59 59 58 55 52 50 50 46 48 49 46 45 45 46 45 45 45 46 47 48
35 36 36 36 35 34 36 36 32 35 33 32 32 35 37 38 40 41 42 43 44 46 49 53 56 57 57 58 56 53 50 47 46 45 43 42 41 40 42 41 40 41 41 41 41 42 42 41 42
37 35 35 34 35 34 36 36 37 35 32 32 32 35 37 38 38 41 42 42 43 44 45 48 52 55 57 57 53 49 47 46 45 44 42 41 39 38 38 39 39 40 40 40 40 41 41 39 40
38 35 33 34 36 36 33 33 33 28 28 29 32 36 37 37 38 39 41 42 43 44 45 45 48 48 48 47 47 47 47 46 44 42 40 38 36 34 35 35 34 35 36 36 37 36 37 36 36
36 38 37 37 39 34 33 29 31 29 28 30 35 36 37 39 39 40 41 42 43 46 47 46 46 46 46 46 45 44 42 40 40 38 37 35 33 29 27 28 29 30 30 32 32 30 33 35 34
36 40 39 38 38 36 34 29 28 27 26 29 34 36 38 39 40 41 42 43 44 46 47 45 44 43 43 43 42 40 39 38 37 34 32 30 29 26 23 23 26 25 26 27 29 29 31 32 30
40 37 37 35 34 32 31 29 27 25 24 28 34 36 38 39 40 41 42 43 44 46 46 45 42 41 41 40 39 39 37 33 31 29 24 22 20 21 21 21 23 23 24 24 25 27 32 31 27
39 38 36 34 32 29 27 27 26 27 26 28 33 36 38 40 40 41 41 42 43 45 45 42 40 38 38 37 35 33 32 29 25 21 18 16 14 18 19 21 20 20 21 21 23 24 29 28 26
38 37 30 26 27 26 27 26 23 26 28 28 32 36 38 39 40 40 42 43 43 44 42 40 38 37 34 32 29 26 25 22 18 17 15 13 14 15 18 18 18 18 17 18 18 20 22 22 23
40 38 33 28 28 26 26 28 29 29 29 30 31 36 38 39 40 40 42 42 42 41 40 39 37 35 31 28 24 20 17 17 16 14 14 14 14 12 15 16 16 16 16 16 17 15 17 18 19
39 39 33 31 26 24 25 26 25 26 27 29 30 35 38 39 39 40 41 42 41 39 38 36 34 32 28 24 18 16 12 11 11 12 12 13 12 13 14 14 13 14 13 13 14 15 15 15 18
36 38 37 32 28 24 22 24 26 27 27 29 30 34 38 39 39 39 40 41 39 36 36 33 32 29 24 19 14 13 11 9 8 8 9 11 12 12 12 12 12 11 10 11 11 12 12 14 17
36 34 34 31 27 26 25 24 26 27 28 29 31 34 37 38 39 39 40 40 36 34 32 31 30 27 22 15 11 10 10 10 8 8 9 9 9 11 11 11 10 9 9 10 10 11 12 15 16

GFSSGP_sfc_dewp_003.txt.gz
Dewpoint
57 44 39 41 33 30 27 28 36 37 37 33 33 33 34 33 31 35 55 56 55 56 61 68 72 71 70 70 68 66 65 63 61 59 58 57 59 59 61 61 61 60 59 60 61 61 61 62 63
50 41 40 35 24 24 21 28 32 38 34 33 33 33 33 31 34 45 52 56 55 56 61 65 73 71 71 69 68 66 65 63 61 59 59 60 60 60 61 58 59 60 60 60 60 60 60 60 62
47 39 36 35 26 21 27 31 34 31 34 34 35 33 31 33 37 43 53 56 56 56 59 67 73 71 71 69 68 66 65 64 62 60 60 63 63 63 61 60 60 60 59 59 59 59 59 61 61
43 39 35 31 28 21 25 30 28 30 34 34 34 34 32 41 42 50 54 55 55 56 59 71 73 71 70 69 69 67 65 64 63 62 62 62 64 65 64 64 62 60 60 60 60 60 60 60 60
44 37 32 32 32 30 19 22 28 29 32 33 35 36 36 42 48 50 54 54 54 56 60 65 72 70 70 69 69 67 66 64 63 62 62 63 65 66 66 65 64 62 60 60 60 61 62 62 61
41 37 31 28 30 32 32 28 27 28 32 33 33 33 38 43 47 52 55 54 55 57 61 64 71 72 71 70 69 68 67 66 64 62 62 62 66 67 66 66 64 62 62 62 61 61 61 63 63
41 37 34 30 29 32 32 28 24 30 31 32 34 32 36 41 46 52 55 55 57 59 61 61 63 66 72 71 71 70 69 68 66 64 62 63 65 65 65 64 63 63 63 64 62 61 62 61 62
43 39 36 33 30 30 33 30 28 33 32 35 33 32 34 39 44 50 55 56 57 60 61 61 62 63 64 64 70 69 69 68 66 66 66 66 65 65 63 65 64 64 64 63 63 63 62 62 63
45 37 34 33 33 32 32 33 35 38 36 35 33 33 34 37 40 47 51 55 57 60 61 61 61 62 62 62 65 68 68 68 68 66 66 65 58 59 59 63 64 64 64 64 64 64 63 64 64
43 37 35 34 33 33 33 35 37 38 36 35 35 33 35 35 35 37 41 45 53 56 59 61 61 62 62 61 62 63 62 62 61 60 59 58 55 56 59 61 64 65 65 65 64 64 64 64 59
43 38 36 35 35 36 35 36 37 38 38 37 35 34 35 37 36 35 37 38 46 52 56 59 62 62 62 62 62 61 60 60 59 59 59 58 58 58 58 59 59 60 62 61 61 60 60 58 58
40 40 38 38 38 38 38 38 37 39 39 39 40 40 39 38 33 34 34 37 45 50 53 56 60 62 63 62 62 61 60 60 59 59 59 59 58 59 59 59 60 60 60 60 61 60 60 59 59
41 39 38 39 38 39 40 39 39 39 40 40 39 39 39 37 35 33 36 45 47 50 52 54 57 60 62 63 62 61 60 60 59 60 60 60 60 60 61 60 60 61 61 61 60 60 59 59 58
43 41 39 39 39 39 39 39 39 39 40 38 35 31 34 35 36 38 42 44 48 50 51 53 54 57 60 61 62 61 61 60 60 61 61 61 61 61 61 61 61 61 61 61 59 60 58 58 58
44 41 40 39 38 38 40 38 38 39 38 29 27 28 32 38 40 40 43 44 45 46 47 48 50 52 57 60 62 61 61 60 61 61 60 60 61 61 61 61 61 61 60 58 58 56 56 55 55
42 44 40 39 39 38 40 37 35 34 29 29 30 32 37 39 40 42 43 44 44 45 48 51 50 51 55 59 61 60 60 60 60 59 59 60 60 61 61 59 57 54 54 53 52 50 50 50 51
45 40 40 38 38 38 39 36 34 33 29 30 29 30 35 39 40 42 42 43 44 47 49 52 54 54 56 59 59 58 58 58 59 59 58 54 52 53 51 47 45 43 46 45 44 43 44 44 45
40 40 38 39 36 38 37 36 35 32 32 31 29 32 36 37 39 41 43 45 47 50 52 54 55 56 57 57 58 58 55 49 47 45 44 43 41 42 43 41 41 41 43 43 43 42 43 43 43
40 41 37 38 37 36 36 34 32 34 33 33 31 33 36 37 40 42 43 44 46 50 52 54 55 56 57 58 55 51 48 47 45 43 41 39 38 37 39 40 39 40 40 39 38 38 39 39 40
41 38 36 37 35 35 33 33 34 35 36 35 31 33 36 37 38 41 42 42 43 46 50 51 54 56 54 51 51 49 47 45 43 43 39 37 34 34 34 35 34 34 36 35 35 35 35 35 36
39 40 37 35 35 35 34 35 36 36 33 32 31 34 36 36 37 39 41 42 43 44 47 48 48 49 49 49 49 47 46 45 40 39 38 36 31 27 27 29 28 29 33 33 33 32 35 34 35
40 41 35 35 35 32 35 26 29 31 28 29 30 34 36 36 37 39 40 42 44 46 48 46 46 46 45 46 44 42 40 38 38 37 36 33 30 25 22 24 26 26 28 30 32 27 33 34 32
42 42 36 37 36 38 36 32 29 30 27 29 30 35 36 37 39 39 41 43 44 46 47 45 43 42 42 41 40 39 38 37 36 33 31 27 25 23 22 22 25 24 26 27 28 30 31 33 29
44 40 40 38 35 31 30 31 26 27 27 27 30 34 37 37 39 40 42 43 45 47 46 45 41 40 41 40 39 38 37 34 32 29 26 23 21 21 21 21 22 23 24 25 27 28 31 32 29
44 41 35 31 31 26 29 29 28 25 25 26 31 34 36 38 39 40 41 41 43 45 44 42 40 39 38 37 36 35 34 31 27 24 21 18 17 19 19 20 19 20 23 23 24 25 27 26 27
42 39 28 24 25 25 28 27 26 27 27 28 32 35 37 38 39 39 40 42 44 44 42 40 38 36 34 33 31 29 28 25 21 20 17 15 15 15 17 18 17 17 17 17 19 22 23 23 24
39 38 34 29 28 26 27 27 27 28 28 27 31 35 36 38 39 39 41 42 43 42 41 40 37 34 32 29 26 23 20 20 19 16 15 15 13 11 13 16 15 15 15 15 16 16 18 19 21
42 38 32 31 25 23 25 24 25 27 27 28 29 34 36 38 39 39 41 42 42 40 39 38 36 33 30 26 22 19 16 14 13 13 12 12 12 12 14 13 13 13 12 12 14 16 17 16 18
41 38 35 30 28 24 23 24 27 26 26 29 29 33 36 38 38 39 40 41 40 39 38 35 33 30 26 23 19 17 13 11 10 9 10 10 10 10 11 11 11 11 10 10 12 13 14 14 16
41 38 34 29 28 27 26 24 26 27 29 29 30 33 36 38 38 39 40 41 38 37 36 33 33 29 25 19 15 14 13 11 10 8 9 8 8 9 10 10 10 10 10 11 11 12 12 12 14

GFSSGP_sfc_dewp_006.txt.gz
Dewpoint
61 50 44 46 40 36 32 27 36 39 38 34 33 33 33 34 34 41 55 54 56 61 66 69 73 72 71 70 68 66 65 63 62 59 59 58 59 58 61 62 61 59 59 61 61 60 61 62 64
58 52 46 44 33 29 26 27 34 34 33 34 34 34 34 33 43 51 55 55 56 61 65 67 73 72 71 70 68 66 65 63 61 59 62 60 60 60 60 60 59 61 60 60 60 60 60 61 62
56 45 41 41 34 24 28 32 32 30 32 35 34 35 33 37 45 50 56 55 55 57 63 69 73 72 71 69 68 66 65 64 62 60 60 62 63 64 61 60 59 61 60 59 59 59 59 59 60
48 45 40 34 32 32 26 27 28 28 32 35 34 34 39 45 47 51 55 55 55 56 68 71 72 72 71 70 69 67 66 65 63 61 62 62 64 65 65 63 64 62 61 60 60 60 61 61 60
46 44 36 34 33 34 29 23 28 29 30 33 34 35 39 45 49 53 54 54 55 58 68 70 72 72 71 71 69 68 67 64 63 62 62 62 66 66 66 65 64 62 61 60 60 59 60 62 63
44 42 35 32 30 31 33 31 28 27 28 33 34 33 40 46 51 54 54 53 55 59 64 69 71 71 71 70 70 69 68 66 65 63 61 61 64 66 66 66 64 63 62 62 61 61 61 62 63
44 41 37 34 31 30 35 30 25 25 31 32 34 33 40 43 50 53 55 54 56 59 61 64 68 69 71 71 71 70 69 68 67 65 63 64 64 64 65 65 64 63 63 63 64 63 62 61 62
45 42 37 36 34 33 33 34 33 29 32 36 35 32 35 41 47 51 55 55 56 60 60 61 64 65 67 67 69 69 69 68 67 67 66 66 65 65 65 66 66 64 64 63 62 63 63 63 63
48 42 37 36 35 34 33 33 34 37 36 35 35 34 36 37 45 49 51 56 57 59 60 60 61 63 64 64 67 68 68 68 67 66 65 65 62 60 62 63 64 64 63 64 64 64 64 65 65
45 42 39 36 35 33 34 34 35 36 37 35 35 36 35 35 35 38 43 49 55 58 59 60 61 62 62 61 66 65 64 65 64 63 63 62 58 59 59 60 62 64 65 66 65 65 66 65 62
45 42 41 36 35 35 35 36 36 36 37 38 36 37 40 40 38 36 36 39 48 55 58 60 61 62 62 61 63 62 62 62 60 59 58 58 57 58 59 60 61 62 63 62 63 64 64 62 60
42 43 41 41 39 38 38 38 37 37 38 41 40 40 40 39 39 35 35 36 44 51 56 59 60 62 62 63 62 61 60 60 59 59 58 58 59 59 59 59 60 60 61 60 61 61 60 60 60
42 42 40 40 39 38 39 39 39 38 39 40 40 41 40 39 39 36 34 45 46 50 52 55 58 61 62 62 62 61 60 60 60 60 60 60 61 61 61 61 61 61 61 61 60 59 59 58 58
44 43 43 41 38 38 38 38 39 39 39 39 40 38 32 34 38 38 38 43 47 50 53 54 55 59 61 62 62 61 60 60 60 61 61 61 61 61 61 61 61 61 60 60 59 58 56 55 55
44 44 43 42 40 37 39 37 37 40 39 38 37 28 32 36 39 40 44 45 45 47 47 48 50 55 59 61 62 61 60 61 61 61 60 60 61 61 61 60 59 58 56 54 52 50 51 51 51
45 44 42 42 40 40 38 35 38 39 37 36 28 29 36 39 40 42 43 44 45 46 49 51 49 50 57 60 61 60 60 60 59 60 60 58 58 58 52 50 46 46 46 45 44 44 44 44 44
43 39 41 41 42 39 37 36 39 39 34 31 29 29 36 39 40 42 43 43 44 48 51 52 52 52 57 60 59 58 58 55 50 47 45 44 44 44 45 44 42 42 45 44 43 42 43 41 41
36 40 38 40 41 39 37 36 38 38 33 30 30 29 36 38 40 41 43 45 48 51 53 54 56 57 58 58 58 50 47 46 46 44 41 40 40 40 42 42 40 40 41 41 37 36 36 38 39
37 37 40 38 41 38 37 36 38 37 36 34 33 32 36 39 41 42 44 47 51 53 54 55 56 57 58 58 51 49 48 45 44 41 37 36 35 37 36 38 36 36 37 35 32 33 33 35 35
37 38 40 39 40 39 37 36 36 36 35 34 34 32 37 39 40 41 43 45 48 51 53 55 55 52 52 51 50 48 46 44 43 41 37 33 30 30 28 31 31 30 34 32 32 31 34 34 35
36 37 40 39 38 39 35 34 33 33 33 35 36 33 37 38 39 41 42 44 46 48 48 49 49 50 50 48 47 46 47 43 41 40 38 33 27 26 27 28 28 29 31 32 31 31 32 34 33
32 37 40 42 39 36 34 28 32 33 35 34 32 33 37 37 39 40 41 43 45 47 48 47 47 47 47 46 45 42 40 39 39 37 35 31 26 24 25 26 27 27 30 28 29 28 30 32 32
33 37 40 42 41 38 33 31 30 33 34 28 29 34 36 37 39 40 42 44 46 47 45 44 43 42 42 41 40 40 39 38 36 34 29 25 25 24 24 24 25 25 28 27 26 26 27 32 30
37 37 40 44 41 36 37 32 30 29 28 28 29 35 36 37 39 41 43 45 46 46 45 42 41 41 41 39 38 38 36 34 32 28 26 24 25 26 23 23 23 23 24 24 26 24 26 27 28
39 37 33 33 32 29 31 33 30 26 27 28 29 35 36 38 39 41 42 44 45 44 43 41 40 38 37 36 35 33 31 28 24 23 22 19 20 22 20 21 19 21 21 22 22 23 23 24 24
38 38 33 29 31 26 29 28 28 27 27 30 32 35 37 38 39 40 42 43 45 44 41 39 37 35 34 32 29 27 26 26 23 19 19 17 18 18 17 18 18 17 18 19 19 22 23 19 23
38 34 36 38 25 26 28 27 26 28 27 30 33 35 37 38 39 40 42 44 44 42 40 38 35 33 31 28 24 21 20 19 18 16 17 18 15 12 15 16 15 15 16 16 16 17 17 18 19
41 40 36 38 24 25 27 26 25 27 27 29 33 35 37 38 39 40 41 43 42 41 40 37 34 31 28 25 21 17 14 13 13 14 12 12 12 13 14 13 13 13 14 14 14 17 17 16 16
42 41 42 40 32 25 24 25 29 28 29 28 32 35 37 38 39 40 41 42 41 39 38 35 32 28 25 22 19 15 13 12 11 10 10 10 11 11 12 12 12 12 12 12 13 13 13 13 13
43 40 40 31 29 28 28 25 26 28 29 30 29 35 37 38 39 40 41 41 39 38 36 34 31 27 24 19 15 14 13 12 10 9 10 10 9 11 11 12 12 13 14 14 13 13 13 13 13

GFSSGP_sfc_dewp_009.txt.gz
Dewpoint
64 57 52 42 31 34 31 30 34 33 33 34 34 33 32 34 36 41 53 61 66 69 70 71 73 72 71 70 68 66 65 63 61 60 60 60 59 59 62 61 59 59 60 60 60 59 60 61 62
64 57 43 39 28 25 27 29 31 29 33 34 34 34 33 36 48 53 53 57 66 68 69 70 73 73 71 70 68 66 65 63 62 60 62 58 59 59 58 59 61 61 60 59 59 59 58 59 61
57 54 39 37 33 23 24 30 29 28 29 35 34 35 36 42 50 53 55 57 65 66 67 69 73 73 72 70 68 67 66 64 62 61 60 63 63 64 61 60 62 61 61 59 59 59 59 58 58
47 44 38 32 30 32 29 21 28 29 29 33 35 34 43 46 49 54 55 55 59 65 67 72 73 73 72 70 68 67 66 65 63 62 62 62 65 65 66 64 64 63 62 61 60 60 60 61 61
46 42 35 34 32 33 30 28 29 29 30 33 34 35 41 47 52 54 54 55 64 67 69 71 73 73 71 69 68 67 66 65 63 63 62 63 66 66 66 64 64 63 62 62 61 59 60 61 62
43 41 35 33 33 33 32 31 27 28 27 31 34 34 42 50 52 54 54 54 66 68 69 70 72 72 72 71 69 68 67 65 65 62 63 62 64 66 67 66 64 63 62 62 63 62 62 61 62
44 41 37 35 34 34 33 28 23 26 31 33 34 33 41 47 51 55 54 55 62 66 69 69 69 70 71 71 71 70 69 68 66 65 63 65 64 64 65 67 65 64 63 63 64 64 63 63 62
46 42 39 37 35 35 36 33 31 28 30 36 36 33 36 43 50 55 55 55 59 64 65 68 68 69 70 69 70 69 69 69 68 67 66 65 65 65 66 66 66 64 64 64 63 63 63 64 64
50 42 40 39 36 36 37 33 35 36 36 37 36 35 37 44 50 53 54 56 57 60 62 65 67 66 68 67 68 69 68 68 67 66 65 64 62 61 62 64 64 65 63 64 64 64 65 66 66
46 43 42 40 38 36 36 34 33 35 38 38 37 37 38 41 47 50 51 54 56 58 59 61 64 65 65 64 66 66 66 66 65 64 63 63 61 59 60 61 63 64 65 66 65 65 67 66 64
47 44 43 41 40 39 36 36 37 37 37 38 38 37 41 38 37 36 38 50 55 58 59 60 61 62 62 65 65 64 64 64 64 63 62 62 58 57 58 59 60 59 61 62 62 62 64 63 62
45 46 45 45 44 42 39 38 37 37 37 39 41 41 41 40 39 38 35 36 49 56 58 60 61 61 62 62 63 62 63 62 60 60 59 58 59 59 59 59 60 60 61 61 61 61 60 60 59
44 44 44 44 44 42 41 39 38 39 40 40 40 40 40 41 40 39 37 43 48 52 57 59 60 62 62 62 62 61 60 60 59 60 59 60 61 61 61 61 62 61 60 60 59 57 56 55 54
43 43 43 43 42 41 39 38 39 39 40 39 39 40 40 37 36 38 38 43 48 51 54 58 58 62 62 62 62 61 60 59 60 61 61 61 61 61 61 60 58 57 53 50 49 46 47 47 48
45 44 43 45 43 43 43 38 37 39 40 39 39 39 33 38 39 40 44 45 47 47 48 52 56 60 61 62 61 61 60 61 61 60 60 60 61 60 56 45 43 47 46 44 43 42 44 43 42
42 43 40 42 44 43 41 38 38 39 39 39 39 35 35 39 40 43 44 44 45 47 49 49 49 56 61 62 61 60 60 59 55 46 43 43 45 46 44 42 42 43 44 42 41 41 39 40 41
40 36 39 41 43 42 40 38 39 39 38 38 36 30 37 39 41 42 43 44 44 49 50 51 49 54 60 60 56 50 45 44 44 42 41 40 40 41 41 41 39 40 41 38 36 35 35 36 36
33 35 35 39 41 42 41 40 38 38 38 38 32 29 38 40 40 41 42 43 48 51 53 53 53 58 57 48 46 44 43 42 40 38 37 37 36 36 38 37 34 36 36 34 32 30 32 34 34
33 33 35 37 40 40 39 40 38 38 38 34 31 33 38 40 41 43 44 48 51 53 55 56 57 57 52 48 46 44 44 40 38 35 32 31 31 32 31 33 31 33 32 31 30 31 32 33 34
36 36 35 36 40 42 40 38 39 38 38 37 35 34 39 40 41 43 45 49 52 54 55 55 54 53 51 49 48 45 41 41 39 37 29 26 26 27 27 29 29 30 31 29 29 30 32 34 33
35 36 35 34 38 41 41 39 38 38 37 36 36 35 39 40 40 41 44 48 48 49 49 49 49 48 47 45 44 43 43 41 39 36 31 26 24 26 27 27 27 29 30 29 28 29 29 32 32
31 33 34 35 35 35 40 34 37 37 34 34 34 37 38 40 40 42 43 45 47 47 48 49 49 47 46 44 44 40 39 38 38 36 32 26 23 23 25 26 26 26 28 26 26 25 28 29 29
32 33 33 35 37 37 36 37 33 34 33 33 33 36 38 39 40 41 44 45 46 44 43 42 42 42 42 42 40 39 38 37 36 31 27 24 23 23 24 24 24 24 26 24 23 23 24 27 26
35 36 36 37 36 32 36 35 32 31 31 33 30 36 37 39 40 43 45 45 44 43 41 41 40 39 39 39 38 36 34 30 28 25 24 25 25 24 22 21 21 21 22 22 23 22 21 22 24
35 33 29 28 29 28 36 35 35 31 33 33 30 36 37 39 41 43 44 44 43 41 40 39 38 37 35 34 32 30 27 25 22 21 19 19 20 20 18 19 18 19 19 20 20 20 19 20 21
33 31 28 21 24 25 37 34 34 34 32 32 35 36 38 39 42 43 44 44 43 41 39 37 36 34 32 29 27 25 24 23 21 18 18 17 17 16 16 16 16 15 16 17 17 20 20 18 20
31 31 33 34 36 32 35 37 34 29 29 32 35 36 38 39 41 42 43 44 43 40 38 36 34 31 28 25 22 19 19 17 16 15 16 16 14 13 14 14 13 14 14 15 15 16 16 17 18
33 35 32 34 29 29 32 27 26 26 29 34 35 36 38 39 40 42 43 43 42 40 37 34 32 29 26 21 17 15 13 13 13 12 11 11 11 12 12 12 12 13 13 14 14 16 17 16 17
35 35 35 35 33 32 30 27 28 26 30 33 35 36 38 39 39 41 43 43 41 39 35 33 30 25 21 19 15 13 12 11 11 10 10 10 10 11 11 12 13 13 14 14 14 14 15 14 15
37 37 33 28 30 35 26 23 28 29 29 33 35 36 38 39 39 41 42 41 39 37 34 31 28 24 20 17 14 13 13 11 10 10 10 11 10 11 12 13 14 14 15 15 15 15 15 15 15

GFSSGP_sfc_dewp_012.txt.gz
Dewpoint
65 60 53 41 29 33 30 30 30 29 32 34 34 34 33 36 35 37 56 62 67 70 71 71 73 73 71 70 68 66 65 62 62 62 62 61 59 61 61 61 60 60 59 59 59 59 60 60 62
66 57 44 39 27 23 26 28 31 30 30 32 35 34 34 42 51 53 58 66 68 70 71 70 73 72 71 69 68 66 65 63 61 61 60 60 59 62 60 59 60 61 59 58 59 58 57 59 60
54 53 40 35 32 25 24 27 27 29 29 34 34 36 40 43 53 53 57 66 68 69 70 70 73 73 71 70 68 66 65 64 62 62 62 63 62 62 61 58 62 61 61 59 59 59 59 59 59
49 44 38 32 31 31 30 31 26 28 28 33 35 36 44 47 49 54 60 65 66 67 68 71 73 73 72 70 68 67 66 64 62 62 62 63 65 65 65 64 64 63 62 60 60 59 60 61 62
46 42 36 33 32 32 33 32 26 28 29 31 33 35 42 48 54 55 57 64 64 65 68 71 73 73 71 69 68 67 66 65 62 62 63 64 65 66 66 66 64 63 62 61 61 61 60 61 62
44 41 35 33 33 33 34 34 28 27 28 30 33 37 42 49 53 54 55 62 66 66 69 70 72 72 71 70 69 68 66 65 64 63 63 64 64 66 66 65 64 63 62 62 63 62 63 63 62
44 41 37 36 34 36 35 36 24 24 30 34 35 37 41 49 52 54 53 63 67 68 69 70 70 70 71 70 70 69 68 67 66 64 64 65 65 64 66 67 65 64 63 63 63 64 63 63 64
46 42 39 37 36 36 37 35 31 27 27 35 35 37 39 42 50 55 55 64 66 68 68 69 69 70 69 70 70 70 69 69 68 67 66 66 65 64 66 68 67 64 64 64 64 63 63 64 64
49 43 40 39 37 37 37 36 35 35 34 36 36 34 35 42 52 54 54 57 62 66 67 68 68 68 68 68 68 69 69 68 68 66 65 64 62 61 62 64 65 66 65 64 64 64 65 67 66
48 44 42 42 40 38 39 36 35 34 37 37 38 39 39 48 51 53 53 55 57 61 64 66 67 66 67 67 67 67 66 66 65 64 62 63 61 60 59 61 64 66 65 66 65 66 67 66 64
48 45 44 43 42 41 40 38 37 35 35 37 37 39 39 43 46 50 52 54 55 59 62 64 65 64 65 64 66 65 65 64 64 63 62 62 61 58 60 59 59 59 60 61 61 61 61 62 62
43 46 46 46 46 45 43 40 39 37 36 38 39 41 41 39 39 40 41 48 52 57 59 62 63 63 64 64 65 64 63 63 62 63 62 61 58 58 58 59 60 60 61 61 60 56 51 50 51
43 43 45 46 46 45 44 43 40 39 39 40 40 40 40 40 41 41 40 36 40 55 58 60 61 62 62 64 64 63 63 62 61 60 59 59 60 60 61 61 60 56 52 48 46 46 45 44 45
41 41 43 44 44 44 43 43 40 40 40 39 40 40 40 40 41 38 38 43 49 53 58 59 61 62 62 62 62 61 61 60 60 61 61 61 61 61 55 47 48 46 45 43 42 42 41 41 41
42 42 43 42 43 44 43 41 42 41 39 39 39 39 39 39 37 37 40 44 47 52 56 58 60 62 62 62 61 60 60 61 60 53 51 54 54 45 43 43 44 44 41 39 38 36 37 38 37
41 40 37 40 43 44 43 40 41 40 39 39 39 39 39 37 39 43 44 45 47 48 51 53 57 61 62 61 61 60 58 50 45 43 43 42 43 43 41 40 40 40 37 36 34 35 34 34 35
39 34 35 38 41 43 42 39 40 41 39 38 38 38 37 37 41 43 44 44 46 48 50 49 53 60 61 57 50 46 44 42 41 40 39 39 39 39 37 36 37 36 34 33 32 31 33 32 33
32 34 34 33 40 42 41 40 42 40 39 38 38 38 33 39 41 42 43 44 47 50 51 50 52 59 49 46 44 42 39 38 37 36 36 34 33 34 34 32 34 33 32 31 30 28 31 32 33
36 34 32 34 36 36 37 40 40 42 39 38 38 37 32 39 41 41 43 45 51 53 54 53 57 49 47 45 43 41 38 35 34 31 30 30 29 29 30 31 31 32 30 29 28 30 31 32 33
34 33 34 35 35 35 37 39 41 40 41 39 38 34 37 40 41 43 47 51 53 54 55 57 54 49 48 46 44 41 38 37 34 30 26 26 27 27 27 28 29 29 29 27 27 28 29 32 32
34 33 31 31 35 35 34 32 36 41 40 40 39 36 39 40 41 43 49 51 52 52 52 52 50 49 47 44 41 39 38 38 34 30 27 25 25 27 27 26 27 28 28 27 26 26 26 28 30
31 34 35 34 34 30 36 29 34 38 40 39 38 35 39 40 41 44 48 49 50 49 50 49 48 46 44 42 39 36 35 35 36 32 27 24 23 25 25 25 25 25 26 23 24 23 25 25 24
32 34 32 33 33 33 32 32 33 37 37 39 38 35 38 40 41 45 47 48 48 47 47 47 46 45 44 43 40 39 37 37 35 29 24 21 22 23 23 23 22 22 25 22 21 21 20 24 22
35 34 34 34 33 28 28 31 29 34 34 37 36 35 38 40 42 45 46 46 44 43 43 43 43 42 42 40 39 37 34 31 28 26 25 25 23 23 20 20 19 19 20 21 22 20 19 19 20
32 30 24 23 24 23 27 31 30 33 34 34 36 35 38 40 42 44 44 43 41 40 40 40 40 38 38 37 35 32 29 25 21 21 22 20 19 19 17 18 16 17 17 19 19 18 18 18 18
32 30 24 16 19 21 33 30 32 37 36 37 38 36 39 40 43 44 43 41 40 39 38 37 36 34 32 30 27 24 23 23 21 19 18 17 16 16 15 15 14 14 14 16 16 18 19 17 19
31 29 29 27 29 27 31 35 39 40 37 32 34 37 38 41 43 43 42 41 40 39 37 35 33 30 27 25 22 20 19 18 17 16 16 15 14 13 13 13 12 13 14 14 14 16 16 16 17
32 32 28 28 20 20 29 33 33 36 32 34 35 37 39 41 43 43 42 41 40 38 35 33 30 26 23 20 17 16 15 14 13 13 11 11 11 11 12 12 13 13 14 14 14 16 18 16 17
32 29 30 27 28 28 26 30 34 36 33 34 37 37 39 41 42 43 42 41 39 37 34 31 28 23 19 16 13 12 12 12 11 10 10 10 10 11 11 12 14 14 15 15 15 15 16 16 16
31 29 28 26 22 29 31 27 28 33 33 36 37 37 39 41 42 43 43 41 38 35 32 29 25 21 17 15 13 13 12 11 10 10 10 11 10 12 12 14 15 15 16 16 16 16 17 16 16

GFSSGP_sfc_dewp_015.txt.gz
Dewpoint
66 62 48 39 27 32 30 30 30 29 32 33 33 33 33 38 35 36 56 63 67 68 72 72 73 73 71 70 68 66 64 63 62 63 66 61 60 58 60 61 59 59 59 58 59 60 61 61 62
62 55 43 38 29 23 25 28 30 29 30 31 34 34 35 43 51 53 58 65 68 70 71 71 74 73 71 69 68 66 64 62 62 62 62 60 59 60 60 59 59 60 59 58 58 58 58 58 59
55 47 39 35 30 26 24 27 28 28 27 34 34 39 40 46 53 54 56 67 69 69 71 70 73 72 71 69 68 66 65 63 61 62 61 60 60 60 60 60 61 61 60 59 59 59 60 60 60
48 44 38 33 31 32 25 31 30 26 27 33 35 37 44 47 51 54 64 67 68 68 69 71 73 73 72 69 68 67 65 63 62 63 63 63 64 64 63 64 64 62 62 60 60 59 59 60 62
45 41 36 33 33 33 32 33 31 28 27 31 32 36 43 47 54 59 65 66 66 67 68 71 73 73 71 70 68 67 66 64 62 62 63 64 64 65 66 66 64 63 62 61 60 61 61 61 61
44 40 36 32 32 33 34 34 33 28 26 31 33 40 42 48 54 57 64 64 65 66 68 71 72 73 72 70 69 68 66 65 63 62 63 64 64 66 66 66 64 64 62 62 62 63 63 63 63
44 39 36 35 34 35 35 36 35 27 29 33 34 38 41 45 52 54 59 64 65 66 68 70 71 71 71 70 69 69 67 66 65 64 64 65 65 65 66 66 65 64 64 63 63 64 63 63 63
46 42 38 37 35 35 37 36 34 27 26 34 36 37 40 42 49 54 56 65 66 67 68 69 69 70 69 69 70 69 68 68 68 66 66 66 65 65 66 68 67 65 64 64 64 64 63 64 65
47 42 39 37 37 35 38 37 37 36 32 35 35 39 37 42 53 54 58 62 64 67 67 68 69 69 69 69 68 69 69 68 67 66 65 64 61 61 62 64 65 66 65 65 64 65 65 67 66
48 43 40 41 39 37 38 38 36 36 36 36 37 39 44 50 53 53 55 60 62 65 65 67 67 67 67 68 67 67 67 66 65 64 62 62 61 59 58 61 64 65 66 66 65 65 65 64 63
47 43 43 44 43 42 41 39 39 37 35 36 36 38 41 47 52 53 53 55 61 64 64 67 66 66 66 66 66 65 65 65 64 63 62 61 61 59 60 59 59 60 60 60 61 60 56 51 52
41 45 46 46 46 46 44 42 40 38 36 38 38 40 40 42 47 50 51 52 54 58 62 64 65 64 65 64 65 65 64 63 63 63 62 61 60 57 58 59 60 61 61 53 48 47 45 43 42
42 43 44 45 47 46 46 45 44 42 41 40 39 40 40 40 40 41 43 44 49 54 59 62 64 64 64 64 64 63 63 63 62 62 62 61 58 59 60 54 48 47 46 44 43 41 39 38 38
41 41 41 42 44 44 44 44 44 43 42 40 40 40 40 40 40 40 40 41 38 41 56 60 62 63 63 64 63 63 63 62 61 60 60 61 61 53 46 46 45 43 42 40 37 36 36 35 35
42 40 41 41 42 42 44 41 42 44 43 40 39 39 40 40 40 38 38 38 42 47 52 59 61 62 62 63 62 62 61 60 57 54 56 55 45 43 44 43 42 39 37 33 32 33 33 32 32
40 38 35 38 41 42 43 36 41 43 43 42 40 39 39 40 39 39 40 42 46 50 56 59 61 62 62 62 61 61 55 47 45 44 44 42 42 41 40 39 38 34 33 32 30 33 32 30 31
39 33 34 35 40 42 42 38 40 41 41 40 39 39 39 39 38 40 44 45 47 49 53 57 61 62 61 57 52 48 44 42 41 40 40 39 37 36 36 36 34 32 31 31 29 29 32 30 29
30 33 33 33 38 39 39 38 39 42 41 40 40 39 39 37 37 40 43 44 46 49 50 51 60 59 50 45 43 41 39 38 37 36 35 33 33 31 33 33 31 30 30 29 27 27 29 32 30
35 34 33 33 35 35 36 36 37 40 41 42 40 39 39 35 38 42 42 43 47 50 50 50 56 50 47 45 42 41 37 34 32 30 29 29 29 29 29 31 30 30 29 27 26 28 28 30 31
33 33 33 34 35 35 33 33 35 37 37 41 41 40 39 36 40 41 42 46 51 52 52 55 50 48 47 45 42 39 35 33 29 29 27 27 27 27 27 29 29 27 26 25 25 26 26 28 31
33 32 31 30 31 32 31 27 23 29 35 39 42 41 41 37 39 41 45 49 52 53 54 52 49 47 45 41 38 35 32 31 29 26 26 25 26 27 27 26 27 26 26 25 24 25 23 24 25
29 34 34 33 31 27 32 20 23 29 31 35 40 41 38 38 40 43 48 50 52 52 53 50 48 45 42 40 37 33 31 30 31 28 24 24 24 24 25 25 24 24 24 22 22 22 23 23 21
30 33 32 34 33 31 30 29 27 31 31 35 40 40 38 39 41 44 49 50 51 50 50 48 46 44 42 39 37 36 34 34 31 25 22 20 22 22 22 22 21 21 23 21 19 19 18 22 20
35 34 34 34 32 25 26 27 21 22 32 35 38 40 38 39 41 45 48 48 47 47 47 46 44 43 41 39 38 35 34 30 26 24 23 22 22 22 19 19 19 18 19 19 20 18 17 17 18
31 31 26 25 25 21 25 26 25 27 30 33 36 38 37 39 43 46 47 47 45 45 45 45 44 41 39 38 36 34 31 27 25 24 24 21 18 19 17 17 15 16 16 17 17 17 16 17 17
31 29 25 17 19 19 23 24 25 32 30 29 31 36 38 40 43 46 47 46 44 43 43 42 41 38 37 35 32 28 25 25 23 22 20 18 17 17 15 14 13 13 14 15 15 18 18 17 18
34 31 30 25 25 27 27 30 36 38 38 38 36 36 38 40 43 45 45 43 42 41 39 39 37 33 31 28 24 22 21 20 19 16 16 16 15 13 12 12 12 13 14 15 15 16 16 17 17
31 31 28 30 20 18 20 28 27 33 32 33 34 33 37 40 43 44 42 40 39 37 35 34 33 29 25 21 19 17 16 15 15 14 12 12 11 11 12 12 13 14 15 15 15 17 18 17 18
31 29 29 28 25 17 18 17 34 33 32 33 34 36 38 41 43 42 41 39 38 35 33 29 26 23 20 17 15 14 13 12 11 10 10 10 11 11 12 13 14 15 15 16 16 16 16 17 17
31 28 28 27 19 22 25 24 31 34 32 35 36 39 42 44 43 42 40 38 36 33 30 27 22 19 16 14 13 13 12 11 10 10 10 11 10 12 13 14 15 15 16 17 16 16 17 17 17

GFSSGP_sfc_dewp_021.txt.gz
Dewpoint
62 56 45 44 37 33 30 30 32 31 32 33 32 34 34 36 38 38 59 62 63 65 69 70 73 73 71 69 68 66 65 65 64 66 67 64 61 58 59 61 59 59 59 59 61 61 62 63 63
58 50 45 41 33 29 29 29 30 31 31 30 34 38 35 40 50 52 58 62 65 67 69 69 73 73 71 69 68 66 64 64 63 67 66 62 60 58 59 60 60 60 60 59 59 59 59 59 59
51 42 42 37 32 29 29 28 30 33 32 29 34 39 39 44 52 53 58 63 66 67 70 70 74 73 71 69 68 66 64 63 63 65 64 60 61 60 59 60 61 61 60 59 59 60 60 61 61
48 45 39 34 32 33 29 26 33 34 33 31 34 37 43 47 52 54 62 67 67 69 71 72 73 73 72 70 68 67 64 63 63 62 62 62 62 62 62 63 64 62 61 60 60 60 60 60 61
46 43 36 34 33 33 33 33 34 34 32 29 31 34 41 48 56 60 65 68 67 70 70 70 73 73 72 70 69 67 65 63 63 63 63 62 63 63 65 66 65 63 61 61 61 62 62 63 63
44 40 34 32 32 34 35 35 35 32 31 29 33 38 41 48 56 64 66 67 68 69 70 71 72 72 72 70 69 67 66 64 63 64 63 63 64 67 65 66 65 64 62 62 62 63 63 63 63
44 39 35 34 32 33 34 35 34 34 32 29 35 36 39 45 55 64 65 66 67 69 69 70 70 71 71 70 70 69 67 66 65 65 64 65 65 66 67 66 65 64 63 63 64 64 64 64 65
45 41 37 36 33 33 35 37 37 32 28 33 37 35 36 43 56 63 64 64 65 67 68 69 71 70 70 68 69 69 69 68 66 66 66 66 65 64 66 67 67 65 64 64 65 65 66 66 66
47 43 39 37 36 35 38 36 38 39 35 38 37 37 40 49 55 60 62 64 64 65 67 69 70 70 70 69 67 68 68 67 66 65 64 64 63 61 61 63 65 64 64 65 65 65 63 60 57
47 43 41 41 39 38 38 38 39 38 38 39 38 39 42 51 54 56 58 60 63 64 65 68 69 70 70 68 68 67 67 66 65 64 63 62 61 59 59 60 62 62 63 63 62 55 52 50 46
46 42 42 43 43 45 44 42 41 39 40 40 39 39 41 45 52 53 55 56 61 64 65 67 69 69 69 68 68 67 67 66 65 65 63 62 61 60 60 60 60 61 60 50 46 43 42 42 41
42 44 46 46 46 45 45 46 45 43 43 41 40 43 42 43 42 52 53 54 58 62 65 67 67 68 68 68 67 67 66 66 65 64 63 62 61 59 59 60 56 49 47 42 42 38 35 34 34
42 42 43 44 43 43 45 44 44 45 46 45 46 46 45 44 42 42 49 53 54 57 62 65 67 67 67 67 67 66 65 65 65 64 63 62 60 59 54 48 45 43 40 38 36 32 29 28 28
40 41 41 42 41 42 41 41 43 42 44 45 46 45 43 43 43 43 42 42 46 52 56 62 66 67 67 67 66 65 65 65 64 63 63 62 61 53 48 44 42 37 35 34 31 27 27 25 24
43 40 40 40 41 41 42 38 40 41 42 42 42 43 44 44 44 43 43 42 42 43 44 53 62 66 66 66 65 64 64 64 63 63 62 61 52 47 44 40 37 34 31 29 31 29 26 24 22
40 40 34 36 39 40 39 30 36 38 40 41 42 42 43 43 43 43 43 42 43 42 42 44 56 64 65 65 64 63 64 63 61 59 53 48 46 44 39 36 34 31 30 29 28 30 28 24 24
37 31 35 33 37 38 40 37 39 42 40 40 41 42 43 43 44 43 43 42 42 42 43 50 58 63 64 64 63 63 59 55 53 48 44 43 41 38 35 33 31 28 28 28 25 26 29 24 24
30 32 33 31 34 36 35 34 36 36 37 37 37 39 41 41 42 42 43 42 42 44 48 52 59 62 63 59 56 54 47 45 44 43 38 37 35 33 32 30 28 27 27 25 25 23 27 26 25
34 33 33 34 35 34 32 32 32 33 34 35 35 36 37 40 42 43 43 42 43 47 50 56 60 62 56 53 52 49 47 40 37 35 33 32 31 30 30 29 27 27 25 24 21 25 23 24 25
34 33 32 32 32 32 31 30 30 32 32 32 32 33 36 39 42 42 42 43 44 47 51 59 60 56 55 54 52 49 45 36 33 33 30 30 30 29 28 27 26 25 24 24 23 23 23 23 26
32 32 30 29 31 31 30 27 22 23 27 29 30 32 32 36 38 41 42 42 45 48 51 58 55 53 52 48 42 39 36 31 30 29 29 28 28 27 26 26 24 25 26 24 24 24 23 20 23
30 32 32 31 29 24 28 19 19 21 21 23 22 24 28 32 34 38 42 42 44 48 52 56 52 49 46 46 44 43 40 34 30 29 28 27 26 25 24 25 24 24 24 23 22 21 23 22 20
30 31 30 31 31 29 27 27 23 25 24 25 28 28 27 30 35 39 42 43 45 50 53 53 49 47 45 46 46 48 39 30 27 26 24 23 24 24 23 23 23 22 23 21 21 21 20 22 18
35 33 32 33 31 26 25 25 21 20 20 21 23 26 32 36 36 41 42 44 48 52 52 51 48 45 44 45 45 41 32 26 25 24 23 22 22 22 21 21 21 21 21 21 21 21 21 20 19
32 34 26 23 24 21 24 25 23 23 25 25 25 25 27 33 38 41 43 47 50 52 51 49 47 44 43 44 39 36 28 26 23 24 22 21 19 20 19 18 17 18 21 21 21 20 20 20 19
32 30 25 17 17 19 24 24 23 27 27 27 27 27 29 34 39 41 44 48 49 51 50 48 46 43 41 40 38 32 28 26 24 23 22 19 19 18 17 16 16 16 17 18 19 20 20 20 20
33 29 30 27 25 24 22 24 25 27 28 33 33 35 35 32 37 41 45 48 50 51 49 47 45 42 40 37 31 27 25 24 24 22 20 19 17 14 15 16 16 17 18 18 18 17 17 18 20
34 33 28 29 19 17 20 22 22 22 23 33 33 36 37 37 37 42 46 49 50 50 48 46 43 40 35 32 29 26 24 23 21 19 17 16 14 14 15 16 16 17 17 17 17 17 18 18 19
32 31 33 30 28 20 15 14 19 19 27 33 35 38 40 39 38 42 47 48 48 45 44 42 38 33 29 26 23 22 20 18 16 15 14 13 13 14 15 15 16 16 16 15 15 15 17 18 20
31 29 29 26 21 26 23 19 28 33 34 35 37 39 42 42 42 46 45 42 43 41 39 38 33 28 25 21 19 17 16 14 13 12 12 12 13 15 15 15 15 15 15 14 13 15 18 19 20

GFSSGP_sfc_dewp_024.txt.gz
Dewpoint
58 51 47 43 35 33 28 23 29 31 33 34 32 34 35 36 39 39 59 61 61 63 67 70 73 73 71 69 68 67 66 64 64 65 67 65 61 59 63 61 59 60 59 60 62 62 62 63 63
53 45 45 39 31 28 25 27 27 32 32 32 32 35 35 36 45 52 56 61 61 63 67 67 73 73 71 69 68 66 66 64 66 67 65 62 59 58 60 60 61 61 60 59 59 60 60 59 59
50 42 38 34 31 27 26 29 26 33 32 29 34 39 37 42 50 51 58 62 62 64 66 67 73 72 70 69 68 66 65 63 66 67 64 62 60 59 60 61 61 61 60 60 60 61 61 61 62
46 43 38 31 29 30 30 27 33 32 32 32 32 35 41 48 51 54 58 63 62 63 66 72 73 73 72 70 68 66 64 64 65 64 63 62 61 61 61 61 63 62 61 61 61 61 61 61 61
46 41 32 31 29 29 32 32 32 32 32 31 30 34 38 48 53 56 61 63 61 64 65 68 73 73 72 70 68 66 64 63 63 63 63 63 63 63 63 65 64 63 61 61 61 62 62 63 63
41 38 29 27 27 31 32 32 33 32 31 31 29 31 37 49 55 59 62 62 62 64 66 66 72 72 72 70 69 67 65 64 64 64 63 64 64 67 66 65 65 64 62 62 62 63 64 63 63
38 34 27 27 26 28 31 32 32 31 31 31 33 32 37 45 57 61 62 62 63 63 65 65 69 70 71 71 70 69 67 66 66 65 64 65 64 67 67 66 65 64 63 63 64 65 65 65 66
42 36 29 31 26 28 31 33 33 33 31 34 35 32 35 42 58 61 61 62 63 64 64 64 67 67 67 68 69 69 68 67 67 66 66 66 64 64 67 67 66 65 64 65 65 66 66 65 61
47 34 30 30 30 29 35 33 35 38 36 37 36 36 40 46 57 59 60 61 62 63 64 65 64 65 67 65 66 68 68 67 66 64 65 64 60 59 60 64 65 64 65 64 65 62 60 57 56
42 36 32 33 34 33 34 37 37 36 35 35 37 38 41 48 53 57 57 57 60 61 62 64 65 65 66 65 65 64 63 63 60 59 59 58 57 57 57 61 62 63 63 62 57 53 49 54 49
41 37 35 40 39 40 39 40 40 37 35 36 36 37 41 43 45 50 53 54 57 59 61 64 65 66 66 65 65 63 63 62 61 61 60 58 56 57 58 59 59 61 60 53 46 47 45 44 43
39 39 40 39 43 44 41 41 41 40 37 36 41 41 43 43 44 43 49 51 54 58 62 63 66 67 67 65 65 63 62 62 61 61 59 57 57 58 58 59 58 54 48 44 44 43 39 36 33
39 36 40 40 43 41 41 40 39 38 40 41 42 44 44 43 44 44 43 47 53 55 59 63 65 67 67 66 65 63 62 63 62 61 59 59 58 58 59 54 50 44 42 42 42 38 32 28 26
38 40 39 40 39 39 38 37 37 37 38 37 39 39 39 41 42 43 44 43 43 50 54 59 64 66 66 66 65 64 62 62 63 61 60 60 60 58 51 47 41 38 37 35 33 29 27 25 23
41 39 38 37 37 37 39 36 35 37 37 35 36 36 38 38 39 42 43 44 43 43 45 52 59 63 65 65 65 64 62 63 62 60 61 61 60 51 47 42 38 34 31 29 30 28 27 26 23
37 37 33 34 37 38 37 29 30 34 35 37 37 36 36 36 37 36 39 42 43 44 44 44 48 57 62 64 65 64 62 63 62 61 61 61 52 47 43 39 35 31 30 29 29 29 29 26 24
35 29 32 32 34 34 36 33 35 40 38 38 37 38 38 40 41 41 38 40 43 43 44 44 47 49 57 62 64 63 62 63 62 61 57 53 47 42 38 35 31 29 29 29 25 27 26 24 24
27 31 29 29 31 34 33 33 34 35 35 35 35 37 38 39 40 42 42 42 42 42 43 44 46 51 57 61 63 63 63 61 58 53 49 45 42 37 35 32 29 28 29 27 26 24 24 24 23
31 31 30 30 32 32 30 29 29 31 32 32 32 31 32 34 36 39 42 42 44 44 45 46 48 53 58 60 62 61 58 57 52 45 43 41 35 33 33 31 29 29 28 25 22 23 24 24 23
31 30 29 30 31 31 29 28 29 29 29 29 28 27 27 27 31 33 38 41 42 43 45 47 51 56 59 60 59 59 57 55 50 41 36 36 33 31 30 31 29 28 27 26 24 24 25 23 24
30 30 29 28 31 30 29 26 23 21 23 24 26 27 27 27 27 29 32 38 41 43 46 49 54 58 59 58 59 54 46 43 39 36 32 32 30 29 30 30 28 28 28 27 26 25 24 23 24
29 29 29 29 28 24 27 22 22 22 22 22 22 24 25 26 28 29 30 34 37 43 49 51 57 57 58 58 51 48 48 47 43 34 31 32 33 29 27 27 26 26 26 25 24 21 23 22 22
29 30 29 29 29 28 27 27 21 23 22 23 23 24 25 27 28 28 31 33 35 44 50 53 57 57 55 53 53 53 51 47 37 31 28 28 27 27 26 25 26 24 23 23 22 22 21 21 18
33 31 31 30 30 27 25 26 20 19 19 21 21 22 23 23 29 30 32 35 37 45 52 54 55 54 53 54 53 54 49 40 30 27 25 26 27 25 24 24 24 23 23 23 22 23 22 22 20
33 32 26 24 25 20 19 23 22 20 21 22 21 21 25 27 27 31 34 38 42 45 51 53 54 53 52 53 53 51 44 37 34 28 26 24 23 24 23 22 20 21 23 23 22 22 23 22 20
31 29 24 17 15 14 21 22 18 20 23 23 25 28 35 36 37 33 34 40 43 47 51 51 52 51 51 52 49 43 40 37 33 28 26 25 24 23 22 20 19 18 18 19 20 22 22 22 21
32 31 30 27 24 23 19 18 20 20 21 23 25 32 35 37 40 38 35 39 43 47 50 50 50 50 50 48 41 33 32 30 31 29 26 25 23 19 19 18 18 18 18 18 19 17 18 19 20
33 31 28 30 20 16 14 14 15 17 19 23 27 30 35 38 39 39 37 39 44 48 50 50 49 48 48 44 35 31 30 29 28 24 23 22 19 17 18 17 17 17 17 17 18 18 18 17 19
32 32 34 29 28 18 13 11 14 16 17 21 28 33 38 39 39 41 39 43 47 49 50 49 48 46 43 38 33 30 28 24 23 20 21 19 17 17 16 16 15 16 15 15 15 15 17 18 20
26 27 28 27 24 28 26 22 19 23 28 32 30 33 37 41 41 43 44 46 48 49 49 47 45 42 39 33 29 24 22 21 21 19 17 16 15 15 15 14 14 14 14 13 12 14 17 19 20

GFSSGP_sfc_dewp_027.txt.gz
Dewpoint
60 47 44 42 34 33 29 27 24 27 27 30 33 32 34 36 37 39 57 59 58 63 68 70 73 73 71 69 67 67 66 65 64 66 68 65 63 63 63 61 61 60 60 62 63 63 63 63 63
52 43 43 38 32 28 27 26 24 23 30 33 31 31 33 35 42 53 56 59 59 64 66 68 73 73 71 69 68 67 65 65 65 67 65 62 60 61 61 62 62 60 60 60 61 61 61 61 61
51 42 38 35 31 27 26 27 26 28 31 31 32 35 36 40 47 51 57 59 59 63 65 68 73 72 71 69 67 66 65 65 67 66 64 62 60 61 62 62 63 61 60 61 61 61 62 62 62
45 41 35 32 29 28 27 27 27 29 29 32 34 33 39 47 49 53 58 58 59 62 64 71 72 72 71 69 67 66 64 64 68 66 65 62 61 60 60 62 64 61 61 62 62 62 62 62 62
45 37 33 29 27 26 27 29 29 29 30 31 32 32 38 49 52 56 58 58 59 61 66 69 73 72 71 69 68 66 64 65 65 64 62 62 62 62 63 64 64 62 61 62 62 63 63 63 63
39 35 29 26 26 27 26 30 30 29 29 30 31 33 38 50 52 57 59 57 58 61 64 68 72 72 71 70 68 66 65 64 64 64 63 65 64 65 65 66 65 63 62 62 63 64 64 64 64
39 35 28 27 24 24 25 30 30 29 29 28 30 31 38 46 56 58 58 58 58 61 62 66 68 70 71 70 70 68 67 66 66 65 64 66 65 68 67 66 65 64 63 64 65 65 65 66 66
39 35 30 28 23 24 25 29 31 30 29 32 32 30 34 45 57 58 58 58 58 61 61 63 67 69 68 67 69 69 68 67 67 67 67 66 64 68 68 67 66 65 65 65 66 66 65 63 59
45 36 30 30 25 26 26 29 31 33 32 32 33 33 41 45 56 57 57 59 59 60 61 61 64 66 66 66 66 68 68 67 66 65 66 64 60 61 64 65 65 65 65 64 63 60 59 58 57
42 35 31 27 26 28 29 32 31 33 33 30 35 37 41 46 51 55 55 56 58 59 60 61 61 63 65 65 66 64 63 62 58 57 61 59 58 58 58 61 63 64 64 60 56 52 52 55 50
39 35 30 29 36 36 34 32 35 34 34 31 31 35 39 42 47 50 53 53 56 58 59 61 62 62 65 64 65 62 62 61 58 56 56 55 55 57 57 60 59 61 61 55 51 50 47 46 45
36 35 34 35 37 40 38 37 35 35 36 33 34 37 39 41 41 43 46 50 51 55 58 61 62 63 64 65 64 61 60 60 59 59 57 55 54 55 55 56 61 57 53 49 48 47 43 40 36
36 37 34 36 38 39 40 38 36 37 38 37 37 38 41 41 41 42 43 44 49 52 57 60 62 64 64 64 63 62 59 59 60 60 57 53 55 56 56 58 54 51 47 46 46 43 39 32 28
37 37 36 37 37 38 37 35 35 35 36 36 36 37 37 38 40 41 43 43 44 50 53 57 60 64 64 64 63 61 60 60 62 60 58 56 56 57 57 54 49 43 42 39 38 34 30 28 27
40 38 38 37 37 37 37 35 35 35 34 33 32 32 34 35 35 37 40 42 43 43 48 52 58 61 63 63 63 62 61 60 63 60 58 58 59 58 54 48 42 38 36 35 34 30 30 30 27
37 36 34 32 34 34 35 30 28 31 32 33 33 33 33 33 32 35 37 40 43 44 43 44 52 58 62 62 63 62 61 60 63 60 59 59 59 54 50 46 40 35 38 34 32 31 31 29 29
35 30 30 30 34 33 35 33 32 35 37 32 33 34 34 34 34 33 35 37 39 42 44 45 46 50 56 60 61 61 61 61 62 61 59 60 56 51 47 42 37 33 34 33 29 30 28 28 30
29 29 29 28 28 32 32 31 31 32 33 35 35 35 35 35 36 38 38 38 37 38 42 44 46 46 49 56 60 61 61 62 63 61 61 58 50 44 41 37 36 34 34 32 30 28 28 28 26
29 29 28 28 29 29 29 28 29 29 29 30 30 31 32 33 34 37 38 40 40 39 41 42 44 47 48 54 58 60 61 64 64 61 56 51 46 40 38 37 35 34 34 31 28 28 29 29 27
30 30 28 28 28 29 28 27 27 27 28 28 28 28 29 30 30 31 34 37 40 40 42 43 44 47 50 56 60 62 63 61 61 56 51 44 41 37 35 36 34 33 33 30 29 29 30 28 27
30 29 28 27 28 28 27 25 22 22 23 24 27 28 28 28 27 27 27 32 38 40 43 44 45 49 54 57 61 61 54 50 48 48 45 41 37 34 35 36 33 33 35 33 32 32 29 29 29
28 28 28 28 27 24 27 21 22 19 20 21 22 23 23 26 26 27 28 29 32 39 47 47 47 51 56 59 59 58 51 48 47 45 41 36 32 33 33 34 33 32 32 31 30 26 27 27 27
29 30 29 29 27 28 26 26 22 21 21 21 23 23 24 26 26 26 27 32 33 37 47 50 50 53 57 58 59 58 51 53 46 41 36 31 31 32 33 32 31 30 31 28 26 27 25 24 20
32 29 29 29 28 25 22 20 17 15 14 16 20 22 23 21 23 25 30 31 33 39 46 52 51 55 57 58 57 54 54 49 40 37 34 31 33 32 31 31 30 29 28 28 28 27 26 23 22
31 30 26 25 26 21 17 20 19 17 18 20 20 21 22 24 30 32 29 31 34 39 42 50 52 55 56 58 54 53 55 46 41 36 34 33 29 30 31 30 26 27 29 27 26 26 26 24 23
31 29 24 17 16 16 18 19 18 17 18 20 21 22 23 24 34 39 40 36 35 41 43 49 52 54 54 54 54 55 48 45 40 36 32 33 31 29 32 27 25 23 23 23 23 25 24 23 24
30 30 29 26 22 21 17 17 17 17 17 17 18 22 25 30 36 38 40 39 34 39 44 49 52 53 53 54 54 52 46 40 38 33 29 28 28 28 25 24 22 21 21 20 21 19 20 20 22
30 31 28 30 20 16 15 14 15 15 15 16 17 20 25 32 36 39 41 38 35 39 45 49 50 51 52 53 52 46 40 35 32 31 30 29 26 24 23 22 21 20 19 19 19 19 19 18 20
30 30 30 26 30 20 17 16 16 17 19 18 21 27 30 35 37 38 41 40 40 40 46 48 50 50 51 49 43 39 34 33 30 28 25 25 22 22 21 20 19 18 17 16 16 16 17 18 20
26 28 27 28 23 27 27 23 22 20 21 22 23 28 31 32 35 38 42 44 45 46 48 49 49 49 49 41 36 33 32 28 29 23 22 23 20 20 18 17 16 15 15 14 13 14 16 18 20

GFSSGP_sfc_dewp_030.txt.gz
Dewpoint
63 54 48 48 41 38 33 31 28 31 30 28 32 31 31 34 43 48 59 58 66 68 70 71 73 72 71 68 67 67 66 66 66 69 69 67 65 64 63 62 61 60 62 64 64 63 63 63 63
59 51 48 45 37 32 30 31 28 27 29 32 32 31 30 35 52 54 58 58 64 68 69 70 73 72 70 68 67 66 65 65 67 67 64 63 62 62 63 62 61 61 61 62 63 63 63 63 63
57 49 43 41 35 31 29 29 28 27 30 31 30 30 31 44 50 54 58 58 64 67 67 71 73 72 70 68 68 66 66 67 68 68 65 62 62 63 63 64 61 61 61 62 62 62 62 62 63
50 46 40 32 30 31 30 28 29 29 30 32 32 32 40 48 50 56 58 58 61 65 68 72 73 72 71 69 67 66 65 68 67 67 66 64 62 62 63 65 62 62 63 63 64 64 64 64 64
48 45 36 31 29 30 29 28 29 31 29 31 33 32 44 51 55 57 57 57 61 67 69 71 72 72 71 68 67 66 64 68 65 64 63 62 63 63 63 65 64 62 63 63 64 64 65 64 64
44 41 33 30 30 28 27 26 29 30 29 29 30 32 46 51 55 57 57 57 61 68 68 69 71 72 71 69 68 67 65 67 67 66 65 65 65 64 65 66 64 63 63 64 65 65 65 65 65
41 39 33 29 28 26 25 26 29 29 29 28 30 31 45 52 57 58 57 56 60 66 68 68 69 70 70 70 69 68 67 67 67 67 67 65 68 68 67 66 65 64 65 65 66 66 65 66 64
41 40 36 32 27 26 27 26 30 30 29 32 32 30 41 54 56 58 57 57 58 62 66 67 68 69 68 68 69 68 67 67 68 67 68 65 67 68 68 67 66 65 66 66 66 66 65 62 59
44 39 34 33 30 29 27 26 31 33 31 31 33 32 42 54 56 57 57 58 58 61 61 66 68 68 67 67 67 68 68 66 66 66 66 64 62 65 65 66 66 67 65 65 63 62 61 60 60
42 40 38 34 30 30 28 28 31 32 31 32 33 39 44 46 55 56 56 57 57 59 60 63 67 67 66 65 66 65 65 64 62 62 64 62 60 61 62 63 65 66 65 62 59 55 57 58 52
40 37 35 32 30 37 37 36 33 34 34 34 30 35 40 45 48 53 54 56 57 58 59 60 63 64 65 64 65 64 63 62 58 57 61 59 58 59 60 60 62 62 60 55 53 51 48 43 42
36 36 36 36 35 38 38 37 36 35 35 37 36 36 40 41 43 47 49 52 55 58 59 61 61 63 65 64 65 63 62 61 58 56 57 56 57 57 57 59 60 60 58 49 48 46 42 39 31
36 36 35 35 36 37 39 39 39 38 37 37 37 37 38 41 41 41 43 46 50 55 58 60 61 63 64 64 64 63 60 60 60 59 57 56 55 55 56 58 54 50 48 48 46 41 36 29 27
35 36 36 36 35 36 36 37 38 36 36 36 37 37 37 38 41 41 42 43 43 49 56 59 61 63 64 64 63 63 60 60 60 60 59 55 56 56 58 52 49 44 42 40 37 30 30 29 28
38 38 38 37 37 36 37 35 35 36 36 33 33 34 35 36 37 38 40 41 43 43 52 57 60 63 63 64 64 62 62 60 62 60 58 56 58 57 54 48 44 41 39 37 34 31 32 31 28
38 38 35 34 36 36 36 32 34 34 35 35 34 33 32 33 36 35 36 38 40 44 45 52 58 61 63 63 63 62 61 61 63 62 58 57 59 54 49 45 41 37 36 36 34 32 32 30 29
35 32 32 32 34 33 34 33 35 35 34 35 34 33 33 33 33 33 33 35 38 42 44 46 55 59 61 62 63 62 61 61 62 62 58 58 56 52 48 43 38 34 36 35 31 30 30 28 29
31 32 31 30 32 32 32 31 32 32 32 32 36 35 35 35 34 34 34 34 36 38 42 45 47 53 59 62 62 62 61 61 62 60 60 58 53 49 43 38 36 37 36 33 31 29 29 28 27
34 30 27 28 29 29 28 28 28 29 29 29 30 32 33 33 35 36 37 38 39 39 38 41 46 46 49 54 59 60 60 62 63 62 60 53 46 41 38 39 36 36 35 33 29 29 29 29 28
31 29 28 29 28 27 27 27 27 28 28 28 28 28 29 30 32 33 34 38 39 40 40 39 43 46 46 48 56 60 63 63 62 60 55 49 43 39 36 36 36 35 32 29 29 30 30 29 27
30 29 29 27 28 28 26 25 25 25 26 27 28 28 28 28 29 30 31 32 35 39 40 41 42 44 47 50 58 59 57 53 52 52 49 46 45 38 36 36 35 34 35 33 31 29 28 29 27
29 30 29 29 28 24 28 23 23 23 21 22 22 23 28 28 29 29 29 29 30 33 40 42 44 44 49 55 59 58 58 55 51 49 47 44 37 35 36 35 34 35 35 32 30 29 27 27 27
29 32 30 30 28 27 26 25 24 21 20 20 21 23 25 25 26 27 29 30 31 33 40 43 44 46 50 54 59 59 55 51 46 43 38 36 37 34 33 33 33 32 34 27 26 26 25 24 24
33 30 30 30 29 24 25 24 20 15 17 18 20 22 24 24 24 28 31 31 33 34 37 45 46 47 54 57 60 56 53 47 44 40 35 36 42 40 33 32 32 31 30 29 28 26 24 23 23
33 31 23 22 23 19 20 23 19 17 18 21 20 20 22 23 24 31 37 40 36 34 38 41 49 49 55 58 59 54 52 46 42 39 35 34 37 35 32 30 29 29 30 29 28 27 25 24 24
31 29 24 17 19 20 21 21 17 20 20 19 20 21 23 23 27 37 39 41 42 38 39 39 49 50 56 57 56 53 52 44 41 38 35 35 37 37 32 29 29 29 26 26 26 27 26 24 24
30 28 29 25 22 19 18 16 17 19 19 19 19 19 23 24 30 36 39 41 41 40 39 40 50 51 55 57 53 52 46 42 38 38 38 38 36 33 30 27 25 24 23 23 23 23 22 20 22
29 30 28 28 14 15 15 15 17 18 18 19 18 20 23 26 36 37 39 41 42 39 41 43 49 52 54 54 54 46 43 39 37 36 35 33 29 27 25 25 24 22 21 20 21 20 19 18 21
29 29 29 28 28 19 16 16 21 21 21 22 21 26 31 34 36 36 38 42 43 42 42 46 49 52 53 54 47 40 38 34 33 33 30 29 29 24 23 22 21 20 19 18 18 17 18 18 20
29 28 27 22 19 24 23 21 23 23 23 22 22 25 30 34 34 36 38 42 44 46 45 47 49 51 52 42 36 34 33 32 31 29 25 28 30 21 21 20 19 18 17 15 14 15 15 18 20

GFSSGP_sfc_dewp_033.txt.gz
Dewpoint
63 59 53 44 37 37 33 34 34 26 26 32 32 30 30 35 41 44 59 67 69 71 71 71 72 72 70 69 68 67 67 68 69 69 68 67 65 64 62 61 61 64 65 65 65 65 65 64 63
61 57 46 41 36 32 32 33 32 26 31 31 31 30 30 48 53 56 59 68 69 70 70 70 72 72 70 68 68 67 66 66 69 69 66 65 64 63 62 61 61 62 64 64 63 63 64 64 63
60 55 41 39 34 32 32 31 29 30 30 30 30 32 33 48 54 56 59 68 69 70 70 71 72 71 69 68 67 66 66 69 69 67 65 64 63 64 63 62 61 62 62 62 62 63 63 63 63
52 45 40 32 32 33 31 30 29 30 29 30 32 32 45 52 54 57 59 68 69 68 70 72 72 71 70 70 68 68 68 69 68 67 66 65 65 65 65 63 63 63 63 64 64 64 64 64 64
49 44 36 33 30 30 31 31 28 30 29 31 33 33 46 54 57 57 59 67 67 68 70 71 72 72 71 70 69 68 69 69 67 66 64 64 63 64 66 64 63 63 64 65 65 65 65 65 65
43 41 34 33 33 31 29 29 27 29 30 30 31 32 48 54 56 56 58 66 68 69 70 70 71 71 71 69 68 68 69 68 67 67 65 65 65 65 66 65 63 64 65 65 66 66 65 66 66
41 37 34 33 30 30 30 30 28 29 29 29 30 31 51 56 56 57 57 67 68 68 69 69 70 70 70 69 68 68 69 68 67 68 67 66 67 68 67 66 64 65 65 66 66 66 66 66 64
40 40 37 34 31 30 29 28 30 29 29 32 32 34 50 55 58 57 56 67 68 68 68 69 69 69 68 67 68 68 68 68 68 68 67 66 68 68 68 67 66 66 66 67 67 66 65 62 59
42 37 35 36 35 33 31 30 30 33 30 32 33 40 49 56 57 56 57 58 65 68 68 68 69 68 68 67 66 67 68 67 67 67 65 65 66 66 66 65 67 67 66 66 65 65 63 60 60
40 39 38 37 35 32 32 36 32 31 31 32 33 43 47 55 56 56 57 56 60 65 66 67 68 68 67 67 66 66 65 65 65 65 64 61 63 64 64 65 66 67 67 64 62 59 60 58 52
39 39 40 40 37 36 38 37 37 33 33 31 31 38 44 49 54 56 57 57 58 60 65 67 68 67 66 66 66 65 64 63 62 62 63 62 60 63 62 62 64 63 61 58 56 51 47 41 39
37 38 38 39 38 37 37 40 39 38 35 38 37 37 38 42 50 54 55 56 57 59 59 67 67 67 65 65 64 64 63 62 59 59 61 59 58 60 59 60 61 61 58 52 49 47 41 32 28
36 37 37 37 37 36 38 38 38 39 39 39 38 38 38 39 42 45 49 52 57 58 59 60 65 65 64 65 64 63 63 62 59 57 59 57 57 57 58 59 60 55 51 48 46 39 31 27 26
35 36 38 38 38 37 36 36 38 38 38 36 35 35 37 37 39 41 42 42 47 56 59 60 62 64 64 64 63 63 62 62 60 58 57 56 56 55 57 53 50 47 44 40 34 30 29 29 27
39 37 38 38 38 37 37 35 35 37 37 36 35 34 34 36 37 38 41 41 43 44 58 60 61 64 64 64 63 62 62 61 60 59 57 55 55 57 52 49 46 42 40 35 31 32 30 30 28
37 38 35 37 37 37 36 32 36 37 36 36 36 36 35 34 35 36 37 38 39 43 52 59 61 63 64 64 64 63 63 61 63 59 58 55 58 53 49 46 43 39 38 35 33 33 31 30 28
36 32 34 35 35 36 35 33 35 36 35 34 35 35 35 35 34 34 36 36 36 39 43 56 59 62 63 64 64 63 62 60 63 60 57 58 54 50 47 44 40 36 36 34 31 30 29 27 27
33 33 32 32 32 33 33 33 34 34 33 32 32 34 35 34 34 34 34 35 35 35 41 45 58 61 62 63 63 64 63 61 61 60 57 58 53 49 45 41 36 36 35 33 31 28 29 27 27
35 34 30 29 30 28 28 28 28 29 29 29 29 30 31 35 36 36 36 35 34 35 37 42 50 59 62 62 62 63 61 61 61 61 58 56 52 46 42 39 36 37 33 30 28 30 28 27 27
35 31 29 29 30 28 27 27 28 28 28 28 29 29 30 31 33 33 34 35 38 39 39 39 43 52 60 61 62 63 62 62 62 61 56 51 47 43 41 38 36 35 32 29 28 29 30 28 26
30 30 29 28 29 29 27 25 25 26 27 28 28 28 29 29 29 30 32 33 34 37 39 40 40 46 50 56 60 60 58 57 56 55 51 47 46 44 39 36 36 33 32 31 30 30 30 29 26
29 30 30 30 27 24 27 22 26 24 23 23 26 27 28 28 28 29 29 30 30 33 39 40 41 43 46 48 59 60 60 59 56 54 51 47 43 39 37 36 33 33 34 32 30 29 29 29 26
30 32 30 30 27 25 25 22 24 26 21 22 21 21 26 29 29 29 30 30 30 31 32 39 41 43 46 47 57 60 60 56 52 49 47 47 45 40 39 37 35 33 33 30 28 26 25 26 26
32 30 29 29 27 16 24 23 21 19 18 18 20 20 23 25 26 27 30 34 33 33 33 38 42 42 45 49 58 58 57 50 48 47 44 43 44 42 39 38 35 33 30 28 28 26 23 23 23
32 26 16 15 21 17 23 25 22 20 19 20 20 20 21 23 24 34 38 39 41 41 40 37 41 44 47 53 58 58 53 50 48 45 42 41 40 38 36 36 34 33 31 30 29 26 24 24 24
31 27 18 14 17 20 22 21 21 23 23 22 20 21 21 22 28 36 39 40 41 41 42 40 38 44 50 58 58 55 50 49 47 44 41 41 39 36 35 34 34 33 29 28 27 27 27 24 25
31 25 28 23 22 15 20 18 18 18 18 19 20 20 21 22 31 37 39 40 41 42 42 41 39 47 54 58 55 53 48 48 46 42 41 41 39 36 34 34 32 31 29 27 26 24 21 22 24
28 30 24 21 10 14 17 17 15 18 20 21 21 26 33 33 36 37 39 40 41 43 44 42 40 47 55 56 54 48 47 44 41 39 38 37 34 32 31 31 31 30 25 24 23 22 21 20 22
29 28 28 26 23 17 18 18 19 20 23 22 22 24 28 34 36 36 38 41 42 43 45 46 46 51 54 54 49 45 41 41 39 38 38 34 32 31 30 30 31 27 21 20 20 21 19 18 20
29 28 27 20 15 22 19 20 22 23 24 25 26 30 36 31 34 36 38 41 42 43 47 49 47 53 52 45 43 40 39 37 37 35 34 31 30 29 30 26 23 20 19 18 16 16 17 18 20

GFSSGP_sfc_dewp_036.txt.gz
Dewpoint
62 58 53 43 35 36 33 35 36 33 27 31 32 30 30 39 39 40 60 67 70 71 71 71 72 72 71 70 70 71 71 71 70 69 67 66 65 63 61 62 65 65 66 66 68 68 67 65 64
61 55 45 41 35 31 31 34 32 33 30 31 30 29 32 48 53 62 64 69 70 70 70 70 72 72 70 68 67 68 69 69 69 69 67 66 64 62 61 61 64 64 64 65 65 65 64 64 63
58 54 41 38 35 32 32 33 30 29 30 30 30 31 41 48 55 61 65 69 70 70 70 70 72 71 69 68 68 67 68 69 69 68 66 65 63 62 61 62 62 64 63 63 63 63 63 63 64
51 45 41 34 34 34 33 31 32 30 28 31 32 32 47 53 56 59 68 69 69 69 70 71 72 71 70 69 68 66 68 69 67 67 66 64 64 63 62 62 62 63 63 63 63 63 64 64 63
49 42 35 33 32 32 32 33 33 30 29 29 32 33 47 55 57 67 68 69 69 69 70 71 72 71 70 68 69 69 70 67 65 64 65 65 65 65 63 63 64 64 64 64 65 65 65 65 65
44 41 35 31 31 32 31 31 29 28 29 29 32 43 49 55 57 65 68 68 68 69 70 70 71 71 71 69 70 71 71 69 67 67 66 65 65 66 65 63 64 64 65 65 66 65 65 66 66
42 37 36 34 33 33 33 32 28 28 29 28 29 39 51 55 56 59 67 67 68 69 69 69 70 69 70 69 69 70 70 69 67 67 67 67 67 67 67 64 64 65 65 66 66 66 66 65 63
40 39 35 33 31 31 32 30 28 28 28 31 32 49 50 54 57 61 67 67 68 68 69 69 69 69 68 67 68 69 69 68 68 68 68 67 67 67 68 67 66 65 66 66 66 66 65 62 59
41 37 35 35 33 32 34 32 33 31 30 32 34 48 52 56 57 58 66 66 67 67 68 69 69 68 67 66 66 68 69 68 68 67 65 66 66 67 66 65 66 67 67 67 66 65 62 60 58
39 37 37 37 37 35 34 37 36 31 30 31 41 47 55 56 56 56 64 65 66 66 67 68 68 67 67 66 65 65 65 65 65 65 62 64 65 65 64 64 66 68 67 66 64 63 60 56 51
39 38 38 40 40 39 37 37 39 35 31 33 36 46 51 55 56 56 58 63 66 67 67 68 68 67 67 65 65 64 64 64 64 64 62 61 64 64 64 63 64 64 63 60 56 51 47 41 37
37 38 39 40 40 39 36 38 39 38 35 40 40 39 39 45 46 56 56 57 60 65 66 67 67 67 66 66 65 64 63 62 62 62 63 61 60 62 61 61 62 61 58 53 50 48 40 29 29
38 37 38 38 39 37 37 37 38 39 40 40 38 38 37 38 44 50 55 57 58 61 65 67 67 67 66 65 64 64 63 62 61 60 61 60 59 61 60 60 60 60 57 49 47 40 29 27 26
37 37 37 38 38 38 36 36 36 38 39 38 37 37 36 37 38 40 42 47 53 58 60 66 67 67 66 65 64 63 63 62 60 58 59 59 58 60 58 58 59 55 51 47 39 30 29 28 27
39 36 38 37 38 38 37 35 35 37 37 37 36 37 37 36 37 37 38 41 42 51 58 62 66 67 65 65 63 63 63 62 61 58 57 58 57 57 57 56 53 48 42 34 30 30 30 29 27
37 37 34 35 36 36 36 31 35 37 36 36 36 37 37 37 36 36 37 38 39 42 50 59 63 65 65 64 64 63 63 62 62 59 57 56 56 56 54 52 49 44 39 34 34 32 30 29 27
35 31 34 35 37 36 35 33 35 35 35 35 35 35 35 36 37 35 35 36 36 38 42 56 60 64 64 64 64 63 62 62 62 61 58 56 56 53 51 49 45 39 37 34 32 30 29 26 26
32 32 32 32 33 33 33 34 35 35 35 35 34 33 34 36 36 37 36 35 36 36 38 50 59 62 64 64 64 64 63 62 62 60 58 56 55 51 50 46 40 37 36 33 30 28 28 27 26
34 34 32 31 31 28 27 28 28 29 29 29 29 30 32 32 34 36 36 35 35 35 36 41 55 60 64 64 64 64 62 61 62 60 58 57 53 50 48 44 37 37 33 32 28 29 26 26 26
37 31 30 30 31 29 28 27 28 28 28 29 29 29 29 30 30 33 35 36 36 36 35 36 44 57 62 64 63 64 63 63 62 62 58 56 54 52 48 41 37 35 32 30 29 30 29 27 25
31 29 29 29 29 28 27 21 23 26 27 27 27 28 29 29 29 30 31 33 34 35 37 39 39 49 59 62 63 59 59 58 57 58 58 56 54 51 50 42 38 34 33 31 29 30 29 28 25
29 30 30 29 27 24 27 22 25 25 24 24 23 27 28 29 29 30 30 30 31 33 35 38 40 42 53 60 61 61 60 59 60 59 56 53 52 52 46 41 41 35 34 31 31 31 31 29 25
30 31 29 29 27 24 25 22 23 24 23 21 22 22 22 26 29 29 30 30 31 31 31 33 37 42 44 52 59 61 60 60 55 52 52 51 51 49 46 42 39 34 35 31 30 28 29 28 28
32 29 28 29 26 16 22 23 19 19 19 19 18 19 21 22 25 29 29 31 33 34 34 34 35 39 43 46 54 60 60 54 52 50 50 48 47 47 44 41 40 37 33 32 31 29 27 26 24
29 25 17 14 19 17 23 24 23 23 22 20 21 21 21 23 25 27 35 39 40 42 41 41 38 39 41 44 51 57 58 55 53 51 50 47 44 43 43 43 40 38 33 33 32 29 26 24 24
29 25 17 11 15 19 23 22 19 24 24 20 20 21 22 22 23 31 37 40 40 41 41 42 41 40 40 44 53 56 57 55 54 51 50 48 46 43 43 42 41 36 33 32 32 31 28 26 26
30 25 27 22 20 15 20 19 16 19 19 21 21 31 33 33 29 36 39 40 40 40 42 43 42 42 41 44 55 56 55 52 50 48 46 45 44 43 41 40 38 35 31 30 29 29 26 25 25
29 30 23 18 7 11 16 17 15 16 21 22 23 25 28 31 33 36 38 39 39 40 43 45 46 44 41 51 55 54 51 50 47 44 44 43 42 39 40 38 34 31 30 30 29 27 23 23 24
29 27 27 25 20 15 17 18 19 19 22 23 25 26 29 34 35 35 35 39 40 41 44 47 49 47 49 53 51 48 47 45 43 43 43 43 41 36 34 31 30 29 27 26 29 29 24 20 22
29 28 26 17 12 20 18 21 23 23 25 25 27 30 33 37 39 39 39 38 41 41 43 48 49 48 51 51 47 45 44 43 43 42 41 40 36 33 32 29 28 30 32 34 33 28 19 20 20

GFSSGP_sfc_dewp_039.txt.gz
Dewpoint
61 58 51 42 35 36 33 33 38 34 32 30 32 30 32 36 38 37 60 67 69 71 71 71 73 72 72 72 72 72 72 71 69 69 67 65 64 61 62 65 66 67 69 69 69 69 67 66 64
61 53 44 40 33 30 29 34 32 32 33 32 31 30 40 47 54 62 64 68 70 70 70 70 72 72 72 71 71 71 71 71 69 68 67 66 64 61 62 64 63 65 66 66 66 65 64 63 62
56 50 40 37 35 30 28 32 31 31 31 31 29 34 40 47 55 62 64 69 70 70 70 70 72 71 70 70 70 70 70 70 69 68 67 65 62 61 62 63 65 64 64 64 64 64 64 63 64
49 46 40 35 34 34 33 32 33 32 32 30 31 41 50 55 57 61 69 69 69 69 69 71 72 71 70 69 68 68 69 69 69 68 66 64 62 62 62 62 63 63 63 63 63 62 63 64 63
47 42 37 34 33 34 33 33 32 31 31 29 31 35 49 55 60 68 69 69 69 69 69 70 72 70 69 68 68 69 69 69 67 66 65 64 64 62 63 63 63 63 63 63 64 64 65 65 65
44 41 35 32 31 33 32 32 30 29 29 29 31 44 49 56 66 67 69 69 69 69 70 70 70 70 70 68 68 70 70 68 66 67 65 65 65 64 63 63 64 64 64 65 65 65 65 65 65
42 39 36 33 30 31 32 33 31 31 29 28 31 46 50 54 62 68 68 68 69 69 69 69 69 69 70 69 70 70 70 68 67 67 68 67 67 67 64 64 64 64 65 65 66 66 66 65 62
41 39 35 34 31 29 33 30 30 28 29 30 41 44 49 54 60 67 67 67 68 69 69 69 68 69 68 68 69 70 69 68 67 67 67 67 67 68 67 66 66 65 66 66 66 66 64 61 57
41 37 35 33 32 32 34 33 35 34 30 32 34 48 50 56 65 66 66 67 68 68 68 69 68 68 67 66 66 69 69 68 68 68 66 66 65 66 66 65 66 67 67 67 67 65 62 59 59
39 36 36 37 36 35 35 37 37 35 32 30 40 51 56 57 64 65 65 65 65 66 67 67 68 67 66 66 65 65 66 66 66 65 63 64 64 65 65 64 66 68 68 67 66 64 59 54 41
40 37 37 39 40 40 38 37 39 37 34 33 34 41 47 56 57 64 64 65 65 65 67 66 68 67 66 65 64 64 64 64 64 63 62 63 64 64 63 63 64 64 64 62 58 53 47 40 34
38 39 40 40 40 39 37 37 38 38 37 40 40 39 38 48 52 56 63 65 65 66 66 66 68 67 66 65 64 64 64 63 62 63 61 61 62 62 62 62 62 62 60 57 50 46 36 30 28
38 38 39 39 39 38 38 36 37 38 39 40 39 38 37 37 39 48 56 59 64 66 66 67 68 67 66 65 64 63 63 63 63 62 62 61 61 62 61 61 61 60 57 52 49 40 29 26 26
39 38 38 38 37 38 36 36 36 37 39 39 38 38 37 37 37 38 47 55 59 64 66 67 67 67 66 65 64 63 63 62 62 62 62 61 60 61 61 59 59 59 56 49 45 33 28 27 26
38 36 37 38 38 37 38 35 36 37 37 36 36 36 37 36 37 36 37 42 50 57 62 66 67 67 66 66 65 63 63 62 61 60 60 61 59 59 60 59 58 57 52 45 32 30 29 28 27
37 36 33 35 37 37 35 31 33 37 36 36 36 36 36 37 37 37 36 37 40 43 56 62 66 66 66 65 65 64 63 62 61 59 58 59 59 58 58 58 56 51 41 35 32 31 30 29 27
35 31 33 34 36 35 35 33 35 35 34 34 34 34 35 36 36 37 37 36 37 39 42 56 63 66 66 65 65 64 63 62 63 60 58 57 57 57 56 55 54 45 38 34 34 31 29 27 26
33 31 32 32 32 34 34 34 35 36 36 35 35 35 35 35 35 36 37 37 37 36 38 44 59 63 66 65 65 64 63 63 63 62 59 57 56 56 54 52 48 42 37 34 32 29 28 27 26
33 33 32 33 32 29 28 28 28 29 29 29 30 31 31 32 33 34 36 37 36 36 36 39 54 60 64 64 64 63 62 63 62 62 61 58 56 55 53 50 45 40 36 33 29 28 26 26 26
38 34 32 31 31 29 28 27 28 28 28 29 29 29 29 30 31 31 33 35 36 36 35 35 43 59 61 64 63 64 63 63 62 62 61 58 56 56 53 48 44 39 35 31 29 30 29 27 26
38 32 30 29 29 28 27 23 23 24 26 27 28 29 29 29 29 29 30 32 34 35 36 37 37 48 60 63 64 60 60 58 58 60 60 58 57 55 53 50 44 38 36 32 30 31 30 28 25
30 30 30 29 27 25 27 22 25 24 25 25 25 24 28 29 29 29 30 31 31 33 35 36 38 40 50 62 63 62 61 60 61 61 60 56 56 54 54 50 45 41 37 34 35 31 32 28 25
31 31 29 29 26 23 24 22 23 22 20 20 21 22 23 22 23 27 30 31 31 32 32 33 35 39 42 55 62 62 61 61 60 60 57 54 54 54 54 50 47 43 43 43 39 33 31 30 27
32 28 26 28 25 16 21 21 19 17 18 19 20 22 22 22 23 25 27 30 31 33 32 32 32 34 39 43 55 61 61 57 55 53 56 52 51 51 50 48 47 46 44 43 40 33 32 30 29
28 24 16 12 16 15 24 23 21 22 23 23 24 22 26 28 29 25 33 39 40 40 40 40 39 39 39 41 45 56 60 56 56 55 56 53 50 49 48 47 46 45 43 40 38 36 35 31 28
28 25 17 8 13 17 23 22 19 23 24 21 29 30 32 33 34 36 39 40 40 40 40 41 41 40 40 41 43 48 56 58 57 56 56 53 52 52 49 46 45 43 39 38 38 37 37 33 27
30 23 26 21 18 14 20 19 14 21 22 23 25 26 27 29 32 34 36 38 39 39 39 42 44 43 43 43 42 50 54 57 55 53 53 53 51 48 45 45 43 40 39 37 33 33 33 30 30
29 30 22 17 6 10 13 17 14 16 18 23 24 26 27 29 32 35 36 36 37 39 39 42 45 46 46 46 45 50 54 55 54 51 50 48 46 45 45 44 42 38 34 32 31 31 29 28 30
29 27 26 25 20 15 15 14 20 19 23 24 25 28 32 37 40 40 39 38 37 38 40 41 45 47 48 48 49 50 49 48 46 46 45 44 43 42 43 41 39 33 29 28 28 29 31 32 31
29 27 26 15 13 19 20 20 25 24 25 27 29 35 39 41 41 41 41 41 38 38 41 45 47 47 49 49 48 46 44 44 43 43 43 42 42 43 40 35 30 28 30 31 32 34 34 33 32

GFSSGP_sfc_dewp_042.txt.gz
Dewpoint
61 55 48 41 34 35 32 31 37 33 32 30 32 31 32 35 38 37 60 67 69 69 71 72 74 73 73 72 73 72 72 71 70 69 67 65 63 62 64 66 68 69 68 69 69 68 67 66 63
59 52 43 40 31 27 27 34 31 33 33 31 31 32 39 44 56 60 63 67 70 70 71 71 73 73 72 72 72 72 71 70 69 69 67 65 63 61 64 66 66 68 68 68 67 66 64 62 61
55 47 40 37 34 28 26 30 32 31 33 31 29 33 38 46 56 61 62 69 70 70 70 70 73 73 72 72 71 71 71 70 69 68 66 65 62 62 64 63 65 66 66 65 66 65 64 63 64
49 46 40 35 33 34 28 35 32 32 32 30 32 35 48 55 57 62 68 70 69 69 69 71 72 72 72 71 71 70 71 70 69 68 66 63 62 62 63 64 64 64 64 64 63 63 64 64 64
46 41 37 35 34 35 34 34 33 31 31 30 30 30 44 55 62 67 69 69 68 68 69 70 72 71 70 69 69 70 69 69 69 68 66 63 62 62 63 63 63 63 63 63 63 64 64 65 65
43 40 34 33 33 33 33 33 31 30 30 30 29 42 46 57 64 67 68 68 68 68 69 70 71 71 70 69 69 69 70 70 68 67 65 64 63 63 63 63 64 64 64 64 65 66 66 66 66
42 39 35 32 31 30 31 33 31 31 30 28 34 42 48 54 64 67 67 68 68 69 69 69 69 69 70 69 69 69 71 70 68 68 67 67 66 64 64 64 64 65 65 66 66 66 66 64 60
43 39 36 34 31 30 32 32 31 29 30 31 36 38 43 53 67 67 68 68 68 68 69 68 67 68 68 67 69 70 69 68 68 68 67 67 67 66 65 66 66 65 66 66 66 66 64 59 58
42 37 34 32 32 32 34 33 35 35 32 31 33 41 49 60 67 66 66 67 67 68 68 67 67 67 67 66 68 69 69 68 67 67 66 66 65 66 65 64 66 67 67 66 66 65 61 58 58
39 37 36 36 34 32 36 36 37 36 35 32 37 50 57 64 65 64 64 65 66 65 67 68 68 66 66 66 65 66 67 66 65 65 64 64 63 64 65 64 65 67 67 67 67 64 59 51 38
40 36 37 38 38 39 38 38 38 36 34 33 35 37 46 56 63 63 63 64 64 65 66 68 66 67 66 65 64 64 65 64 64 64 63 62 63 63 64 62 63 64 64 62 61 53 45 37 32
38 39 38 39 40 40 37 37 37 37 36 38 40 41 38 45 56 60 63 64 64 65 65 65 66 67 66 65 64 64 65 63 63 63 62 62 62 62 62 62 62 62 61 58 51 45 35 31 27
39 38 39 40 39 39 38 36 36 37 39 39 40 39 38 37 37 41 55 63 65 64 65 65 66 66 66 64 64 63 64 64 64 63 62 61 61 61 61 61 61 60 58 55 49 40 29 27 26
39 39 39 38 38 37 36 36 36 36 38 38 39 38 38 38 37 37 40 55 63 65 65 65 66 66 66 65 64 63 63 63 63 62 62 61 61 62 61 60 60 59 57 52 48 35 28 27 25
38 36 37 37 37 37 38 35 36 37 37 36 36 38 37 37 37 37 37 41 56 63 66 66 66 66 66 66 65 63 63 62 62 62 62 62 60 61 61 60 59 58 56 48 39 30 29 28 26
37 36 33 35 37 37 35 30 34 35 36 36 36 36 36 37 37 37 37 37 39 53 61 66 66 67 66 66 65 64 63 63 62 61 61 61 60 60 60 59 59 57 53 43 34 32 30 28 27
35 30 33 34 36 35 35 33 35 36 35 35 35 35 35 35 36 37 38 37 37 38 44 60 65 66 66 66 66 65 64 63 62 61 59 59 60 59 59 59 58 54 46 38 33 31 30 28 26
32 30 32 32 32 35 34 34 34 33 35 36 36 36 36 36 36 37 37 37 38 37 38 42 58 65 66 66 66 65 64 63 63 62 60 57 59 59 58 57 56 51 42 36 33 30 28 28 27
34 32 31 33 32 30 30 29 29 30 30 29 30 30 30 31 33 35 35 36 37 37 36 37 42 58 65 66 65 64 63 63 63 63 61 58 57 57 57 56 54 50 44 36 32 29 27 27 28
36 33 31 32 31 29 28 27 28 29 29 30 30 30 30 31 31 31 32 34 35 35 36 36 38 46 59 65 65 64 64 64 63 63 62 60 57 57 56 55 53 49 44 35 31 30 29 27 29
38 34 31 31 29 28 27 26 23 24 25 25 26 28 29 30 29 29 29 31 32 34 35 36 36 42 53 61 64 60 60 59 61 61 62 61 58 57 57 54 52 47 46 39 33 31 30 28 27
34 31 31 29 27 25 27 22 25 25 23 23 22 22 25 24 24 26 27 29 30 31 33 35 37 38 48 60 62 62 61 61 61 61 62 61 58 57 56 54 52 48 46 43 39 41 44 36 27
35 31 29 28 26 23 24 22 21 20 18 19 20 23 25 26 25 25 29 30 31 32 32 33 35 38 40 47 61 62 61 61 60 61 60 59 57 57 56 55 53 48 46 45 43 42 38 39 33
31 27 27 28 24 16 20 19 13 15 19 21 23 26 30 32 32 34 37 39 40 40 40 38 33 33 38 42 54 61 61 61 57 56 58 55 55 55 56 54 51 50 46 44 45 43 41 37 34
29 27 18 13 13 14 24 22 17 22 24 24 24 28 30 31 33 34 36 37 39 40 40 40 41 40 39 38 43 57 61 61 58 58 58 55 53 52 53 53 50 48 47 46 46 43 41 40 37
27 24 18 8 12 16 23 21 17 22 23 24 28 27 28 29 31 33 35 36 37 38 39 39 40 42 42 41 41 43 51 59 58 58 58 56 54 54 53 52 51 49 47 46 44 43 42 38 38
29 22 25 20 18 13 18 18 12 20 22 23 25 27 28 30 33 36 37 37 38 38 39 39 40 42 44 45 44 43 45 50 56 56 56 56 54 53 52 51 49 49 46 42 42 41 36 33 34
29 29 21 16 7 7 10 15 10 17 20 25 26 27 28 33 38 40 40 39 40 39 39 39 40 43 46 47 47 46 47 49 53 54 53 52 51 49 48 48 46 45 42 41 39 35 31 30 31
28 27 25 23 19 13 12 8 19 19 23 25 27 28 32 39 41 41 41 42 42 41 39 39 43 45 45 46 48 48 48 49 49 49 47 46 45 46 46 44 42 40 39 37 34 30 30 31 31
29 27 24 15 13 20 18 17 24 23 24 26 28 33 42 42 43 41 42 42 42 43 44 42 40 40 41 42 45 45 44 44 44 43 43 43 42 43 41 39 36 34 31 31 31 31 32 33 32

GFSSGP_sfc_dewp_045.txt.gz
Dewpoint
60 51 48 46 37 36 32 31 34 34 32 30 32 32 33 35 41 40 64 67 66 67 69 70 74 74 74 74 73 73 73 72 70 68 66 65 64 64 65 67 68 66 66 69 69 68 67 65 62
57 50 47 43 34 29 28 33 33 34 33 33 32 33 39 40 54 61 64 67 67 69 69 69 74 74 73 74 73 73 71 70 70 69 66 65 62 63 66 67 69 70 70 69 68 66 64 62 63
53 45 44 40 33 29 27 29 33 32 34 31 30 34 37 44 55 61 64 68 68 69 69 71 74 73 72 72 73 72 72 70 69 68 66 64 62 63 66 66 68 67 67 67 66 65 64 64 65
50 46 41 36 34 34 28 31 34 32 32 31 31 30 44 54 55 61 67 69 69 69 69 72 73 72 72 73 73 72 71 70 69 67 66 64 62 64 63 65 66 65 65 65 65 64 64 65 65
46 42 37 36 35 35 35 34 33 32 32 30 30 30 39 54 64 67 68 69 68 69 69 69 72 72 72 72 72 72 71 70 69 68 66 63 62 63 65 64 64 64 64 64 63 64 65 65 66
44 40 35 33 34 34 34 35 32 31 30 30 29 35 42 61 65 67 67 68 68 68 69 68 71 72 71 71 71 71 71 70 69 68 66 63 63 63 64 64 64 64 64 64 65 66 66 66 65
43 39 35 34 34 33 32 34 31 31 30 29 32 33 42 55 66 66 66 67 67 69 69 68 68 69 70 70 70 70 71 71 70 69 67 66 66 65 64 64 64 64 65 66 66 66 66 63 60
44 40 36 34 32 32 32 33 32 32 29 31 36 34 37 54 66 66 67 66 67 69 68 68 68 68 67 67 69 69 70 70 69 68 67 67 66 65 66 66 66 66 66 67 67 66 62 60 61
42 39 34 34 32 32 33 31 35 35 33 32 35 41 51 58 65 65 65 66 66 68 68 69 68 68 67 66 66 69 69 68 67 67 66 65 64 63 63 64 66 67 67 67 67 64 60 59 63
41 38 36 36 35 33 34 35 37 36 36 34 38 41 60 63 64 63 63 63 64 66 67 68 68 67 67 65 67 68 67 65 63 64 64 65 65 65 64 63 65 67 67 67 67 62 57 49 44
40 36 38 38 36 37 38 38 38 36 35 35 35 39 52 61 63 63 62 63 64 64 65 66 67 67 67 65 66 67 68 66 63 64 64 64 64 65 65 64 64 65 65 65 63 56 50 41 39
38 39 38 39 41 40 39 38 37 38 37 37 41 40 39 58 59 62 62 63 64 64 65 65 67 66 67 66 65 65 67 66 64 64 64 64 64 64 65 64 64 65 65 62 59 51 43 37 33
39 38 39 40 39 39 39 37 37 37 39 39 40 40 39 38 42 54 62 64 64 63 64 65 66 65 66 67 66 64 64 66 65 64 64 63 63 63 64 64 63 64 64 60 55 45 37 33 30
40 39 38 39 38 38 37 37 37 37 38 38 39 39 39 39 39 38 40 55 64 64 64 65 65 66 66 66 65 64 63 64 65 64 64 63 62 63 64 64 63 63 62 59 53 43 35 32 30
39 38 38 38 38 37 38 35 36 37 37 37 37 37 39 39 39 38 39 39 52 63 65 65 66 66 66 66 66 65 65 63 64 64 64 63 62 63 64 63 63 62 61 57 50 37 32 32 29
38 36 34 35 38 37 35 30 34 36 37 37 37 36 37 38 38 38 39 39 39 48 62 66 66 66 66 66 66 66 65 65 63 64 64 63 62 63 63 63 62 61 60 54 47 38 34 32 31
36 32 33 34 38 36 34 33 35 36 36 35 35 35 36 36 36 37 38 39 39 39 44 60 66 66 66 66 66 66 65 65 64 63 62 63 63 61 62 62 62 61 59 52 44 37 34 33 32
32 32 33 31 32 35 35 35 36 34 32 34 34 35 36 36 37 38 38 39 39 39 39 42 58 65 67 67 67 66 65 65 65 63 61 61 62 61 61 61 61 60 58 53 42 38 33 33 32
33 32 32 33 32 31 32 31 31 31 31 31 31 31 31 32 32 36 38 37 38 39 39 39 41 55 65 65 65 65 64 64 64 64 63 60 61 61 61 60 60 59 57 53 45 37 34 32 31
34 33 32 33 31 30 29 28 29 30 31 31 31 31 31 31 31 32 32 33 34 36 37 38 39 41 53 63 64 64 64 64 64 64 63 61 60 60 61 60 59 58 56 51 44 37 34 33 32
36 34 33 32 29 28 28 27 26 26 25 25 24 24 26 27 25 26 30 32 32 32 36 37 39 40 44 56 64 65 64 63 64 63 63 63 61 59 60 60 59 57 55 50 45 39 38 34 32
36 32 31 29 29 26 27 23 24 24 21 22 26 28 29 30 30 32 35 38 37 37 38 37 37 39 41 49 60 63 60 60 61 62 63 63 62 60 59 59 57 56 55 53 47 42 41 41 34
34 32 29 28 27 26 24 23 20 19 19 21 25 28 31 32 33 35 38 40 41 43 43 41 37 36 40 42 54 62 62 61 62 63 63 62 62 60 59 58 57 56 55 55 51 44 41 42 40
31 27 27 27 25 23 21 21 13 16 20 22 25 28 30 31 34 37 39 40 40 43 44 44 43 42 39 40 43 57 62 61 62 62 62 62 61 60 59 58 57 56 54 53 50 49 46 44 43
29 31 24 19 20 21 24 22 18 21 24 24 26 27 29 31 35 38 39 40 41 42 43 42 42 42 43 43 40 43 54 61 61 61 61 61 58 58 58 58 57 56 54 53 51 49 48 45 44
28 27 24 14 13 15 23 21 18 22 23 27 28 27 30 33 36 39 40 40 41 42 42 42 41 41 42 45 45 44 44 49 59 61 60 60 59 58 58 58 58 56 53 51 51 50 49 47 44
29 27 25 21 19 18 16 19 15 20 23 25 27 31 32 34 38 40 42 41 42 42 42 42 41 41 43 47 48 48 47 46 48 54 59 60 59 57 56 56 56 54 52 50 49 49 48 44 42
29 28 24 22 15 11 7 11 7 15 22 25 27 29 31 37 42 43 41 42 43 43 43 42 42 44 45 45 47 49 49 49 49 50 54 57 57 55 54 53 53 51 49 48 47 45 43 41 37
28 27 25 23 20 12 6 4 18 20 24 26 27 29 35 42 41 42 42 43 43 43 42 42 41 41 42 43 45 47 48 48 50 52 52 53 51 51 51 50 48 46 45 44 42 39 36 34 32
29 27 23 20 16 20 19 14 22 20 24 26 27 31 41 41 41 40 41 42 42 39 38 39 40 39 40 40 43 45 46 47 47 47 47 47 48 48 47 45 44 42 41 38 35 33 33 32 33

GFSSGP_sfc_dewp_048.txt.gz
Dewpoint
60 51 48 45 35 33 27 26 31 33 32 31 32 32 32 34 37 38 63 64 62 65 67 70 74 74 75 75 74 73 72 71 70 68 66 65 66 65 65 68 67 66 66 69 69 67 66 63 64
56 47 46 42 32 28 24 28 29 31 32 33 32 32 37 38 51 58 62 65 64 66 68 68 74 75 75 74 73 72 71 71 70 68 66 64 63 64 66 70 70 69 69 69 67 65 63 63 65
51 45 41 37 33 28 24 27 26 31 31 30 30 33 35 41 53 57 63 65 64 66 66 69 74 75 75 74 73 72 71 71 70 69 66 64 62 67 67 69 69 69 68 67 66 64 63 64 65
46 43 41 34 31 31 28 30 31 31 31 31 30 30 41 54 54 60 65 65 65 65 66 72 74 73 73 73 73 72 71 70 69 68 66 63 62 66 65 67 67 67 67 66 65 64 65 65 65
46 42 37 36 32 32 32 31 33 31 30 28 29 29 33 55 62 63 65 65 65 65 65 68 73 73 72 73 73 73 71 70 68 67 66 63 63 64 63 65 65 65 64 64 64 65 65 65 66
42 41 36 34 33 33 33 33 32 30 29 27 28 30 37 59 62 65 66 65 65 65 65 66 70 71 72 72 72 72 71 70 69 68 65 63 63 64 64 64 64 64 64 64 65 65 66 66 65
42 40 36 34 32 33 34 34 33 30 29 26 29 29 40 53 64 66 67 66 66 66 65 64 66 69 70 71 71 72 71 71 70 69 66 66 66 65 64 64 64 64 65 65 66 66 66 63 61
42 40 35 35 33 33 34 33 31 30 26 31 32 29 34 52 64 67 66 66 66 66 64 64 64 65 66 66 70 70 70 70 70 69 68 66 66 66 66 66 66 65 66 66 67 66 62 61 63
44 35 33 35 34 32 32 31 32 33 29 31 33 37 51 55 65 65 66 66 66 66 65 65 63 64 64 62 64 68 69 69 68 67 66 64 59 61 62 64 66 67 67 67 67 63 60 63 63
36 33 30 33 34 32 32 30 32 33 33 32 34 42 57 61 64 63 63 63 65 65 66 65 65 63 63 61 62 60 64 66 64 62 62 60 60 59 58 61 66 67 67 68 66 61 58 55 51
36 31 31 36 34 34 33 33 35 31 33 30 31 39 52 60 62 62 62 63 64 65 66 66 65 64 62 61 61 60 63 63 62 60 59 60 61 62 62 59 61 62 64 62 63 59 51 48 45
35 33 34 37 39 38 35 35 34 33 31 36 39 40 40 56 60 61 61 63 63 64 65 65 66 65 63 62 62 60 62 63 62 61 59 60 61 62 62 60 58 60 61 61 62 57 52 48 44
36 37 36 36 39 39 38 36 34 35 36 38 39 40 39 39 50 59 62 62 63 64 65 65 66 66 65 64 63 61 61 63 62 62 60 59 60 60 61 61 60 58 59 60 60 57 49 44 40
37 37 36 36 38 38 37 37 37 35 36 36 36 36 36 38 39 41 52 59 61 63 64 65 65 66 65 66 65 64 62 61 63 63 62 61 59 60 61 61 61 60 59 59 58 55 48 43 39
39 36 35 37 35 34 37 34 35 34 33 33 31 32 36 37 38 39 40 41 45 53 59 63 65 65 65 65 66 65 65 64 62 62 62 62 60 60 60 60 61 61 60 58 58 54 47 42 37
36 34 32 31 36 37 35 24 31 34 34 33 32 31 33 36 36 36 38 39 40 40 45 54 61 64 65 66 67 67 66 65 64 63 62 62 61 60 60 60 60 61 61 58 57 53 46 42 39
33 23 26 29 36 32 34 25 29 31 33 32 32 32 33 35 36 36 36 37 38 38 39 41 53 60 63 65 66 67 67 66 65 64 64 63 62 61 60 60 60 61 61 59 56 53 49 44 40
27 25 28 25 32 36 34 29 32 34 35 34 32 32 32 33 34 35 37 39 39 39 40 40 42 52 58 63 66 67 67 66 66 64 64 64 63 62 62 60 60 60 61 59 56 52 48 45 42
29 27 24 29 31 31 31 31 32 33 33 33 32 31 32 32 33 34 34 34 34 36 38 40 40 43 50 56 65 66 65 65 65 65 65 64 63 62 62 60 59 60 60 60 57 52 48 43 41
30 27 26 33 31 31 30 30 31 32 32 31 29 29 29 30 28 28 33 35 32 31 33 36 38 40 42 49 58 63 64 65 65 65 65 64 63 63 62 62 60 59 59 59 59 54 48 46 39
32 29 31 29 31 29 29 27 27 26 25 28 28 26 27 30 32 35 38 39 40 39 37 35 36 39 41 43 49 58 62 64 63 64 63 64 64 63 63 63 62 61 60 59 59 55 51 47 40
31 35 34 32 31 25 28 18 24 21 25 27 29 31 33 36 37 38 39 41 41 43 46 44 40 38 38 41 42 48 56 59 60 60 62 64 63 63 62 62 62 62 62 59 58 55 53 52 44
33 33 32 30 30 29 26 25 20 20 21 25 28 32 35 38 39 40 42 42 43 45 46 46 44 42 41 39 41 44 51 56 57 58 60 61 62 63 62 61 62 61 61 60 58 55 53 53 49
31 29 29 29 29 30 26 23 14 17 19 25 28 32 35 37 40 41 43 43 43 45 45 46 44 43 43 44 40 42 46 53 56 59 60 62 62 62 62 61 61 61 61 59 58 57 53 52 52
35 34 31 30 30 25 23 21 16 20 22 25 30 33 35 38 40 42 43 43 43 44 44 44 43 43 43 43 45 43 43 47 53 56 59 60 61 61 60 60 60 60 60 59 59 57 54 53 52
37 37 30 20 16 15 22 19 16 22 22 26 29 32 34 39 41 42 43 42 42 43 44 44 43 42 42 44 45 46 46 45 44 50 56 58 59 60 60 59 60 60 59 58 58 57 55 53 51
33 34 25 24 20 21 16 18 18 21 24 26 31 34 36 40 41 42 42 42 42 43 44 45 44 43 45 45 46 47 47 49 48 48 48 51 55 58 59 59 59 59 59 57 56 54 54 52 52
30 28 28 31 22 17 11 9 11 22 23 25 30 33 36 40 41 41 42 42 42 43 43 44 43 42 43 44 45 46 48 50 50 51 51 50 51 53 56 57 57 58 56 54 53 52 52 51 50
28 28 26 24 22 14 2 2 15 19 23 25 26 32 37 41 40 39 39 41 42 41 41 41 41 41 41 42 43 45 47 48 49 50 51 52 53 53 54 54 55 55 52 51 50 48 48 46 41
29 27 23 25 23 23 22 12 21 21 24 25 27 33 38 41 40 37 35 37 41 39 39 39 39 39 39 39 40 43 46 47 48 48 49 49 50 50 51 51 50 49 48 47 45 41 40 36 34

GFSSGP_sfc_dewp_051.txt.gz
Dewpoint
60 55 46 44 36 32 29 26 26 28 28 29 32 30 28 32 34 42 61 62 61 64 67 70 74 75 75 75 74 73 72 71 70 69 67 66 66 65 66 68 66 66 68 69 68 67 65 65 65
55 48 44 41 32 30 27 27 27 27 31 32 32 32 31 32 47 58 60 63 62 64 67 67 74 75 75 74 73 72 71 70 69 67 65 64 63 66 70 69 68 67 69 69 67 64 64 65 65
56 48 41 36 32 27 27 27 25 30 30 30 31 32 34 40 52 56 62 62 63 64 65 70 75 75 75 74 73 72 71 70 69 67 65 63 65 67 70 70 70 69 68 66 65 63 64 65 65
51 44 41 36 31 30 28 26 25 29 31 31 30 30 39 52 53 59 63 61 63 63 65 72 74 75 74 74 73 72 71 70 68 67 66 63 65 67 68 68 68 68 68 66 65 64 65 65 66
49 43 37 35 33 30 29 29 28 28 29 29 29 30 37 57 60 62 62 61 62 62 67 69 74 73 74 73 72 72 71 70 69 67 65 63 65 65 68 66 66 66 65 65 64 65 65 66 66
44 43 37 34 33 31 30 30 29 29 29 27 28 29 43 59 61 63 63 62 62 62 64 67 71 72 72 72 72 72 71 70 69 68 65 63 64 64 65 65 65 65 64 64 64 65 66 66 65
43 41 38 35 32 32 30 31 30 29 28 27 27 29 43 57 64 64 63 63 63 63 62 64 65 67 70 70 71 72 72 71 70 68 65 65 66 66 65 65 64 64 64 65 66 66 66 63 61
43 41 38 36 31 31 32 32 31 30 28 28 28 29 36 52 64 65 65 64 63 64 62 62 63 66 67 67 70 71 71 71 70 68 67 66 65 66 65 66 65 65 66 66 67 66 62 61 62
43 39 36 35 33 32 32 32 33 31 28 28 27 32 50 53 64 65 65 65 65 63 62 61 61 63 63 63 66 69 70 70 68 67 66 64 59 61 62 64 66 67 67 67 67 63 61 64 64
39 38 35 34 33 34 33 32 29 31 28 27 30 39 54 55 62 63 63 63 64 63 62 62 61 61 61 59 63 61 61 67 66 64 62 58 57 57 57 62 66 66 67 68 65 62 61 63 55
36 30 33 31 34 35 33 31 28 30 27 27 29 33 48 56 60 60 62 62 63 64 64 63 63 62 61 59 59 58 59 65 65 61 59 57 58 59 57 59 60 62 64 62 64 60 52 50 48
34 32 28 32 35 36 32 30 29 31 29 30 32 38 38 50 56 58 59 61 61 63 64 65 64 63 61 59 59 57 60 61 60 60 57 57 59 60 58 57 57 59 60 60 62 60 54 50 48
34 32 32 34 38 37 32 30 29 30 33 36 37 38 36 37 45 55 58 60 61 62 64 65 65 65 63 61 59 59 59 61 60 60 58 57 59 59 60 59 57 57 58 58 60 59 54 51 47
36 34 34 34 37 38 36 33 34 34 34 34 35 35 33 34 37 41 53 58 59 60 62 64 65 65 65 63 62 61 61 61 62 61 61 58 58 59 60 59 59 58 57 57 57 57 55 49 45
37 32 34 33 34 35 37 33 34 35 33 33 31 32 33 32 32 37 41 45 52 57 59 62 64 65 65 64 65 63 63 62 62 62 61 60 59 59 59 59 59 60 59 57 57 56 54 50 45
34 34 31 31 34 34 34 27 29 33 32 31 29 28 28 29 31 31 36 40 42 43 45 53 60 63 64 64 65 66 64 63 63 62 62 61 60 60 59 59 59 59 60 59 57 57 54 49 45
34 26 27 26 30 33 34 25 26 30 31 29 28 28 28 29 31 31 30 35 38 40 41 42 45 53 60 62 64 67 67 67 65 63 63 62 61 60 60 59 59 58 60 60 58 57 53 50 48
26 25 22 21 31 30 30 29 26 30 31 29 28 28 29 29 30 31 32 33 35 36 38 39 40 41 48 56 60 67 67 67 66 65 64 63 63 62 61 60 59 58 60 60 59 57 55 52 49
23 23 19 22 31 31 28 27 27 29 30 30 29 28 27 27 29 32 35 35 35 36 37 38 40 41 41 49 54 65 66 66 65 66 65 64 64 63 63 62 60 60 59 60 59 57 55 52 50
28 23 23 28 30 29 24 28 29 29 29 29 29 30 30 30 30 30 32 35 34 32 32 34 37 40 41 43 48 56 63 63 65 66 66 65 64 64 63 63 62 60 59 59 59 58 55 52 49
27 25 22 25 31 30 29 27 27 27 28 27 27 26 25 27 28 33 37 39 40 41 42 38 36 38 40 43 44 48 57 63 63 65 65 64 64 65 64 63 63 62 60 60 60 59 56 52 49
26 29 28 31 29 19 28 10 26 25 26 27 29 30 31 34 35 37 38 40 41 44 47 45 43 40 39 41 41 43 47 54 59 60 61 62 63 63 64 63 63 62 62 60 60 60 59 54 49
31 35 33 32 30 29 27 24 21 22 24 25 28 32 35 37 38 39 41 43 43 46 47 47 45 43 43 41 40 42 43 46 51 56 58 58 60 63 63 62 63 63 62 62 61 60 59 54 52
34 32 32 32 30 30 28 22 19 18 20 24 28 31 35 37 39 41 42 43 43 46 47 47 44 43 43 44 44 42 44 43 46 52 56 57 59 61 63 62 61 62 62 61 61 61 60 56 56
33 33 31 30 31 25 24 24 19 19 20 24 28 31 35 38 39 41 42 43 42 44 44 44 44 43 43 43 44 44 45 43 44 47 51 55 57 60 61 61 61 61 61 61 61 60 59 57 56
34 33 30 21 23 23 21 20 17 21 23 28 31 34 36 39 41 41 42 42 42 42 44 45 44 43 43 44 45 45 45 46 45 44 44 50 54 56 58 62 61 60 60 60 60 60 59 57 56
36 35 27 23 18 19 16 16 21 21 21 26 32 35 37 39 41 41 41 42 42 42 43 44 43 43 43 44 45 46 46 48 48 49 48 47 48 51 54 58 60 60 59 59 59 59 58 57 55
36 34 32 33 26 17 15 12 12 19 22 27 30 32 35 40 41 41 40 41 42 41 42 43 42 42 42 42 43 44 45 47 48 48 49 50 50 50 51 53 56 58 58 58 57 56 55 55 54
29 29 28 27 24 19 8 6 16 21 24 25 25 32 36 40 40 39 38 38 41 41 41 41 40 40 40 40 41 42 45 46 47 47 48 49 50 51 52 52 53 53 56 55 54 53 53 52 49
29 27 27 27 25 24 23 15 16 22 24 26 25 33 38 41 40 37 36 38 39 39 40 39 39 38 38 39 39 40 42 43 43 44 44 46 47 49 49 50 51 52 51 50 50 47 46 43 40

GFSSGP_sfc_dewp_054.txt.gz
Dewpoint
61 54 55 49 42 38 34 30 28 31 29 30 31 29 31 31 49 52 60 61 66 66 69 73 74 75 75 75 74 73 73 71 70 69 68 68 67 65 67 67 67 67 69 69 67 66 66 66 66
57 54 51 46 38 33 31 30 29 29 32 31 31 31 30 46 57 59 61 62 65 67 68 69 74 75 75 75 73 73 71 70 68 67 66 65 65 69 69 68 67 69 70 68 65 65 65 65 66
55 53 47 41 37 31 31 29 28 31 31 31 31 32 33 49 55 59 63 61 64 66 67 72 75 75 75 74 73 73 72 70 68 67 65 64 67 70 70 70 70 70 68 66 65 65 65 66 66
51 50 45 38 34 33 30 28 27 30 31 31 31 32 49 57 57 61 62 61 63 65 70 74 75 75 75 74 73 73 72 70 68 67 65 65 68 69 69 69 69 69 68 66 65 65 66 66 66
51 47 40 37 36 34 30 29 30 29 30 30 29 33 52 58 60 61 61 62 62 68 70 72 74 75 74 73 72 72 72 70 68 67 64 64 67 69 68 68 68 67 66 65 65 65 66 66 66
52 45 41 36 35 34 32 30 30 28 29 28 28 35 53 59 61 61 60 61 62 68 68 70 72 73 73 72 72 72 72 71 69 67 64 64 66 67 67 66 66 65 65 65 65 66 66 66 64
50 46 42 38 35 34 33 31 28 28 29 28 28 30 56 61 63 62 61 61 62 64 67 67 68 70 71 71 72 71 72 70 69 68 66 67 67 67 66 66 66 65 65 65 66 66 66 64 63
48 49 43 39 36 35 33 31 30 29 28 29 28 37 52 62 64 65 65 63 62 62 64 64 65 66 68 69 70 71 71 70 69 68 67 66 65 66 67 66 66 66 66 67 67 66 63 62 62
47 44 43 41 38 37 34 32 32 32 29 28 28 48 51 63 64 64 64 65 65 62 61 63 64 65 67 67 68 70 70 69 68 67 66 64 62 63 64 64 66 67 68 68 67 64 63 65 65
41 40 41 41 38 36 35 34 33 31 30 29 28 47 53 61 63 63 62 62 63 63 61 61 63 64 64 63 67 66 67 68 65 63 63 61 59 60 60 64 66 67 68 68 66 64 64 63 59
40 37 40 38 37 36 36 33 34 30 31 28 28 35 53 56 58 61 62 62 63 64 64 62 61 61 61 59 64 61 62 66 66 63 62 60 57 59 61 63 63 64 64 65 64 61 56 54 54
35 37 36 37 38 37 35 35 31 30 32 34 38 39 44 53 56 57 60 61 63 64 64 65 65 62 61 59 59 58 59 64 66 65 61 58 59 58 57 60 60 62 62 62 63 61 55 53 48
37 34 33 35 38 38 35 34 30 30 34 36 38 38 37 36 45 56 58 60 61 63 63 65 65 65 62 60 59 59 58 63 62 61 59 58 59 60 59 58 57 59 60 60 62 61 58 51 49
36 35 34 34 38 38 34 32 31 31 33 35 36 36 35 35 36 39 55 58 60 61 63 65 66 65 65 62 61 59 59 61 62 61 61 58 59 60 60 59 58 57 58 59 61 61 56 51 49
36 34 34 34 36 36 37 33 32 33 34 33 33 34 34 34 33 32 37 44 54 59 61 64 64 65 65 65 63 63 63 62 62 62 61 60 58 59 59 60 60 60 58 57 57 57 56 51 47
36 36 31 33 34 36 36 31 33 34 34 34 32 31 31 32 33 32 33 39 42 44 44 59 63 65 65 65 65 65 65 64 63 63 63 61 60 59 59 59 59 60 60 58 57 57 56 51 47
34 31 31 31 33 33 33 30 31 32 33 33 31 30 28 28 28 30 32 31 37 40 42 43 45 56 64 64 64 65 66 66 66 64 63 63 61 60 59 59 59 59 59 60 58 57 55 51 47
31 30 30 28 29 32 33 32 29 29 30 29 29 28 28 30 30 31 32 38 36 37 38 40 42 44 44 54 62 66 65 65 66 66 65 63 63 62 60 59 59 58 59 60 59 57 56 51 49
28 28 27 26 31 30 29 30 30 29 31 31 31 30 29 28 29 31 33 32 33 34 35 37 39 41 42 44 51 65 65 66 66 65 65 66 64 63 62 61 60 59 58 59 59 58 56 53 50
28 26 25 26 31 30 28 27 28 28 29 30 30 29 29 30 30 31 36 36 36 35 36 36 36 39 41 43 44 52 65 65 65 64 64 65 65 64 63 63 62 61 60 59 59 58 56 53 51
28 27 23 26 30 30 29 26 27 29 29 29 29 29 27 26 28 34 37 39 41 43 45 43 41 40 39 41 44 45 48 62 63 63 63 64 64 65 65 64 62 62 61 60 59 60 57 55 52
25 27 27 30 29 23 28 12 22 27 26 27 28 27 29 33 36 37 39 41 42 45 47 47 46 43 40 40 41 41 43 46 56 62 64 64 64 64 64 64 63 63 62 61 61 60 59 56 51
29 33 33 33 31 30 27 25 23 24 25 26 29 32 35 37 38 39 42 43 43 46 47 47 46 44 43 44 42 42 42 44 45 47 54 59 61 63 63 63 63 62 63 63 62 61 60 58 55
36 33 33 33 31 29 29 23 21 22 23 25 29 33 35 37 39 41 43 43 43 45 45 46 45 44 44 44 44 44 42 42 43 44 48 54 57 59 62 62 62 61 62 62 62 62 61 60 57
34 32 26 26 26 25 26 25 23 21 23 26 29 32 35 38 40 41 42 43 42 43 44 44 44 44 43 43 44 45 45 45 44 44 45 48 53 57 59 60 61 61 61 62 62 61 61 60 58
33 33 28 20 24 23 22 23 20 21 25 28 31 33 36 38 41 41 41 42 42 42 43 44 44 43 44 44 45 45 46 47 48 48 48 47 47 50 54 58 59 60 61 60 61 61 60 60 59
35 33 27 25 17 22 20 19 21 22 27 28 31 34 36 40 41 41 43 42 42 42 43 43 42 42 42 42 43 44 45 47 48 48 49 50 50 51 51 52 55 59 60 60 60 60 59 59 58
36 36 31 28 18 18 15 15 16 20 21 27 32 34 37 40 40 40 39 40 42 41 42 42 40 40 40 40 41 43 45 46 47 47 48 49 50 50 51 52 53 55 57 58 58 58 57 56 55
34 35 33 30 25 22 15 12 17 20 21 27 28 32 36 40 40 39 38 38 39 41 41 40 39 39 39 39 39 41 42 43 43 43 43 45 47 48 48 49 50 52 54 54 54 54 53 53 51
30 30 28 31 28 22 22 18 17 22 26 27 25 34 38 41 40 37 36 37 39 39 39 38 38 38 38 39 39 39 40 40 40 40 40 40 40 41 42 44 44 44 45 44 45 46 45 45 42

GFSSGP_sfc_dewp_057.txt.gz
Dewpoint
63 59 54 47 38 37 33 33 27 28 27 31 31 30 31 42 51 49 61 67 69 71 73 74 75 75 75 75 74 74 73 72 71 70 69 68 66 67 67 67 68 69 69 67 66 66 66 66 65
62 58 50 43 37 32 32 32 26 31 31 31 31 31 41 52 58 59 61 67 68 71 72 72 75 75 75 74 73 73 72 69 68 68 67 65 68 69 68 68 69 70 68 66 66 65 65 66 65
58 54 47 40 37 34 32 30 29 30 30 31 32 32 45 52 59 60 62 66 67 68 69 73 74 75 75 74 74 73 71 69 67 66 65 67 70 69 69 69 70 69 67 66 65 65 65 66 65
51 48 44 38 36 35 34 31 31 30 30 31 31 48 54 58 59 62 63 67 67 68 71 74 75 75 74 74 74 72 70 69 67 66 65 69 70 70 70 70 70 69 68 65 65 66 66 66 66
52 47 41 37 36 37 34 29 29 30 30 31 29 45 56 59 61 61 62 66 68 70 72 73 75 75 74 73 72 72 72 69 68 65 65 69 69 69 69 69 68 67 66 66 66 66 67 66 65
51 50 41 38 37 37 35 29 27 29 29 27 35 51 57 61 60 60 63 68 69 70 71 72 74 74 73 72 71 72 71 71 68 66 64 67 69 68 68 67 67 66 66 65 65 66 67 66 64
47 47 42 40 40 38 36 31 27 28 29 29 29 52 58 62 63 62 62 68 68 69 70 71 72 72 71 71 71 71 71 70 69 68 67 68 68 68 67 67 66 66 65 65 66 66 66 64 64
51 47 41 42 40 40 39 30 29 28 28 29 32 50 55 62 64 65 65 65 67 68 68 67 68 69 69 69 70 70 70 69 69 68 67 66 66 67 67 67 67 66 66 67 67 66 64 63 63
51 45 41 43 43 42 41 41 33 32 29 28 42 51 62 64 64 64 64 64 64 65 66 65 66 67 67 68 68 70 69 68 67 66 65 64 63 64 65 65 66 68 68 68 67 65 64 65 64
49 44 40 41 43 42 42 41 41 30 30 30 50 60 63 64 63 62 62 63 62 62 63 64 64 66 67 66 68 68 68 67 65 64 63 62 61 62 62 63 65 67 68 68 67 65 65 63 60
42 42 43 41 42 46 40 40 40 31 32 30 41 53 60 62 62 62 61 62 62 62 64 63 64 65 65 66 67 66 67 67 64 63 62 61 60 60 62 63 64 64 64 66 65 63 60 59 57
38 40 41 42 44 46 37 35 34 31 33 39 34 53 55 57 58 61 62 62 62 63 63 65 65 62 62 65 64 63 64 66 66 63 62 60 58 59 61 62 62 62 63 63 62 60 57 52 52
40 37 38 38 38 39 36 34 31 31 35 38 37 37 43 51 57 58 61 62 63 63 64 64 65 65 61 60 61 59 61 64 66 65 62 60 59 58 59 60 60 61 61 62 62 61 58 54 50
39 39 36 36 38 37 34 32 32 32 34 35 35 35 35 35 36 52 58 59 62 63 63 64 65 65 65 61 59 58 59 62 64 64 62 59 58 59 58 58 58 59 60 60 61 62 60 56 50
37 37 38 38 38 37 35 33 32 33 34 34 34 34 35 34 34 32 42 58 60 62 63 64 64 65 65 65 62 60 60 61 62 61 60 58 58 60 60 59 58 57 58 60 59 61 59 53 50
36 36 35 34 37 37 33 31 34 34 37 34 34 33 32 34 33 32 32 36 43 51 61 64 64 65 64 65 65 63 64 64 62 62 62 60 59 59 59 59 59 60 58 57 57 57 56 52 49
37 32 33 31 35 36 34 32 33 33 33 34 34 33 32 30 30 32 32 31 33 39 42 57 64 64 64 65 65 65 65 65 66 66 63 61 60 60 59 59 59 59 60 58 57 57 56 52 49
33 31 32 30 32 34 33 32 33 30 32 33 33 30 29 29 29 31 33 35 34 35 36 38 41 51 64 65 64 65 65 65 65 66 66 64 62 61 60 59 59 59 59 59 59 57 56 53 50
32 31 31 32 31 32 32 32 33 33 30 30 30 30 30 29 29 31 32 34 34 34 35 35 36 38 41 43 55 63 64 64 64 65 65 65 65 63 62 60 59 59 58 58 59 58 56 53 50
31 30 28 29 31 31 31 31 33 31 29 30 31 31 30 29 29 36 37 39 41 43 44 42 40 39 38 42 44 53 63 64 65 65 64 64 64 64 64 62 61 60 59 58 59 58 56 56 52
28 27 26 27 30 30 28 26 27 28 29 30 29 29 28 26 29 37 39 42 44 45 46 46 45 43 41 39 41 43 45 55 62 62 62 63 64 64 64 64 63 62 60 60 59 59 58 57 54
27 28 29 30 29 25 27 18 21 26 27 27 28 27 26 35 37 39 41 41 44 45 46 46 46 45 43 42 40 39 41 42 49 56 62 63 63 63 63 63 63 62 62 61 61 59 59 56 54
30 33 32 32 29 28 27 24 24 26 25 26 28 30 35 37 39 41 42 43 45 46 46 46 46 44 44 44 44 41 40 42 44 44 45 51 61 63 63 63 62 61 61 61 61 61 60 59 58
36 33 33 32 30 25 28 25 21 24 25 26 29 34 36 37 39 42 43 43 44 44 44 44 45 44 44 43 44 44 44 42 42 42 43 45 50 56 60 62 62 62 61 62 62 61 61 60 59
35 31 23 22 21 22 25 25 23 24 25 27 31 33 35 37 40 42 42 42 42 43 44 45 44 43 44 44 45 45 46 46 46 47 46 46 46 50 52 57 60 59 60 60 61 60 61 60 59
34 30 24 17 20 23 22 25 24 22 25 29 32 34 36 38 41 41 42 42 42 43 43 43 43 43 42 42 43 44 46 47 48 48 49 50 50 50 52 53 54 57 58 59 59 60 60 60 59
35 28 28 24 22 19 22 21 20 27 29 30 32 35 36 38 41 41 41 42 41 42 42 41 41 41 40 40 41 44 45 45 46 47 48 49 49 50 51 51 51 52 56 57 57 57 59 59 59
36 36 29 25 17 16 19 17 19 24 27 29 32 34 35 40 40 40 39 40 41 42 41 40 40 39 39 39 40 42 42 42 42 41 40 42 44 47 48 49 49 50 52 53 55 56 56 56 56
34 35 33 30 25 20 15 15 16 21 25 28 33 34 37 40 40 38 37 38 40 41 40 39 38 38 38 39 39 40 40 40 39 39 39 39 39 40 41 44 44 45 45 45 48 49 50 52 49
34 33 31 27 26 21 21 17 20 22 24 29 31 34 39 41 39 37 36 38 39 39 37 37 38 38 38 39 38 38 38 38 38 37 37 38 37 38 38 38 38 38 39 39 41 42 42 43 41

GFSSGP_sfc_dewp_060.txt.gz
Dewpoint
62 59 55 46 38 37 34 34 28 28 29 31 31 46 49 48 50 41 62 67 71 73 74 74 75 75 75 74 74 74 73 73 72 71 69 67 66 67 67 68 69 69 67 67 66 66 66 65 64
60 55 49 42 36 32 32 33 31 29 30 31 31 34 50 55 58 63 65 69 71 73 73 74 75 75 75 74 73 73 71 70 69 69 67 66 69 68 68 68 70 69 67 66 65 65 65 64 64
57 52 46 39 37 33 32 31 29 31 31 31 31 42 50 55 59 61 66 69 71 72 72 73 75 75 75 74 73 72 69 68 67 67 66 69 69 68 68 70 70 67 66 66 65 65 65 64 63
50 47 43 39 37 36 34 35 31 30 31 30 42 51 56 59 60 63 66 69 69 69 71 73 75 75 74 74 73 71 69 68 66 66 68 71 70 69 71 70 69 68 67 65 65 66 66 65 64
51 45 40 37 38 38 37 36 32 29 31 29 36 52 56 60 62 65 66 67 68 70 72 72 74 74 74 74 73 71 69 68 66 65 69 70 69 70 70 69 68 67 66 65 66 66 66 65 64
49 47 39 38 38 39 39 37 28 29 29 35 53 54 56 62 60 66 67 67 69 70 72 73 73 73 73 73 73 72 71 68 66 65 69 69 69 69 69 68 67 67 66 66 66 66 66 65 64
46 45 41 40 40 40 40 39 28 28 28 28 50 53 58 60 64 65 67 69 70 71 72 72 73 72 71 71 71 71 71 70 68 67 69 70 69 69 68 67 67 66 66 65 66 67 66 65 63
49 45 41 41 39 40 42 42 35 28 28 29 51 55 57 61 65 66 68 68 69 70 71 70 70 70 69 68 70 70 70 70 68 68 68 67 68 68 68 68 67 67 66 66 67 67 65 64 63
53 44 38 40 40 41 45 43 43 34 31 44 49 55 60 64 64 64 65 65 67 68 68 68 68 68 68 68 68 69 69 69 68 67 66 65 64 65 65 65 66 67 68 67 67 66 64 65 64
49 42 40 40 41 45 47 44 44 33 35 49 59 62 63 63 62 62 63 63 63 65 65 66 66 67 67 67 68 67 67 66 65 64 63 63 62 63 64 63 65 67 68 68 68 65 65 64 60
49 42 43 41 43 50 48 47 46 39 30 42 57 60 62 61 61 62 62 63 63 63 64 64 65 66 66 66 67 67 67 65 64 63 62 61 61 61 62 62 63 64 65 66 66 64 62 59 57
42 43 44 44 44 50 47 47 44 38 33 37 55 61 60 60 61 61 61 62 62 63 63 63 64 65 65 66 66 66 66 66 64 63 62 60 59 59 60 61 62 62 63 63 63 61 59 56 56
40 41 42 46 48 49 49 47 45 38 36 39 49 54 58 59 60 61 61 62 62 62 64 64 65 63 63 65 65 64 65 66 66 64 62 61 59 58 60 61 61 61 61 62 62 61 59 56 52
43 41 41 42 40 45 46 46 44 34 33 36 36 38 40 51 57 58 61 61 62 63 63 64 65 65 61 62 62 61 62 63 66 65 63 62 59 58 59 60 60 60 61 62 62 62 61 59 54
40 40 39 39 37 36 40 40 38 33 34 34 34 36 34 34 34 53 58 60 62 63 63 62 63 65 65 62 60 59 59 62 64 65 64 63 59 59 58 58 59 59 59 60 61 61 61 59 56
36 40 37 37 37 37 32 30 34 34 34 33 34 33 34 34 34 33 36 55 58 62 63 63 64 64 64 64 65 62 61 60 62 62 62 62 61 59 59 58 58 58 58 59 59 60 60 59 56
37 34 35 34 36 36 32 31 33 33 33 33 34 34 34 33 32 32 33 32 36 47 54 63 64 64 64 64 65 65 63 64 65 63 62 60 59 58 59 59 60 59 58 57 57 57 58 57 53
33 32 34 31 34 35 34 32 32 33 31 32 33 34 32 29 30 30 33 35 34 35 36 40 47 56 64 65 64 64 64 64 64 65 65 63 61 60 60 60 59 59 59 59 58 56 56 55 54
34 32 33 33 33 33 34 33 33 33 32 31 32 32 30 30 31 32 33 34 39 41 39 37 36 37 41 52 60 62 63 64 63 64 65 65 65 63 62 61 60 60 59 59 59 58 56 56 52
33 31 31 31 33 31 31 32 33 33 32 30 30 31 31 29 33 36 40 42 43 44 44 44 42 41 38 41 43 50 61 63 64 64 64 64 64 64 64 62 61 60 59 59 58 58 56 56 54
32 31 28 28 31 30 29 28 29 31 30 30 31 30 30 28 33 38 41 43 45 45 46 46 45 44 42 40 40 42 44 50 61 62 62 63 63 63 63 63 62 61 60 59 58 58 57 57 53
31 29 29 29 29 27 27 23 21 27 28 28 29 28 28 31 36 39 41 43 44 45 46 45 45 44 44 44 42 39 40 40 45 51 56 55 61 62 63 62 62 62 61 60 60 59 58 57 57
30 31 31 31 29 26 26 22 22 25 25 27 28 27 29 36 39 40 42 43 45 45 44 44 44 44 44 43 44 43 42 41 43 43 43 44 47 53 60 62 62 60 61 61 60 59 58 58 58
35 33 32 32 30 25 27 23 21 23 24 26 28 31 36 38 40 42 43 44 43 44 44 45 44 44 44 45 45 45 45 45 44 45 46 46 47 52 52 55 59 60 60 59 59 59 59 59 59
34 30 25 25 25 22 26 25 24 24 25 27 28 34 36 38 40 42 42 42 42 43 44 43 43 43 43 43 44 46 47 47 47 47 48 49 49 49 50 52 52 55 57 59 59 58 57 57 57
34 29 22 18 20 21 24 25 25 25 25 27 30 34 36 38 41 42 42 42 42 43 43 42 42 41 41 41 44 45 45 47 47 47 48 48 49 49 50 50 51 52 55 56 56 57 57 57 56
35 33 29 22 21 18 22 23 21 27 27 30 32 34 36 39 41 41 41 42 42 42 42 40 40 39 39 40 42 42 42 42 42 41 42 44 45 46 48 48 49 50 50 53 56 56 57 55 55
37 35 28 24 16 15 18 19 20 25 27 30 33 35 36 40 41 41 41 42 41 42 40 39 39 38 39 39 40 40 40 40 40 39 39 39 39 41 44 45 45 45 45 46 48 49 49 51 52
36 35 31 29 24 19 16 16 19 24 28 30 34 35 35 40 40 39 38 39 41 40 39 38 38 38 38 39 39 38 38 38 38 37 37 38 38 38 38 39 39 39 40 41 42 43 43 45 44
34 34 32 28 21 20 19 16 21 20 27 31 33 34 37 40 39 37 37 39 40 38 37 38 38 38 38 38 38 38 38 38 37 37 37 37 37 37 37 37 37 37 38 38 39 39 40 40 40

GFSSGP_sfc_dewp_063.txt.gz
Dewpoint
61 57 53 44 37 37 34 34 33 27 29 30 32 43 39 53 46 40 62 67 71 72 74 74 75 75 75 74 74 74 73 73 72 70 69 67 67 67 68 69 69 67 67 66 65 66 65 65 65
59 54 47 42 35 33 32 34 31 29 31 33 42 44 53 53 58 63 65 70 71 73 73 73 75 75 74 74 73 72 71 70 70 69 66 67 67 67 67 70 69 67 66 65 65 65 65 64 66
56 51 43 38 36 32 31 32 32 30 31 31 37 50 54 56 61 63 66 71 72 72 73 74 75 75 74 73 72 70 69 69 68 67 67 69 68 68 68 70 68 67 66 65 64 65 64 64 65
50 46 43 39 36 36 34 35 36 31 30 31 48 52 57 60 60 64 69 71 72 71 72 74 74 75 74 73 72 70 68 67 66 66 69 71 68 68 70 70 68 68 66 64 65 65 64 64 65
50 44 39 37 38 38 38 38 36 31 29 33 47 53 55 60 64 67 69 70 70 70 71 73 74 74 74 73 72 70 68 67 66 67 70 71 70 70 71 69 67 67 66 65 66 65 65 65 64
48 45 38 37 37 39 40 40 38 30 29 52 54 54 55 62 65 67 68 68 70 70 71 71 73 73 74 73 72 71 69 67 66 68 70 69 69 70 69 68 67 66 65 65 66 66 65 64 63
46 43 39 39 39 39 40 43 36 31 28 36 54 54 56 60 62 67 67 68 69 71 71 71 72 72 72 72 72 71 70 69 67 69 70 70 70 69 68 67 67 66 65 65 66 66 65 64 63
48 42 41 41 38 39 44 43 43 34 29 38 56 55 55 61 65 68 68 68 69 70 71 70 70 70 69 69 71 70 70 69 68 68 69 69 68 68 68 68 68 67 66 66 66 66 65 64 63
53 43 37 38 39 40 46 44 45 45 35 49 55 57 61 64 67 66 66 67 68 69 69 69 69 68 68 67 68 70 69 68 67 67 66 66 65 66 66 66 66 67 67 67 66 66 65 65 64
49 43 39 40 41 44 47 47 46 42 41 50 58 62 63 64 65 65 65 65 65 65 67 68 68 68 67 67 67 67 67 66 65 64 63 63 63 63 64 64 65 67 68 68 67 67 66 64 59
49 42 42 40 43 49 48 46 46 43 38 37 54 61 61 62 63 64 64 65 65 65 65 66 66 66 67 67 66 66 66 64 64 63 62 61 62 61 62 61 63 63 65 65 66 64 62 59 57
45 45 42 44 49 49 47 48 45 43 41 44 40 61 60 60 61 62 62 63 63 63 64 64 65 65 65 66 66 66 66 64 63 62 62 60 59 59 60 60 61 61 63 63 63 62 60 59 57
41 43 44 50 49 48 48 46 46 45 45 45 42 59 58 58 59 60 62 63 63 63 63 63 64 64 65 65 65 65 65 65 64 63 62 61 59 58 59 60 60 61 61 61 62 61 60 58 54
43 41 44 48 47 48 46 45 46 44 44 37 54 57 57 57 58 58 61 61 62 63 64 64 64 64 64 65 64 64 64 65 65 64 63 61 60 58 59 60 60 60 60 61 61 61 60 59 57
43 40 43 44 44 44 47 44 44 44 43 37 35 40 42 51 56 58 60 61 62 62 63 64 64 65 62 64 64 63 63 63 65 65 64 63 61 59 58 59 60 60 60 60 61 60 60 60 59
39 41 37 40 40 40 46 39 44 46 43 36 33 33 33 34 34 44 57 60 61 62 63 63 64 65 64 62 62 61 60 61 62 64 65 64 62 60 58 58 59 59 59 59 59 60 59 60 59
36 34 35 36 38 40 41 34 40 44 42 38 34 34 34 33 33 32 33 40 46 60 62 63 63 64 64 64 64 63 61 60 60 62 63 63 63 61 60 58 58 58 58 58 58 58 59 58 58
32 32 34 33 35 36 36 31 33 35 34 35 35 34 34 33 31 31 31 34 36 37 41 52 58 60 64 64 64 64 64 63 64 64 62 62 61 61 60 60 59 59 59 58 57 57 57 57 57
33 32 33 32 35 34 34 33 33 32 31 30 31 33 34 32 31 33 34 36 40 40 38 37 37 38 45 60 61 62 62 63 63 63 64 64 64 62 61 60 60 60 59 59 59 57 56 55 53
32 32 33 32 34 34 33 33 34 34 33 32 30 31 32 30 34 36 40 41 43 44 44 43 43 41 39 41 44 54 60 62 62 63 63 64 64 64 64 62 61 60 59 59 59 58 56 55 54
31 31 30 30 31 30 30 29 31 33 33 32 32 31 31 30 34 38 40 43 44 45 45 45 44 44 42 40 40 41 42 48 56 59 61 62 62 63 63 63 62 61 60 59 58 57 57 57 53
30 31 30 30 29 27 29 26 25 29 30 31 32 30 30 29 35 39 42 43 44 45 45 45 44 44 44 44 42 39 38 39 42 46 49 45 47 54 59 61 61 61 60 59 59 58 57 56 56
31 30 30 31 29 27 26 25 26 24 26 29 30 29 29 29 36 40 41 43 45 44 44 44 44 44 44 44 44 43 42 42 43 43 44 44 46 52 53 55 59 59 60 60 59 58 57 57 57
34 31 31 32 29 24 26 25 24 22 23 24 28 28 28 35 39 41 42 44 43 44 44 43 43 43 44 45 45 46 45 45 46 46 47 48 49 51 51 52 52 55 59 59 58 58 57 57 56
33 29 24 25 25 22 26 24 25 25 25 25 25 28 32 38 40 42 43 42 42 43 43 43 43 42 42 44 45 46 46 46 46 47 47 47 48 49 49 49 50 51 53 56 57 57 56 56 57
33 27 23 18 21 22 26 24 25 28 27 27 28 30 37 39 41 42 42 42 42 43 42 42 41 40 40 43 43 43 44 45 44 44 45 45 46 47 47 48 48 50 51 55 56 55 55 55 55
34 29 27 21 20 19 22 23 23 24 25 26 30 35 36 38 41 42 42 42 42 42 41 41 39 39 40 41 41 41 41 40 40 40 40 40 41 42 45 45 45 45 46 48 51 52 52 54 54
36 35 28 23 13 15 18 20 19 21 24 28 32 34 36 39 41 41 41 41 42 42 40 39 39 38 39 40 40 39 39 38 38 38 38 38 38 38 39 40 40 41 41 43 44 44 45 47 46
37 35 32 28 23 17 17 17 21 19 23 28 32 34 37 40 41 41 41 41 41 40 39 38 38 38 39 39 38 38 38 38 37 37 37 37 37 37 37 37 38 38 39 39 40 41 41 42 42
38 35 31 24 20 19 18 19 20 21 23 31 33 35 36 40 41 39 38 40 40 39 38 38 38 38 38 38 38 37 37 37 37 37 38 38 37 37 37 37 37 37 37 38 37 38 38 38 38

GFSSGP_sfc_dewp_069.txt.gz
Dewpoint
63 56 52 47 38 37 29 30 35 32 28 33 33 35 42 50 43 38 64 68 67 70 72 72 75 75 75 75 73 73 73 73 71 70 69 68 68 70 69 68 68 66 66 67 67 66 67 67 67
61 53 49 44 35 29 29 34 32 34 33 45 40 51 51 53 61 63 65 69 69 71 71 71 75 75 75 74 73 73 73 71 70 68 67 67 68 69 69 69 68 65 65 66 66 66 67 67 67
57 48 44 40 35 30 27 34 37 38 38 34 48 54 55 56 62 64 66 70 70 71 71 72 75 75 75 74 73 72 71 70 68 67 67 67 67 70 70 69 67 65 65 66 65 65 67 66 66
53 47 44 36 35 36 33 37 38 39 32 32 49 54 58 60 63 64 69 70 71 71 71 73 74 75 74 73 72 71 70 69 68 69 69 68 68 70 70 69 67 65 65 65 65 65 66 66 66
50 45 39 38 36 38 38 39 41 36 34 33 49 53 57 62 65 69 70 70 69 71 71 72 74 74 73 72 72 70 68 67 68 70 70 69 68 70 70 68 67 66 66 65 65 65 66 65 66
51 46 38 35 37 38 40 42 40 39 36 45 53 56 58 64 66 68 70 69 68 71 72 71 73 73 73 72 71 70 68 67 69 71 71 70 70 71 69 67 67 66 65 66 66 65 65 65 65
49 46 39 37 36 37 39 44 41 41 37 31 55 54 59 63 66 69 68 68 70 71 71 71 71 71 71 71 71 70 69 68 70 70 71 71 71 70 68 67 67 66 65 66 66 66 65 65 64
51 47 41 39 36 36 44 43 44 43 39 42 54 51 56 62 67 68 69 69 70 71 70 71 71 70 69 68 70 69 69 68 69 70 69 68 68 68 69 68 68 67 65 65 66 66 65 65 64
52 45 40 39 38 40 46 43 46 45 42 51 52 59 61 65 67 67 68 68 69 69 70 70 70 70 69 68 68 68 68 67 67 68 67 67 67 67 66 66 67 68 67 66 66 66 65 64 63
49 43 41 41 42 44 46 45 45 42 39 41 41 44 59 65 65 64 64 64 65 66 68 69 69 69 69 68 68 68 66 64 62 65 67 67 66 66 66 65 66 67 67 67 66 66 66 63 60
48 43 42 40 47 48 46 46 45 42 40 43 42 44 49 63 64 63 63 64 64 65 67 69 69 68 68 68 68 68 67 65 64 63 64 65 65 65 65 65 64 65 65 66 66 66 65 63 60
44 46 43 47 48 46 45 47 44 44 42 45 44 46 46 61 63 62 63 64 65 65 67 68 68 68 67 67 67 67 66 66 64 63 63 63 63 63 63 63 63 63 64 65 65 64 64 63 61
45 45 44 48 48 46 47 45 44 44 46 45 43 43 56 58 61 62 64 64 65 66 66 67 68 68 67 67 67 67 66 65 65 64 63 62 61 60 61 61 61 61 63 63 64 63 63 63 61
45 44 46 48 47 48 45 45 43 43 44 43 43 43 40 57 60 61 63 64 65 65 65 66 66 67 67 67 67 66 66 66 65 64 64 63 62 61 59 58 59 59 61 61 61 61 61 61 61
43 42 46 47 47 47 46 42 43 43 45 43 43 43 41 37 51 60 61 63 64 64 65 65 65 65 66 66 66 66 66 66 66 65 64 64 63 62 61 59 58 59 60 60 61 61 61 61 61
41 43 39 45 47 48 47 39 41 45 44 43 44 43 42 39 35 41 58 62 63 64 64 64 64 64 64 64 65 65 65 65 65 66 66 65 64 63 62 61 60 59 60 60 60 60 60 60 60
40 35 37 42 46 46 44 39 41 46 44 44 44 43 42 40 37 36 35 47 61 62 63 63 65 64 65 64 64 65 65 64 64 64 65 65 64 64 62 62 61 61 60 59 59 59 59 59 59
34 34 37 37 44 44 42 38 43 45 45 44 43 42 42 41 40 37 34 34 38 49 57 63 63 64 65 65 64 64 64 64 63 63 63 64 63 64 64 63 62 61 61 60 59 59 59 58 58
34 34 34 37 42 42 40 37 41 43 44 43 43 42 41 41 39 35 35 35 37 39 44 53 60 58 63 64 64 64 64 64 65 64 63 62 62 62 63 63 63 62 61 61 61 60 58 58 59
34 34 32 33 39 38 40 38 37 41 42 42 39 41 40 40 34 34 35 37 39 40 41 42 44 42 48 57 60 62 63 63 64 64 64 64 64 65 64 63 62 62 61 61 61 60 60 59 59
32 32 32 31 35 33 35 34 36 36 39 41 42 41 39 38 33 33 36 39 43 43 44 44 44 43 43 42 43 44 45 48 53 57 59 47 49 55 61 63 64 64 62 62 62 61 60 60 59
31 33 32 32 32 31 33 28 32 34 35 37 38 38 38 36 33 34 37 40 43 45 47 45 45 45 45 45 43 41 41 41 43 45 46 47 52 53 53 54 56 59 61 62 62 61 60 59 59
31 33 31 32 29 28 27 28 29 32 33 35 36 35 36 36 34 34 38 43 44 46 46 45 45 46 46 46 46 45 44 44 45 47 49 49 51 51 51 51 53 54 56 58 58 60 60 59 59
33 31 30 31 29 28 28 28 26 26 28 31 34 35 36 35 35 34 41 44 45 45 45 45 44 44 46 47 48 47 47 46 47 48 49 49 50 50 49 49 50 52 54 55 56 58 59 59 58
32 29 27 27 26 24 26 26 27 28 26 26 27 29 32 33 33 35 42 44 44 44 44 44 43 44 45 46 46 47 47 48 48 48 47 47 47 47 46 47 48 48 49 52 55 57 58 59 58
31 27 24 19 21 23 26 25 25 28 29 28 28 28 29 30 32 36 42 44 44 44 44 42 42 43 43 43 43 43 43 43 42 42 43 41 42 43 43 44 44 44 45 48 52 55 55 56 56
33 28 26 22 20 20 22 23 23 24 23 24 26 28 31 32 37 40 43 43 43 43 43 42 41 42 42 42 41 40 40 40 40 40 40 40 39 39 40 41 42 42 43 45 47 49 51 50 50
34 31 27 25 16 17 17 18 19 21 22 21 21 27 32 37 41 42 42 42 43 42 42 41 40 41 41 40 39 39 38 38 38 39 38 38 38 38 39 39 39 40 41 42 44 45 46 46 46
35 32 30 27 23 19 16 18 22 23 20 21 22 27 33 38 41 42 42 42 42 41 40 39 39 40 39 39 38 38 38 38 38 38 38 37 38 38 38 38 38 38 39 39 41 41 43 43 43
35 32 30 26 22 20 20 21 23 21 22 24 27 32 35 39 41 42 42 42 41 40 39 39 39 39 39 38 38 37 38 38 38 38 38 38 38 38 37 37 37 37 37 38 38 38 39 39 39

GFSSGP_sfc_dewp_072.txt.gz
Dewpoint
62 56 54 47 34 31 26 26 34 31 27 34 32 31 43 44 36 41 63 64 63 65 68 72 75 75 75 74 73 73 73 72 70 69 69 69 70 69 69 68 66 66 67 67 67 68 68 67 67
60 52 48 44 30 25 24 29 30 34 35 41 43 45 44 47 57 62 62 66 64 66 69 69 75 75 75 73 73 73 72 70 70 69 68 68 70 70 69 68 65 66 66 67 67 68 68 67 67
57 49 41 35 28 24 22 31 35 38 37 40 44 52 51 53 61 60 63 65 65 67 67 70 75 75 74 73 73 73 71 69 68 67 68 68 69 70 69 67 66 66 66 66 67 67 67 67 67
52 46 42 30 27 29 29 37 39 36 32 36 42 49 57 61 61 62 66 65 65 66 66 73 74 75 74 74 73 71 70 69 68 69 68 68 69 71 69 67 66 66 66 65 66 66 66 67 68
51 44 35 31 31 33 36 39 40 37 34 34 46 49 55 62 64 66 65 64 65 64 67 70 74 74 73 73 72 70 69 68 69 70 68 68 69 71 69 67 66 66 66 65 66 66 66 66 67
48 44 33 29 30 36 38 40 39 38 33 43 49 52 56 65 66 67 65 65 65 65 67 69 73 73 73 72 71 70 68 68 70 71 69 69 71 70 68 67 66 66 66 66 65 66 65 65 65
47 42 33 33 33 36 37 42 38 38 32 42 54 50 59 63 67 68 65 65 66 66 66 70 70 70 71 71 70 70 69 70 70 72 71 71 71 70 68 67 67 66 66 66 66 65 65 65 64
49 43 37 37 35 34 43 42 44 39 38 48 57 50 56 63 67 68 67 67 67 66 66 69 68 67 67 66 70 69 68 69 70 70 69 69 68 68 69 68 68 66 66 66 66 66 65 64 63
53 44 39 37 35 37 44 42 44 44 43 44 45 55 59 63 67 67 67 67 65 66 67 67 66 66 66 65 66 67 67 68 69 68 67 66 64 65 66 66 67 67 66 65 66 66 64 63 63
47 44 39 38 38 37 44 43 43 41 43 42 43 49 58 66 66 66 65 66 66 66 67 67 66 66 66 65 65 65 62 59 58 61 63 62 63 64 65 65 66 66 66 66 66 66 65 63 57
46 43 40 39 40 45 44 44 45 40 41 42 42 45 50 64 65 64 65 64 64 65 67 66 67 67 66 65 65 65 64 63 62 61 61 60 60 62 62 62 63 64 64 63 63 63 60 59 59
43 43 42 42 42 42 43 44 43 43 43 44 44 48 49 61 63 63 64 64 64 65 66 68 67 67 66 66 65 65 64 64 63 63 62 62 60 60 57 57 58 59 58 61 62 59 58 59 59
42 41 42 42 44 42 45 44 42 43 44 44 43 43 55 57 61 62 63 64 64 65 67 67 67 67 67 67 66 65 64 64 64 64 63 62 62 60 59 57 56 56 57 59 59 59 57 56 56
40 41 41 43 44 45 42 43 43 42 43 42 42 43 43 51 60 61 62 63 64 65 65 66 67 66 66 66 66 65 65 64 65 64 64 63 62 61 60 59 55 56 57 59 59 59 59 59 58
42 40 42 43 44 44 43 41 42 41 43 41 41 41 42 42 42 58 61 63 65 66 66 65 65 65 65 66 67 65 65 64 64 65 64 64 63 63 61 61 60 57 58 58 59 59 60 60 60
40 39 38 41 43 46 43 39 41 42 42 41 40 40 43 42 40 38 51 61 64 65 65 65 64 65 65 65 65 65 65 64 65 65 65 65 64 64 63 62 62 61 60 60 60 60 60 60 59
38 31 35 39 43 45 43 38 40 41 42 40 40 40 42 42 41 40 36 43 61 64 65 65 65 64 64 64 64 65 65 64 64 65 65 65 65 64 63 62 62 62 62 62 61 61 60 60 60
28 29 33 34 42 43 41 39 42 43 43 40 39 40 41 42 42 41 39 35 39 58 63 64 65 65 64 65 65 64 65 65 64 64 64 65 64 64 64 63 63 62 62 62 62 62 61 61 60
26 30 32 34 43 41 39 38 39 40 40 40 39 38 40 41 42 40 40 37 36 41 51 59 63 64 64 65 64 65 64 65 65 65 65 64 63 63 63 63 63 64 63 62 62 62 61 61 61
32 30 32 37 42 40 38 39 39 37 38 38 39 39 39 41 41 41 38 36 37 37 42 48 55 62 62 64 64 64 65 65 65 66 65 65 65 65 65 65 65 65 64 64 63 63 62 61 62
30 28 32 31 39 38 37 36 37 37 37 39 37 36 37 39 40 40 38 36 40 40 42 44 47 48 50 55 56 56 55 56 59 62 64 54 54 57 61 63 64 65 65 64 64 64 62 61 62
30 31 33 35 34 27 34 18 30 35 36 36 37 37 37 41 41 39 37 37 39 43 47 46 46 45 45 45 45 47 49 48 47 47 48 48 51 52 52 53 54 57 60 61 62 63 63 62 61
31 34 32 33 28 28 30 27 21 31 32 33 35 36 37 37 40 38 37 39 42 47 48 47 46 46 47 46 45 45 44 45 45 46 48 49 51 51 51 51 53 53 55 57 57 57 59 61 60
34 32 32 32 29 28 25 25 21 25 28 30 32 34 37 37 37 38 38 41 44 48 48 48 46 46 47 48 47 47 47 46 47 48 49 49 51 51 49 49 50 52 53 54 56 56 57 58 59
33 31 29 27 29 22 27 27 23 26 28 28 29 30 34 36 37 38 38 41 44 46 47 46 45 45 46 47 47 48 48 48 48 48 48 48 48 49 48 48 48 48 49 51 54 55 56 58 59
32 28 26 18 20 19 26 24 22 27 28 28 29 29 29 30 32 36 37 41 44 45 46 44 44 45 45 45 46 46 46 47 46 45 45 44 44 44 44 45 45 45 46 48 51 54 56 57 56
32 31 25 25 22 23 22 24 25 22 24 22 24 27 29 30 32 32 35 40 43 44 44 44 43 44 44 44 43 43 43 44 43 43 43 42 42 40 41 42 43 44 44 46 48 51 53 53 52
33 29 28 33 24 17 17 18 15 21 22 22 22 24 25 31 34 35 37 42 43 43 44 43 42 42 42 42 41 41 40 41 41 41 41 40 40 40 40 41 41 42 42 44 46 48 48 49 49
32 31 31 27 27 19 15 14 21 22 23 23 26 29 31 33 37 38 40 42 43 43 43 42 41 42 41 41 40 40 39 40 39 40 39 39 39 39 39 39 39 40 40 41 43 44 45 45 45
35 31 29 28 27 26 24 19 23 22 23 26 30 32 34 36 39 40 41 43 42 42 42 41 41 40 40 40 39 39 39 39 39 39 39 39 39 39 39 38 38 38 39 40 41 41 41 42 42

GFSSGP_sfc_dewp_075.txt.gz
Dewpoint
64 56 52 49 37 31 28 30 30 29 29 31 32 33 41 44 37 49 59 59 62 65 68 71 75 75 74 73 73 72 71 71 70 69 69 70 69 69 67 66 67 67 68 68 68 68 68 67 66
60 51 49 40 32 25 26 28 30 30 31 36 38 38 43 48 55 59 59 60 62 65 68 69 75 75 74 73 72 72 71 70 70 69 69 70 70 69 67 65 66 67 67 67 68 68 68 67 67
58 50 41 33 28 24 25 28 28 35 36 36 36 47 46 55 57 56 59 60 63 65 66 71 75 75 74 73 73 72 70 69 68 68 68 70 70 69 67 65 66 67 67 68 67 67 67 67 67
52 47 42 31 27 25 24 29 35 34 33 38 37 40 56 60 57 58 61 60 63 64 66 73 75 75 74 74 74 71 70 69 68 68 68 69 71 69 67 66 66 66 66 67 67 67 67 68 68
54 43 33 32 29 25 30 36 38 32 34 37 41 47 55 62 62 62 61 60 62 62 69 71 74 74 74 73 72 71 70 69 69 68 68 69 71 69 67 66 66 66 66 66 66 66 66 67 68
50 41 33 30 28 29 33 38 36 34 33 38 42 49 58 64 63 62 61 61 61 63 67 70 73 73 73 72 71 70 68 69 70 69 69 69 71 69 68 67 66 66 66 66 66 66 66 65 66
50 40 35 31 28 34 35 40 36 35 32 44 47 47 59 63 66 63 61 61 61 66 67 68 69 70 71 71 70 70 70 70 71 71 71 72 71 70 68 67 66 66 66 66 65 65 65 64 64
48 45 36 33 30 34 38 40 42 39 37 50 53 46 56 63 68 68 63 61 61 65 66 68 68 67 66 65 69 69 70 70 71 71 71 69 68 69 69 68 67 66 66 66 66 65 65 64 63
50 46 40 35 36 35 41 37 42 43 41 44 48 55 58 65 67 67 66 64 61 65 67 68 66 65 64 64 65 66 68 69 68 68 68 66 63 64 65 66 67 67 65 65 66 66 64 63 63
49 46 38 37 35 37 37 38 40 39 40 42 44 51 62 65 66 65 65 65 64 65 66 66 65 64 65 63 64 62 57 63 62 61 62 61 61 63 64 65 66 66 66 66 66 66 65 63 57
47 43 42 38 42 37 41 41 43 38 39 42 42 48 61 65 65 65 65 64 64 65 65 66 66 65 65 63 64 62 61 57 57 58 59 57 58 61 61 62 63 64 65 63 64 64 62 58 57
43 44 44 46 42 41 41 39 39 42 43 43 43 49 58 63 64 64 64 64 63 65 66 65 65 67 65 64 63 61 61 61 60 61 60 59 58 58 55 55 56 58 57 58 60 58 57 56 56
43 40 43 49 44 40 41 39 42 42 44 43 43 46 56 61 63 63 63 64 63 64 65 65 64 64 66 65 63 61 61 62 61 62 61 60 59 58 57 55 54 54 54 56 57 58 56 55 54
35 38 43 45 45 40 40 40 42 41 42 42 41 42 49 58 60 61 62 63 65 63 64 65 65 66 64 64 64 63 61 61 62 62 63 61 61 60 59 58 55 54 55 57 58 58 58 58 58
36 35 39 45 48 44 42 40 40 37 42 40 40 40 44 45 53 59 61 63 63 64 64 65 64 64 65 64 65 62 62 61 62 63 63 62 62 62 61 60 60 56 57 58 58 58 59 59 59
36 36 37 38 41 44 42 36 40 38 40 41 41 39 41 43 43 44 56 60 62 63 62 64 63 63 62 63 65 64 62 62 63 63 63 63 62 63 63 62 62 62 60 60 60 60 60 60 59
37 29 32 33 39 42 42 34 37 40 39 39 40 39 39 42 43 41 41 52 61 63 63 64 64 63 63 63 63 63 63 63 63 63 63 64 64 63 63 62 62 61 62 62 61 61 61 61 60
28 26 29 28 38 39 40 38 41 41 42 40 39 39 39 41 42 41 41 40 48 61 63 64 65 64 63 63 63 64 64 64 63 63 63 64 64 64 64 63 62 62 62 62 62 62 62 62 62
21 22 26 27 35 39 38 38 39 40 41 41 40 39 38 39 42 42 41 39 37 50 60 63 64 65 64 64 64 64 63 64 65 65 65 64 64 64 64 63 63 63 63 63 63 63 62 62 63
26 23 28 31 37 39 35 34 37 37 38 38 37 37 38 38 40 42 41 40 37 37 50 56 61 63 64 64 65 66 65 64 64 65 65 65 64 65 64 64 64 64 65 64 63 63 63 63 63
26 22 30 31 36 38 33 31 34 37 38 36 35 37 37 38 38 40 41 40 39 39 41 47 52 59 61 63 64 62 60 61 62 64 64 60 57 60 61 62 63 65 65 64 64 64 63 62 62
27 26 28 29 34 28 32 19 25 32 35 35 35 37 36 37 39 39 42 40 39 41 47 45 47 48 50 52 56 58 59 58 55 54 53 51 51 52 52 53 55 56 59 61 62 62 63 62 60
26 30 30 33 32 24 29 26 21 28 32 34 33 35 36 36 37 40 42 42 41 46 49 47 46 46 47 47 46 47 47 48 46 45 47 47 50 50 51 51 52 52 54 55 56 57 57 58 58
34 31 31 30 26 26 25 23 18 20 24 26 29 32 35 35 36 38 42 41 42 49 50 50 46 46 47 47 47 47 48 46 47 48 48 49 50 51 50 50 50 51 52 53 55 56 56 56 56
32 29 28 25 28 23 24 21 20 24 26 27 27 29 30 33 35 36 39 40 43 48 49 48 46 46 47 47 47 47 48 48 47 48 48 48 47 49 48 48 48 48 49 49 51 54 55 55 57
30 26 24 16 18 17 25 23 20 25 25 28 29 29 30 30 33 35 39 41 43 47 47 46 46 45 45 46 46 47 47 47 46 46 46 45 45 45 45 45 46 45 46 47 48 52 54 55 55
32 32 26 24 22 20 21 21 23 21 24 24 24 26 30 30 31 31 34 39 41 45 46 45 44 44 45 45 44 44 44 45 45 44 44 43 43 41 41 43 43 44 44 45 46 49 51 53 52
32 31 26 31 23 14 16 15 15 20 22 23 24 26 27 27 29 33 33 36 41 44 45 44 44 43 43 43 43 42 42 42 42 42 41 41 40 40 41 41 41 42 42 43 45 47 49 49 49
31 29 29 27 26 20 12 13 19 23 24 26 28 30 31 32 33 35 37 39 42 43 44 43 43 43 42 42 41 41 40 40 40 40 40 40 40 40 40 40 40 40 40 41 43 44 45 46 46
35 29 26 27 24 24 25 19 20 22 24 27 30 31 32 35 36 37 39 41 42 43 43 42 42 42 41 41 40 40 40 40 40 40 40 39 39 40 39 39 39 39 39 40 41 42 42 43 43

GFSSGP_sfc_dewp_078.txt.gz
Dewpoint
63 61 59 53 45 38 32 28 34 37 38 43 39 34 42 53 49 51 58 62 68 68 70 72 74 74 74 73 72 72 72 72 71 70 69 69 68 67 67 67 68 69 69 69 68 68 67 67 67
58 58 52 49 36 29 27 29 34 34 35 37 38 41 49 54 57 56 58 63 67 68 69 70 75 75 74 73 72 72 71 70 70 70 71 70 68 66 66 66 67 68 68 67 68 68 67 67 67
56 56 47 41 35 29 27 29 32 35 36 38 38 45 57 58 56 57 60 62 66 68 68 72 74 74 74 73 73 71 70 70 69 70 71 70 68 66 66 67 67 67 67 67 68 68 68 68 68
53 52 47 35 30 30 28 30 35 35 33 36 36 48 60 62 56 59 59 63 65 65 71 74 74 74 74 74 73 71 69 68 69 70 70 71 69 66 66 67 67 68 68 67 67 67 68 68 68
55 52 38 36 32 29 28 36 38 34 32 36 44 52 59 63 63 60 59 63 64 69 71 73 74 74 74 74 72 71 69 69 69 69 69 72 69 67 66 66 67 67 67 67 67 67 67 68 68
52 49 35 32 32 30 35 37 36 34 34 42 43 56 61 64 64 60 59 62 66 69 70 72 73 73 73 72 72 71 70 70 70 70 71 71 69 68 67 67 66 66 66 66 66 66 66 66 67
51 45 39 33 31 30 37 39 35 33 32 43 44 46 62 64 66 64 59 62 66 67 69 71 71 71 71 71 70 70 71 71 71 71 71 72 70 69 68 67 67 67 66 66 66 66 65 65 64
52 49 39 37 31 34 38 40 43 40 43 51 51 47 59 63 67 67 64 63 65 67 68 68 68 68 67 67 69 70 70 71 72 71 71 69 68 68 69 68 68 67 67 67 66 65 65 64 63
52 46 41 39 38 37 39 39 43 42 45 45 51 57 63 66 67 66 65 62 64 66 67 67 67 66 65 64 66 68 69 69 69 69 68 67 65 66 66 66 67 67 67 66 66 65 64 65 63
49 45 42 41 41 39 40 39 39 41 42 44 49 61 63 66 65 65 64 63 65 66 68 68 66 64 63 63 62 62 67 66 65 66 66 65 63 65 65 65 66 67 67 67 66 67 66 65 60
47 43 43 44 46 44 38 43 43 39 41 42 42 57 63 65 65 64 65 63 64 66 68 67 66 64 64 63 63 58 59 62 62 62 62 61 63 64 64 65 64 65 65 64 66 65 65 61 59
44 46 45 47 50 46 42 41 41 43 43 43 43 58 62 64 65 65 65 64 65 65 67 67 67 65 65 64 64 62 61 59 58 60 59 58 57 58 59 61 63 63 63 62 63 62 62 58 57
45 45 45 46 48 48 47 40 40 43 43 43 43 55 61 63 64 64 64 65 65 66 66 67 67 67 66 64 64 62 61 61 61 61 61 60 59 58 57 55 55 56 55 55 58 58 57 55 54
41 40 44 45 45 45 47 41 42 41 43 41 41 47 57 61 63 62 63 64 65 64 64 66 66 66 66 65 64 63 62 61 62 62 62 61 61 59 58 58 56 54 55 56 58 58 58 58 58
34 40 45 46 45 44 49 47 40 42 42 41 41 43 46 50 57 61 62 63 65 65 65 65 66 67 65 65 65 63 63 62 62 63 62 61 62 62 59 59 58 55 56 56 58 58 59 59 59
36 38 38 43 44 45 46 36 39 40 41 40 40 40 43 44 47 54 61 63 63 64 65 65 65 65 65 65 65 64 63 62 63 63 63 62 62 63 63 62 62 62 59 60 60 60 60 60 60
39 33 32 37 42 42 44 40 39 40 40 40 41 41 40 43 44 42 51 57 62 63 63 64 64 63 63 65 65 64 63 62 63 63 63 63 63 63 63 62 62 62 62 62 61 61 61 61 60
31 30 31 30 40 39 41 40 40 40 39 37 39 40 40 40 43 43 41 44 51 62 63 65 65 63 63 64 65 64 63 64 64 64 63 64 64 64 64 63 63 62 62 62 62 62 62 61 62
29 28 26 28 36 38 37 39 40 41 41 41 39 40 40 40 42 42 41 40 39 50 62 64 64 65 64 64 63 63 63 64 65 65 65 65 64 64 64 64 63 63 62 62 63 62 62 61 62
35 27 26 30 40 40 37 36 37 40 41 42 41 40 40 40 40 41 41 39 39 40 55 61 63 64 64 65 65 65 65 65 66 66 65 63 64 65 65 65 65 65 65 65 64 64 63 63 62
36 29 28 35 37 39 36 33 33 37 37 38 40 40 40 39 39 41 41 40 38 37 44 55 57 62 64 64 63 62 61 62 62 65 64 56 57 59 59 60 62 63 64 63 63 63 62 61 62
31 31 30 33 35 31 35 23 30 30 35 37 37 37 36 37 38 38 42 41 39 40 44 44 50 52 53 55 60 59 59 60 55 56 53 51 51 52 52 53 53 53 56 58 61 61 61 59 58
32 31 33 35 34 30 32 27 24 29 31 35 37 36 36 38 38 38 42 41 41 47 47 46 47 48 48 48 51 53 48 47 46 47 48 49 51 51 51 51 51 52 54 54 55 55 56 57 55
34 34 35 35 32 24 26 25 21 24 29 32 34 35 35 37 37 39 42 42 43 49 49 48 47 47 47 47 46 46 46 46 46 48 48 49 51 51 50 50 50 50 51 51 52 54 54 54 54
34 34 27 23 22 21 24 23 23 24 26 27 28 29 31 35 37 38 42 41 45 48 49 48 47 46 47 47 47 48 48 46 47 48 48 48 49 49 47 48 47 47 47 48 49 51 53 54 54
32 28 25 16 19 21 24 22 21 25 27 28 29 29 30 30 30 37 40 42 44 48 49 47 46 46 47 47 47 48 48 48 47 46 46 45 44 45 44 44 45 45 45 46 47 49 51 53 54
32 31 28 26 21 22 23 23 22 24 25 25 26 27 29 31 31 31 33 42 45 47 48 46 46 45 46 46 45 45 45 45 45 44 44 43 42 41 41 42 43 43 44 45 46 47 49 50 52
36 32 26 28 17 14 19 19 19 19 21 23 26 28 29 27 27 32 33 38 42 46 46 45 45 45 45 44 44 43 43 42 42 42 41 41 40 40 41 41 41 41 42 43 44 46 48 48 49
32 34 30 27 26 22 16 16 21 23 25 28 30 31 33 34 33 34 35 36 40 45 45 44 44 44 43 42 41 41 41 40 40 40 40 40 40 40 40 39 39 40 40 41 42 43 44 45 46
36 31 29 26 24 25 24 22 22 25 27 29 31 30 31 35 37 37 38 40 42 43 44 43 43 42 43 41 41 41 40 40 40 40 40 39 39 39 39 39 38 39 39 40 40 41 42 42 42

GFSSGP_sfc_dewp_081.txt.gz
Dewpoint
63 59 61 52 42 40 34 30 32 38 39 42 40 37 49 55 53 48 63 69 70 71 72 73 74 74 74 72 72 72 72 72 71 71 68 67 67 68 68 69 70 70 68 67 68 67 68 68 68
60 57 53 48 39 30 27 31 34 37 36 40 42 45 54 54 56 58 66 69 69 70 71 73 74 74 74 72 71 71 71 71 72 71 69 67 66 67 67 68 68 68 67 67 67 67 67 67 67
56 56 47 43 36 31 28 27 36 38 35 38 45 53 60 58 57 58 67 68 69 69 71 73 74 74 73 72 71 71 70 70 71 72 71 67 66 67 67 68 68 67 67 67 68 68 68 68 67
54 55 50 38 33 33 31 35 35 39 34 35 47 52 62 65 64 60 67 68 68 68 72 73 74 74 73 73 72 70 69 69 70 72 70 68 66 67 67 68 68 67 68 67 68 68 68 68 67
55 52 42 38 37 31 31 36 36 36 33 36 50 56 60 65 67 63 66 67 68 71 72 73 74 74 74 73 72 71 69 69 70 71 70 68 66 66 67 67 67 68 67 67 67 68 68 68 67
50 51 36 35 34 34 35 37 34 35 33 38 52 57 61 67 67 66 65 68 70 71 72 72 73 73 73 72 72 71 70 69 70 71 71 69 67 66 67 67 67 67 67 67 67 66 67 67 66
48 45 39 33 32 33 37 39 35 35 36 46 50 54 61 64 68 68 67 70 70 71 71 72 71 71 71 71 71 71 71 71 71 72 71 70 69 68 67 67 67 66 67 66 66 66 65 65 64
51 47 40 38 32 34 39 41 43 40 45 50 52 54 52 62 68 68 68 68 69 70 70 70 70 69 68 68 70 70 70 71 71 71 70 69 68 68 68 68 68 67 67 66 66 65 65 64 63
53 44 39 39 39 38 39 40 42 42 45 51 56 59 61 65 66 66 66 67 68 69 69 68 67 66 65 67 68 69 70 70 70 69 67 67 67 67 66 66 67 68 67 67 66 65 64 64 63
48 44 40 42 44 38 39 39 39 42 45 54 59 61 65 65 63 63 65 65 66 67 67 67 66 65 64 62 66 67 67 68 68 69 67 66 64 65 66 65 66 67 67 67 67 66 66 64 60
47 44 45 47 50 47 42 42 42 41 42 43 58 61 64 63 62 62 64 65 65 67 67 67 66 64 63 60 62 64 66 66 66 67 66 65 64 65 65 64 65 64 64 64 66 65 65 62 61
44 46 46 48 50 49 44 43 43 42 42 43 58 63 64 64 64 61 64 65 65 66 67 67 65 65 63 62 61 58 64 63 62 63 62 60 62 63 63 63 63 63 64 63 63 63 62 62 60
42 45 47 47 50 48 48 46 43 42 42 44 60 61 62 62 64 64 63 65 65 65 67 67 66 66 65 63 63 59 58 59 59 60 60 58 58 57 57 60 62 62 61 61 62 61 60 57 55
44 44 45 47 47 49 46 47 43 42 42 42 58 59 61 62 63 63 63 64 65 65 66 67 67 66 66 64 64 64 61 61 61 61 61 60 59 58 58 56 55 54 54 54 56 58 58 57 58
43 40 42 44 46 46 47 45 43 41 42 41 46 56 59 60 62 62 62 63 65 66 66 66 66 67 66 66 64 64 63 62 62 62 61 61 61 60 58 58 58 54 55 55 57 58 58 58 59
40 40 38 41 47 48 46 40 44 43 41 40 41 44 46 49 57 59 62 63 65 65 66 66 67 67 67 66 65 64 64 62 63 63 62 61 62 62 60 60 61 59 56 58 59 59 59 59 59
38 35 38 40 45 46 44 40 41 46 41 40 41 41 43 44 45 53 59 63 64 64 65 65 66 66 66 66 66 65 64 62 63 63 63 62 62 63 63 62 62 62 62 60 60 60 61 60 60
33 33 35 36 42 43 42 40 41 44 42 40 41 41 40 43 42 43 46 52 62 64 64 65 65 65 65 66 66 66 64 63 63 63 63 63 62 62 63 63 62 62 61 62 62 61 62 61 61
34 32 31 34 42 40 37 36 38 41 42 38 38 39 40 40 42 41 41 42 50 60 63 64 64 64 64 64 64 64 63 63 64 66 65 64 64 64 64 64 63 64 63 62 63 63 62 61 61
36 30 29 34 41 38 35 35 39 40 42 41 41 40 40 40 41 41 39 39 38 49 60 63 64 64 65 65 65 64 65 65 65 65 62 63 64 64 64 64 65 65 64 64 64 64 63 62 62
36 30 30 32 39 41 39 37 38 38 40 41 42 42 41 40 40 40 40 38 37 38 54 59 63 64 65 65 64 62 63 62 63 64 61 55 58 58 58 59 61 62 63 63 63 63 62 61 61
34 34 33 35 36 32 37 30 33 35 38 40 40 40 41 41 41 40 41 40 37 37 45 54 57 60 62 63 62 61 61 60 59 60 53 53 52 52 52 53 53 53 54 54 56 57 58 57 57
35 37 32 35 35 31 34 29 27 29 33 37 37 37 37 37 38 39 41 40 39 39 42 47 50 51 56 55 60 60 54 51 47 49 49 50 51 51 51 51 51 52 53 53 54 54 55 55 54
39 36 37 37 34 27 30 28 23 26 30 33 36 38 37 37 38 37 41 42 41 46 46 46 47 47 48 51 50 54 46 45 46 47 48 50 51 50 49 50 49 49 50 49 50 51 52 53 53
38 32 29 27 27 23 26 24 24 25 26 30 34 35 33 35 37 38 41 41 47 47 47 47 46 46 47 46 46 46 45 45 46 47 49 49 50 49 47 47 46 46 46 47 48 48 50 52 52
36 33 24 19 21 20 24 22 21 25 27 29 29 29 30 30 30 35 41 41 45 47 48 47 46 46 47 47 47 48 48 48 48 48 47 46 46 45 44 44 45 45 45 45 46 47 49 51 52
34 32 27 25 21 22 23 24 21 26 26 27 27 28 28 29 30 31 38 41 45 47 48 46 46 46 47 47 47 46 46 45 45 44 44 43 42 41 42 42 42 43 43 44 44 46 48 48 50
34 32 24 24 17 16 21 20 19 20 22 28 29 30 31 31 30 32 35 42 46 47 47 46 46 46 46 45 45 45 44 44 43 43 42 41 40 41 41 41 41 41 41 42 42 45 46 46 47
32 33 30 27 25 21 15 16 21 22 28 29 31 32 32 33 34 34 35 35 44 46 46 45 45 44 44 43 42 42 42 42 41 41 40 40 40 40 40 39 39 39 40 40 41 42 43 44 45
36 33 31 24 23 23 22 19 23 27 29 31 31 31 32 35 36 36 37 39 44 45 45 44 44 43 42 42 41 41 40 40 40 40 39 40 40 39 39 38 39 39 39 40 40 41 41 41 41

GFSSGP_sfc_dewp_084.txt.gz
Dewpoint
62 59 58 52 42 40 34 31 34 40 45 42 41 43 54 55 50 45 66 68 70 71 72 72 74 73 73 72 71 72 71 71 70 68 67 69 70 70 70 70 68 67 68 67 68 68 68 68 68
60 56 56 47 40 33 30 32 30 36 42 44 45 52 56 54 57 65 67 70 71 71 72 72 74 73 73 72 71 72 72 71 71 67 66 67 68 69 68 67 67 66 67 67 68 68 68 68 69
56 57 49 43 39 32 28 29 29 35 39 47 46 58 59 60 61 63 68 70 70 71 72 72 73 73 72 71 71 71 71 71 71 68 66 67 67 68 67 67 66 67 67 67 67 68 68 68 68
54 54 52 38 36 34 30 32 31 39 42 40 49 53 61 65 65 66 68 69 70 71 72 73 73 73 72 72 71 70 71 71 70 68 66 67 67 67 67 67 68 67 68 68 68 68 67 68 69
55 52 43 39 39 33 33 32 37 38 40 42 48 56 58 63 66 68 68 67 69 71 72 72 73 73 72 71 71 71 70 71 71 69 66 67 67 67 68 68 68 67 67 68 68 68 68 68 67
50 50 39 37 37 36 33 31 35 34 35 48 53 54 58 66 66 68 67 68 71 71 72 72 72 72 72 71 70 70 71 71 72 70 67 66 67 67 67 68 68 67 67 67 68 68 67 66 66
48 45 39 36 34 35 34 37 33 33 34 44 56 54 61 62 65 68 68 70 71 71 71 71 72 71 71 71 71 70 70 71 72 71 70 68 68 67 67 67 67 67 67 67 66 66 66 65 63
51 47 40 36 33 34 38 41 42 39 46 49 54 53 58 61 67 68 69 69 70 71 70 70 69 69 69 69 70 70 70 71 71 71 69 68 67 67 68 68 68 67 66 66 66 65 64 63 62
53 44 39 38 34 35 39 39 42 44 47 53 57 57 59 63 64 66 67 68 69 69 69 69 67 66 66 67 69 70 70 69 69 69 67 67 66 66 66 66 67 68 67 66 66 65 64 64 63
48 42 41 42 43 38 41 39 39 45 52 57 60 63 63 59 61 63 65 65 67 67 68 68 66 65 65 67 67 67 69 68 68 68 66 66 65 65 65 65 66 68 68 67 66 66 66 63 59
47 42 43 46 51 49 44 42 42 43 42 50 58 60 63 62 61 60 62 64 66 67 67 67 65 64 62 65 65 66 66 67 67 67 66 65 64 64 65 64 64 64 64 64 65 64 64 61 60
45 45 45 48 50 49 48 47 42 42 42 51 60 62 63 61 60 61 62 65 66 66 67 66 65 64 61 62 64 65 65 65 65 66 66 64 63 63 63 62 63 62 63 62 62 62 62 62 61
43 45 46 50 50 48 48 46 42 42 43 53 61 62 62 62 63 62 62 63 62 60 62 66 65 64 61 60 60 61 63 64 64 63 63 61 63 63 62 62 62 61 62 62 61 62 61 61 61
42 46 45 49 48 48 46 47 44 42 44 57 59 60 62 62 63 63 60 62 59 58 63 67 65 64 63 62 62 57 59 61 61 61 62 58 60 59 58 57 60 61 59 61 57 61 59 57 57
43 43 46 45 46 47 47 44 42 44 42 54 55 56 60 61 63 63 63 62 63 63 65 67 67 66 65 64 63 63 60 59 60 60 61 60 59 58 58 57 56 54 54 53 56 57 58 58 58
39 42 39 44 47 49 43 40 44 46 43 42 48 52 55 58 60 61 62 63 65 65 66 67 68 67 66 65 65 64 63 62 61 61 61 61 61 60 59 59 60 57 54 56 57 58 58 59 59
39 35 36 40 43 46 42 37 43 46 44 40 41 44 45 46 50 57 62 63 64 64 64 66 67 67 67 67 66 65 64 62 62 63 62 61 61 62 61 60 61 61 60 58 59 59 60 60 60
33 33 35 36 43 43 43 42 44 45 45 42 40 41 42 43 43 53 59 62 63 64 65 66 66 66 67 67 67 66 65 62 63 64 62 62 62 62 63 62 62 62 61 62 61 61 61 61 61
35 35 34 36 41 40 40 40 42 43 42 42 41 41 40 41 43 43 48 52 60 62 63 64 65 65 66 65 64 64 63 64 65 66 65 63 63 63 62 63 62 63 62 62 62 63 62 62 62
35 31 35 37 42 39 38 38 39 43 40 41 40 39 39 40 40 42 40 42 53 60 62 63 64 64 65 65 65 64 64 64 65 65 64 65 65 65 64 63 64 64 64 64 64 63 62 62 62
36 34 32 36 40 40 38 36 37 38 39 41 41 40 40 40 40 41 40 39 39 51 59 63 63 64 64 65 64 63 63 63 63 62 60 61 61 61 61 61 61 61 62 61 60 61 61 59 59
32 35 34 36 36 34 41 30 33 36 37 38 40 41 42 42 41 41 40 39 37 37 53 61 63 64 64 64 63 62 62 61 62 63 57 57 57 55 54 54 53 53 54 54 55 56 57 57 56
35 38 34 37 36 34 37 29 27 31 33 36 39 40 40 41 42 42 41 41 40 38 40 55 59 61 61 62 62 62 60 59 55 55 54 53 53 51 51 51 52 52 52 52 53 53 53 54 54
40 37 36 38 37 30 31 27 25 26 30 33 37 39 39 39 39 38 40 42 41 39 42 49 53 55 58 58 61 60 58 53 54 54 53 53 53 50 50 50 49 49 49 49 49 50 50 52 52
39 32 26 28 27 23 28 30 28 25 28 32 34 37 38 38 38 38 39 42 42 43 44 46 48 48 50 54 54 57 53 52 51 50 51 52 50 49 47 47 47 46 46 46 47 47 48 49 51
36 31 25 21 23 21 27 27 23 25 26 29 32 35 30 30 33 36 39 41 44 45 46 46 46 46 46 46 47 49 49 49 50 49 49 49 49 47 45 45 45 45 44 45 45 46 47 49 50
35 29 28 24 22 20 22 23 22 26 26 27 27 27 27 28 31 32 40 41 44 45 46 46 46 46 47 47 48 47 47 47 47 46 46 45 44 43 43 43 43 43 43 43 44 45 46 47 48
32 33 24 24 17 16 20 21 17 23 22 27 28 30 31 31 31 32 36 41 42 46 46 46 46 46 47 47 46 46 45 45 45 44 43 42 41 41 41 41 41 41 41 41 42 43 45 45 46
31 30 29 26 25 18 17 18 20 22 27 28 30 31 32 33 34 35 35 37 43 45 46 46 45 46 46 45 44 44 43 43 42 42 41 40 40 40 40 40 40 40 40 40 40 41 42 43 44
34 32 28 22 20 21 20 18 24 25 29 30 30 32 37 36 36 36 37 39 42 44 45 45 45 45 44 43 42 42 41 41 40 40 40 40 40 40 39 39 39 39 39 39 39 39 40 41 41

GFSSGP_sfc_dewp_087.txt.gz
Dewpoint
62 60 57 54 42 38 30 31 37 42 48 48 45 50 54 54 47 43 66 68 70 71 71 72 73 73 72 71 71 71 71 70 69 70 71 72 72 72 70 69 68 68 67 68 68 68 68 68 69
59 56 56 49 38 33 31 30 29 40 50 48 46 53 56 54 62 65 67 69 70 71 71 71 73 72 72 71 70 70 70 68 68 69 70 70 70 70 68 67 67 67 67 68 69 69 69 69 69
58 57 52 46 40 30 32 34 27 38 48 48 46 57 59 59 63 65 68 70 70 71 72 71 73 72 72 71 71 70 70 68 67 68 69 69 69 68 67 67 66 67 67 68 68 68 69 69 68
56 55 53 40 37 36 30 33 31 42 44 50 50 49 61 65 64 67 70 70 70 71 71 72 72 72 72 72 71 71 71 69 66 67 67 68 67 66 67 67 67 67 68 68 68 68 68 69 68
56 52 44 41 38 35 33 32 32 39 42 47 49 49 59 64 67 68 69 70 69 71 71 71 72 72 71 71 71 72 71 69 67 66 67 67 67 67 67 68 67 67 68 68 68 68 68 68 67
49 50 42 38 36 38 35 33 34 36 41 44 50 54 59 65 67 68 68 69 70 70 71 71 71 71 71 70 70 71 72 71 68 66 67 67 68 67 67 67 67 67 67 68 67 67 67 66 65
48 45 41 38 34 36 36 35 33 34 38 46 52 52 60 63 65 67 69 70 70 71 71 71 70 71 71 70 70 70 71 71 70 68 67 68 68 68 67 67 67 67 67 67 67 67 66 64 63
48 48 39 37 35 35 35 40 41 35 40 53 56 54 56 61 67 67 69 70 70 69 70 70 69 70 69 69 70 70 70 71 70 69 68 67 67 67 68 68 68 67 67 66 66 65 64 63 62
50 43 39 38 35 35 38 39 41 46 48 53 56 57 59 63 65 66 67 68 68 69 69 69 68 68 67 68 69 69 70 70 70 68 67 66 65 66 66 66 67 68 67 66 65 64 63 64 62
45 40 39 41 39 36 40 39 41 48 54 56 60 60 60 64 63 65 64 66 66 67 68 68 66 65 66 68 67 67 68 68 69 67 65 65 64 64 65 65 66 68 67 67 66 65 65 63 59
43 40 41 44 50 48 43 43 44 47 46 54 57 60 61 62 61 64 64 65 65 67 68 67 65 64 64 66 66 66 67 67 67 66 65 64 64 63 63 63 64 63 64 63 64 63 63 60 60
40 41 43 47 50 48 47 48 42 42 43 49 59 60 59 59 60 60 61 63 65 63 62 64 64 63 62 66 65 66 66 65 66 66 65 63 63 62 63 62 62 62 62 61 61 61 61 61 60
41 38 45 49 49 47 48 46 45 42 44 61 62 60 58 59 60 61 61 60 62 61 62 63 61 65 60 64 64 65 65 65 65 66 65 64 63 62 62 62 61 61 61 61 60 61 61 60 60
42 42 43 48 48 48 46 46 45 43 47 58 60 61 61 60 61 62 62 62 60 57 59 62 61 65 62 61 62 63 63 64 64 64 65 63 63 63 62 61 61 61 61 61 60 59 61 60 57
39 39 42 46 46 47 47 44 42 45 44 55 57 58 60 60 62 61 62 60 59 59 60 60 60 65 65 62 60 60 62 62 62 62 62 61 60 61 61 59 57 60 59 56 56 56 58 58 58
39 40 35 44 46 46 44 40 45 47 42 48 51 54 58 61 62 61 61 59 58 58 58 58 62 67 67 66 64 62 59 59 60 61 61 61 59 59 58 57 57 56 54 54 55 57 57 58 58
36 34 35 39 44 44 42 41 43 45 44 41 43 47 49 53 58 61 61 61 60 58 59 60 62 66 66 67 67 66 65 61 60 62 61 61 61 60 59 59 59 60 57 56 57 58 59 59 60
32 34 36 36 43 42 39 39 44 45 44 43 41 41 42 44 45 54 61 63 64 63 64 64 66 66 66 66 67 67 66 65 63 62 62 61 61 62 61 61 60 61 61 61 61 60 61 60 61
32 35 35 39 43 40 38 39 40 44 43 41 42 41 40 43 43 44 58 60 62 63 64 65 65 65 65 65 65 65 65 65 64 64 63 62 62 62 62 62 62 62 61 61 62 62 62 62 62
34 33 34 38 41 39 39 38 40 43 44 41 41 41 41 40 40 42 42 47 58 61 63 63 63 64 65 66 65 65 65 65 65 65 65 65 64 63 63 63 63 63 63 64 63 62 62 61 60
35 33 34 35 39 40 39 36 38 42 44 42 41 41 40 40 40 41 41 40 41 53 60 62 64 64 65 65 64 63 63 63 63 63 63 63 64 64 64 63 63 62 62 62 60 59 59 58 57
33 36 36 38 36 34 40 31 35 36 39 38 38 41 41 41 40 41 41 40 39 39 52 61 63 64 64 64 63 62 62 61 62 61 60 60 59 60 60 59 58 57 56 55 55 55 56 57 56
36 38 36 37 36 36 36 32 27 34 36 36 38 38 41 42 42 42 41 41 41 39 38 55 61 62 63 64 63 63 61 60 60 58 56 55 57 57 57 56 55 54 54 53 53 52 52 53 53
40 37 38 38 37 29 34 31 24 27 31 32 34 38 39 40 41 41 42 42 42 41 39 45 55 59 60 62 62 62 61 58 57 55 55 54 54 55 55 54 52 50 50 49 49 49 49 50 51
39 32 28 26 27 25 31 29 28 30 27 30 31 35 38 39 39 39 39 38 41 41 40 44 51 53 57 57 59 60 59 57 58 57 56 53 52 51 49 48 47 46 46 46 47 47 47 48 49
37 29 26 22 23 21 31 27 27 24 28 29 32 35 33 34 34 36 38 39 41 42 42 44 48 49 49 51 53 56 54 56 55 55 54 53 52 50 47 46 45 45 45 45 45 45 46 47 48
35 26 28 23 22 21 24 22 22 26 25 26 27 27 27 29 32 33 39 40 41 44 44 44 46 46 47 47 47 48 51 49 54 52 51 50 48 45 44 43 43 43 43 43 43 44 44 46 46
35 33 25 26 17 15 19 21 17 24 24 26 28 29 30 31 32 33 35 41 41 44 46 46 45 46 46 47 47 46 46 46 46 46 45 44 42 42 42 42 42 42 42 41 41 42 43 44 45
31 29 28 26 24 17 17 18 21 22 24 27 29 30 32 34 34 35 35 38 43 44 45 45 46 46 46 46 45 45 44 44 43 43 42 41 41 41 41 41 40 40 39 40 40 40 41 41 42
33 30 27 22 20 20 18 18 25 23 28 29 30 31 35 35 36 36 37 39 41 42 44 44 44 45 45 45 44 43 42 41 41 40 40 41 40 40 40 39 39 39 39 39 39 39 39 40 40

GFSSGP_sfc_dewp_093.txt.gz
Dewpoint
59 58 59 56 46 44 39 39 39 44 47 50 47 53 51 55 45 41 65 67 69 70 70 70 72 73 71 71 71 71 71 72 73 73 73 72 72 71 70 69 68 67 68 68 69 68 68 68 68
59 57 57 52 42 36 36 37 36 45 47 50 50 49 55 54 62 64 66 69 69 70 70 69 72 73 71 70 70 70 70 71 72 73 73 73 72 71 69 68 68 69 68 69 68 68 69 69 69
56 56 52 48 42 34 33 33 35 41 50 52 52 53 54 57 63 64 69 69 69 70 70 70 72 72 71 70 70 70 70 71 72 72 72 72 72 69 68 67 69 67 68 69 69 69 69 69 68
56 55 52 42 38 38 35 33 32 42 50 51 52 51 56 64 65 66 69 69 69 70 70 71 72 72 72 72 71 69 69 70 71 71 71 71 70 68 67 68 69 69 70 69 69 69 69 70 68
55 51 43 39 38 40 39 37 35 40 48 50 51 50 53 64 67 68 69 69 68 69 70 70 72 72 71 71 70 68 68 69 69 70 70 69 67 67 67 67 68 68 69 69 69 68 68 68 68
48 49 40 36 36 39 41 37 37 36 47 50 49 50 52 65 67 68 69 68 68 69 70 69 70 71 71 71 71 69 67 67 68 69 68 67 68 67 66 67 67 67 68 69 68 68 67 67 66
44 42 36 34 34 35 40 41 37 34 45 50 51 49 57 63 66 68 69 68 68 69 69 69 69 70 70 71 70 70 68 68 68 68 66 67 68 65 66 66 67 67 68 69 69 67 66 65 64
47 42 34 36 34 35 40 41 38 34 36 50 52 51 54 62 65 67 69 68 69 69 69 69 68 68 68 68 70 70 68 68 68 66 68 66 65 64 65 67 67 67 68 68 67 66 64 63 63
47 38 33 33 36 36 40 40 42 41 40 50 52 52 59 62 62 64 66 67 67 67 68 68 67 67 67 67 68 69 69 68 67 67 66 65 64 64 64 66 67 68 67 66 66 65 63 62 62
41 36 32 34 37 37 39 40 41 42 43 50 54 61 61 60 60 59 59 64 65 66 67 67 67 67 66 66 68 69 69 66 65 65 65 65 65 65 65 65 66 67 67 66 65 64 64 61 59
37 34 34 34 36 43 42 41 42 42 43 48 51 59 60 59 59 59 58 59 63 66 65 66 66 67 67 67 67 68 69 69 66 64 64 64 65 65 65 65 65 65 64 64 64 63 62 60 60
34 35 36 38 39 42 41 47 44 45 43 48 55 58 58 58 58 59 59 59 60 63 63 64 65 64 65 67 67 67 68 69 67 65 64 64 63 64 63 63 64 63 63 62 62 61 61 61 61
33 32 36 39 39 42 45 43 45 45 44 47 57 58 57 57 58 59 59 57 61 63 63 63 63 63 63 65 66 66 66 68 68 66 65 64 64 63 63 63 63 63 63 63 61 61 62 62 61
37 35 37 39 39 41 43 42 44 46 48 49 55 58 58 56 57 57 57 57 61 63 63 63 63 62 63 63 65 66 66 66 68 67 66 65 64 63 63 64 63 63 62 62 62 61 61 61 61
34 34 38 38 39 40 43 38 37 46 47 50 53 57 56 56 57 56 55 57 62 62 62 62 62 62 63 64 63 64 66 66 65 67 67 65 64 64 64 64 63 63 62 61 61 61 59 59 59
36 37 33 38 40 40 38 33 42 46 46 49 52 55 57 58 56 55 56 60 63 62 59 58 59 63 64 65 64 63 63 65 65 64 66 67 65 64 64 63 63 63 62 61 60 56 57 58 59
35 30 32 37 39 41 37 35 42 45 45 44 46 50 55 59 60 60 60 60 60 59 57 58 60 63 64 65 65 65 64 64 65 65 63 64 65 64 63 63 63 61 58 58 56 55 57 58 60
29 29 31 33 38 38 37 35 37 44 44 45 44 46 53 57 58 60 60 59 59 59 59 59 60 61 63 66 66 66 66 66 65 64 62 62 63 63 62 61 61 59 57 56 56 56 58 60 60
33 32 32 37 40 37 36 35 39 42 43 44 46 46 49 53 56 60 60 60 59 60 58 58 59 61 64 64 64 64 63 65 66 66 64 62 61 61 61 61 60 60 59 59 58 60 60 61 63
35 33 34 38 38 36 36 35 39 41 43 44 45 44 45 47 51 55 60 60 59 59 59 59 58 60 63 63 63 63 64 65 66 66 66 65 63 63 62 61 61 60 61 62 62 62 62 61 61
34 33 34 34 38 37 35 34 38 41 43 45 45 44 42 42 45 49 56 59 61 59 59 59 59 60 62 64 63 64 64 64 64 65 65 65 65 65 65 64 64 64 64 63 63 62 61 61 60
32 37 34 35 33 30 36 28 34 39 40 42 44 43 41 41 41 43 46 53 57 61 61 60 60 60 61 64 63 62 61 61 62 63 63 62 63 63 64 64 63 62 61 60 59 59 59 60 59
34 38 36 36 36 34 33 31 33 37 36 39 43 43 41 40 42 42 42 44 46 52 58 62 63 62 62 63 63 63 62 62 62 62 60 60 60 61 62 62 61 60 58 57 57 56 55 56 55
40 37 36 36 35 28 32 30 25 31 33 36 42 40 44 42 43 43 44 45 44 46 46 47 58 61 62 63 63 62 62 61 61 61 60 59 57 58 58 58 59 58 56 55 54 53 53 53 53
37 35 28 26 24 24 31 28 27 29 27 30 38 35 41 41 40 41 42 43 44 45 45 43 43 46 56 61 62 62 62 62 61 61 60 57 56 55 54 54 54 52 51 51 50 49 49 49 50
36 33 27 20 21 27 31 28 26 26 28 32 31 32 37 38 38 38 39 41 41 43 44 43 43 46 53 58 59 60 60 60 60 60 59 59 57 55 54 52 50 48 47 47 47 47 47 48 49
35 29 29 23 23 26 25 24 21 27 27 28 29 31 32 33 34 36 41 42 42 44 45 46 44 48 51 54 55 55 55 56 57 57 57 56 56 54 50 47 46 46 46 45 45 45 45 46 48
34 31 25 27 19 17 19 20 19 22 26 28 30 32 33 35 36 37 38 41 44 45 46 46 45 46 47 47 48 48 51 52 54 54 54 52 50 48 46 45 44 43 43 43 43 43 44 44 45
31 28 27 26 24 18 17 17 23 24 26 30 32 34 35 36 36 37 38 39 42 44 45 46 46 46 46 47 46 46 46 48 50 50 49 47 46 44 43 42 42 42 41 41 41 41 42 42 43
34 30 25 23 22 20 20 19 25 27 27 31 32 34 36 37 37 37 37 38 39 41 43 44 45 45 46 46 46 45 45 45 45 45 44 44 43 42 42 41 40 40 40 40 40 40 41 41 41

GFSSGP_sfc_dewp_096.txt.gz
Dewpoint
58 57 57 52 40 38 33 33 36 35 41 44 49 48 50 51 44 46 65 66 64 66 68 69 72 72 72 72 72 72 72 73 73 73 73 72 72 71 69 68 68 68 68 69 70 69 67 68 68
57 55 54 51 38 29 29 32 36 36 39 45 49 50 49 50 59 60 64 67 66 66 68 67 72 72 72 71 71 72 72 73 72 73 73 72 71 70 69 68 68 69 70 69 68 67 69 69 68
55 55 48 41 39 32 27 32 35 36 38 47 48 52 53 52 59 61 66 67 66 66 67 68 72 72 72 71 71 71 71 73 72 72 72 72 71 70 68 69 70 68 70 69 69 69 68 68 66
51 53 50 41 31 32 32 30 33 34 39 45 47 47 54 59 59 65 67 67 66 66 66 71 72 72 72 72 71 71 71 72 72 72 72 72 71 68 68 70 69 69 70 70 69 69 69 68 66
52 48 37 34 31 29 31 34 33 32 35 45 46 44 48 62 60 65 67 66 65 66 66 69 72 72 72 72 71 70 71 71 71 71 71 70 70 68 68 69 69 70 70 69 68 69 69 68 67
45 42 32 28 26 28 31 37 35 35 34 37 46 45 50 59 59 66 68 66 66 66 67 68 70 72 72 70 70 70 70 71 71 71 70 69 69 68 68 68 69 69 70 69 68 68 68 67 67
43 38 31 26 22 23 29 35 37 36 35 36 46 44 50 55 56 65 68 67 66 66 66 68 68 69 70 70 69 69 70 70 70 70 69 70 69 66 68 69 69 69 69 69 68 67 66 66 66
42 41 34 29 25 23 24 32 36 38 36 36 46 43 47 54 59 64 63 68 67 67 65 68 66 64 64 68 69 68 69 69 69 68 68 66 65 66 68 68 69 69 69 69 68 66 64 63 63
42 37 31 28 26 26 26 28 35 40 38 36 42 48 51 58 63 62 61 62 67 67 66 67 64 62 61 65 67 68 68 67 67 66 65 65 61 62 64 65 67 69 68 67 66 65 63 63 63
37 31 27 26 27 27 29 30 32 36 39 40 40 51 60 62 61 60 59 59 59 66 67 66 63 61 63 64 67 64 62 62 61 63 61 60 61 60 61 65 67 68 68 67 65 64 63 60 54
32 32 26 28 29 30 33 33 35 38 37 39 38 43 60 59 59 58 58 58 59 66 66 65 61 61 61 64 67 67 62 59 58 61 61 60 61 63 62 63 63 62 64 59 61 60 56 55 57
30 28 29 29 30 33 32 36 35 37 37 39 41 47 59 59 58 56 56 58 59 60 66 66 63 60 59 64 65 67 67 62 60 58 58 59 59 59 59 58 59 59 58 57 57 55 55 56 58
29 28 26 29 29 31 37 37 38 40 43 43 42 44 53 58 55 54 54 58 60 60 65 66 65 63 63 61 61 65 66 65 63 63 60 58 57 57 58 57 58 58 59 58 57 58 58 58 58
27 27 28 29 29 33 34 36 40 40 46 48 46 45 47 54 55 54 55 55 59 60 63 65 66 65 63 62 62 60 64 66 66 65 64 62 61 59 60 60 61 60 60 59 59 59 60 59 59
32 29 32 32 32 34 35 36 37 39 43 45 47 44 49 54 55 55 54 54 57 61 63 64 64 65 63 62 62 63 61 63 66 66 66 64 63 62 62 63 63 61 60 59 59 59 58 58 59
31 35 31 31 32 35 38 32 31 42 44 45 48 45 49 54 56 55 55 56 58 62 63 63 63 64 64 63 62 63 64 63 63 64 66 66 64 64 64 64 63 61 61 60 58 57 56 56 58
29 32 33 33 34 37 38 32 34 39 38 41 47 47 51 55 56 56 57 58 61 61 62 61 61 60 61 64 64 63 64 64 64 62 63 65 66 65 64 63 63 62 61 60 59 56 55 56 59
30 29 27 29 36 37 37 39 37 37 39 42 46 48 51 53 56 56 56 60 61 61 60 59 60 59 62 64 65 63 63 63 64 65 63 63 64 66 65 63 62 62 60 57 57 55 56 59 60
31 31 29 36 37 36 35 36 36 36 39 40 46 50 53 55 58 59 60 61 60 61 59 58 59 61 63 65 63 63 63 65 64 63 63 63 63 63 64 63 62 61 59 58 57 57 59 59 60
33 30 31 37 39 36 36 36 36 37 37 40 45 49 53 55 55 56 60 59 60 59 59 60 58 59 62 63 62 61 62 65 65 66 65 64 63 63 63 63 62 61 60 60 60 61 61 59 61
32 26 32 33 36 35 35 36 36 38 40 41 45 45 50 53 53 54 56 59 59 59 59 60 59 60 60 63 64 63 64 65 64 65 65 66 65 65 65 64 64 64 63 63 64 63 62 61 62
28 31 32 34 33 29 33 29 35 37 42 43 44 43 44 50 52 53 54 59 60 59 60 60 60 59 60 65 63 61 61 60 62 63 64 63 65 65 64 65 64 63 63 63 62 61 61 61 59
31 36 34 33 32 30 32 32 35 38 38 40 43 44 42 43 46 49 52 57 60 60 60 60 60 60 61 62 63 63 62 62 63 63 62 61 61 62 63 64 62 61 60 60 59 58 58 57 55
40 35 35 36 33 28 33 34 32 31 29 38 41 43 45 42 43 44 45 48 51 53 56 62 61 61 61 60 61 62 61 62 62 62 62 61 60 60 60 61 61 60 59 58 58 58 56 54 55
37 33 30 27 29 26 34 33 27 27 28 31 38 40 43 43 41 42 44 44 45 46 47 45 49 59 61 62 61 62 62 62 61 61 61 61 59 58 59 60 60 60 58 57 56 54 53 53 52
35 33 28 19 22 26 32 29 27 29 30 32 40 36 39 42 43 40 41 42 43 44 45 44 44 44 48 57 61 62 62 63 62 62 62 61 59 60 59 59 58 56 55 54 52 51 50 50 51
34 30 28 26 27 25 26 24 30 30 31 32 33 34 35 36 38 42 42 42 43 45 46 46 44 45 48 53 57 59 60 61 61 61 61 60 59 59 57 57 55 51 49 48 48 46 47 47 49
34 31 27 31 23 20 19 22 26 28 29 32 31 32 34 36 37 38 40 43 44 46 47 46 46 47 48 50 52 53 55 56 58 59 59 58 57 56 54 52 49 47 46 45 45 45 45 45 46
31 28 27 26 24 19 17 20 24 26 29 30 32 34 35 36 37 37 38 40 42 43 45 46 46 46 47 47 47 47 48 51 54 55 56 55 53 51 49 46 45 44 43 43 43 43 44 43 44
34 30 25 26 21 22 21 20 27 26 31 32 34 35 36 35 34 34 35 35 37 40 42 44 45 45 46 46 47 46 47 48 50 51 52 51 50 48 45 43 42 41 41 41 41 41 42 42 42

GFSSGP_sfc_dewp_099.txt.gz
Dewpoint
59 56 53 52 42 37 32 31 29 29 29 36 42 44 44 45 43 47 63 63 63 67 69 70 72 72 72 71 72 73 73 74 73 73 73 72 72 71 70 70 71 70 69 70 68 67 67 67 67
56 51 51 46 37 31 26 27 29 29 33 36 46 47 47 46 55 58 62 64 65 68 68 67 72 72 72 72 72 72 73 73 73 73 73 73 71 70 69 69 70 70 71 70 68 68 68 68 65
53 50 45 39 36 33 27 26 27 28 32 35 41 47 48 48 56 58 64 65 65 68 67 68 72 72 72 72 72 72 72 73 72 73 73 72 71 69 68 69 70 71 69 68 69 69 68 66 64
46 45 44 36 29 29 29 27 25 28 32 33 41 43 51 55 55 61 64 64 65 68 67 71 72 72 72 72 71 72 72 72 72 72 72 72 71 70 70 69 70 69 70 70 69 69 68 66 65
45 42 35 28 29 29 26 27 28 27 31 30 35 41 45 53 55 59 65 65 64 66 68 69 72 72 72 71 71 72 73 72 72 72 71 71 71 69 70 69 69 70 70 69 69 69 68 67 66
41 37 30 25 23 23 24 24 26 28 29 29 31 39 43 50 58 63 66 66 65 66 68 67 70 71 72 71 71 72 72 72 71 71 71 71 70 69 67 67 69 70 70 68 69 69 68 67 66
38 34 27 23 21 20 20 23 24 28 28 29 30 34 42 48 58 66 68 67 68 66 67 67 68 69 70 70 71 71 71 71 71 71 71 70 69 69 69 69 69 70 70 69 68 68 67 67 66
37 34 29 27 24 22 21 19 22 27 28 31 31 32 40 47 57 64 64 65 64 64 67 67 67 66 66 66 69 69 70 70 70 70 68 67 66 68 69 68 69 69 70 69 68 67 66 65 65
37 31 28 25 25 24 23 21 20 25 27 30 32 34 42 57 58 59 61 60 62 62 63 68 67 64 61 60 65 68 68 68 68 67 66 64 62 65 65 66 67 69 70 69 67 65 64 64 63
34 29 27 24 23 23 23 22 22 22 25 30 34 36 41 58 58 58 59 58 59 59 60 61 67 60 59 59 62 60 63 63 62 62 61 59 60 61 62 65 67 68 68 68 66 64 63 61 54
31 29 25 23 23 24 24 24 24 25 25 28 30 35 49 57 58 59 59 59 59 60 61 60 66 61 59 62 61 57 58 58 58 60 60 58 57 61 62 64 64 65 65 62 63 61 57 54 54
26 28 26 27 25 24 25 26 28 30 29 31 30 35 46 56 57 58 58 60 60 61 60 62 67 61 64 63 62 57 54 56 58 60 57 57 58 59 59 60 60 60 59 56 57 56 54 54 55
27 26 26 27 26 26 25 26 31 28 32 36 35 41 49 50 57 57 58 60 61 60 61 60 66 60 62 66 67 60 56 55 55 58 58 58 58 57 57 57 57 58 56 55 55 54 53 52 54
32 30 28 28 27 26 25 24 27 31 34 36 42 44 45 47 53 57 56 58 59 59 60 61 66 60 59 63 65 66 60 57 58 57 56 56 56 57 57 56 57 57 58 57 56 55 56 56 56
34 30 29 29 28 26 25 24 25 29 33 37 40 43 46 45 56 56 54 56 57 58 61 61 63 65 60 59 61 65 66 63 61 62 60 59 59 58 59 59 61 60 59 57 59 56 57 56 56
30 30 27 26 27 30 28 26 26 28 32 35 39 43 45 43 52 58 54 54 55 59 60 63 64 64 64 61 61 59 61 64 65 63 63 62 61 61 61 63 62 61 60 60 58 56 56 55 56
27 26 28 31 32 29 29 30 30 29 37 37 39 42 45 45 48 58 58 55 56 59 61 62 64 62 63 63 61 61 61 61 63 65 65 65 63 63 64 63 63 61 61 60 58 56 54 54 57
24 27 28 35 31 29 30 32 34 38 37 37 41 43 43 44 50 57 58 57 57 60 60 62 62 62 62 63 64 62 63 63 62 62 62 64 64 64 64 63 62 62 62 60 58 56 54 56 57
27 28 28 36 37 29 31 32 31 32 35 37 40 45 43 47 52 57 59 59 59 62 60 59 58 60 62 63 64 62 61 63 64 64 63 61 63 64 64 64 63 63 62 60 57 57 56 59 59
30 28 29 34 36 32 31 30 31 33 34 35 39 41 47 50 54 55 58 59 60 60 59 58 58 61 61 63 64 64 65 65 64 65 64 64 63 64 64 64 64 63 63 61 59 59 61 62 61
30 29 29 34 38 36 34 34 35 37 38 37 40 40 49 51 53 53 56 59 59 59 59 59 60 61 61 61 62 63 64 64 64 65 64 65 65 65 65 64 64 65 64 63 64 64 63 62 63
32 28 31 34 36 31 33 29 35 38 38 39 39 43 51 52 52 53 55 58 59 59 61 61 61 61 61 62 61 61 61 61 62 64 65 65 65 65 65 65 64 64 65 63 63 63 63 62 60
32 30 34 32 30 35 31 29 35 37 38 40 44 46 52 52 52 53 54 57 57 58 59 60 61 61 61 61 61 62 61 61 62 63 63 63 63 64 64 64 64 64 62 61 60 59 59 58 55
37 33 32 33 33 31 35 33 34 35 35 43 42 43 47 51 52 53 54 56 58 59 60 60 60 59 60 61 61 62 60 60 60 62 62 62 62 63 63 64 63 62 61 60 59 59 59 58 57
38 30 30 29 29 28 35 34 33 34 36 41 43 43 43 45 46 47 49 51 54 56 55 57 59 60 60 61 60 60 61 60 60 61 61 61 60 60 61 61 61 61 60 60 60 59 58 55 54
36 35 32 18 25 29 34 30 33 35 37 41 40 41 45 45 44 42 43 45 46 48 48 48 45 47 52 58 61 62 63 61 60 60 61 62 61 60 61 61 61 61 61 59 59 57 56 54 54
32 31 28 26 24 23 30 34 36 38 35 38 36 39 38 40 43 44 43 44 45 46 47 47 46 45 47 50 55 59 61 62 62 62 62 62 61 60 60 61 60 60 58 57 56 53 51 49 51
37 32 29 32 23 19 27 30 32 37 35 38 39 36 36 38 39 40 43 45 45 46 47 47 47 47 49 51 54 56 57 58 60 61 60 60 60 59 59 58 56 54 52 51 50 48 48 47 48
32 27 26 24 24 18 19 28 25 30 35 32 34 35 36 36 36 37 39 41 42 44 45 46 46 46 47 47 48 48 49 51 54 56 58 58 58 56 55 53 52 51 48 46 46 46 46 46 46
33 27 25 26 21 23 23 24 26 30 31 33 34 34 34 34 34 33 34 34 35 38 41 43 44 45 46 46 46 46 47 48 50 52 54 55 54 53 51 48 47 48 46 44 43 43 44 44 44

GFSSGP_sfc_dewp_102.txt.gz
Dewpoint
58 56 56 52 45 42 36 36 34 32 30 27 33 41 45 44 51 52 62 62 66 68 70 71 73 73 72 72 73 73 73 74 74 73 73 72 72 71 71 72 71 70 70 68 68 67 67 68 68
55 52 51 48 40 34 31 32 32 31 30 29 35 45 47 47 56 62 62 63 67 68 69 69 73 72 72 72 73 73 72 74 74 73 73 73 72 70 71 71 71 71 71 68 68 67 67 66 67
51 49 48 42 38 35 31 30 28 27 29 29 38 47 47 48 57 61 64 64 68 68 68 69 73 72 72 72 72 73 73 73 73 73 73 73 72 70 70 71 71 72 71 70 69 68 67 64 64
47 46 45 37 31 32 34 32 32 29 27 28 34 46 52 54 57 62 64 64 66 68 67 71 72 72 72 73 72 73 73 72 73 72 72 72 72 70 71 71 71 69 70 70 69 67 65 65 64
46 44 37 33 31 31 30 30 31 28 27 28 32 40 49 53 58 63 64 64 65 67 69 70 72 72 72 72 72 73 73 73 72 72 72 71 71 71 70 70 68 70 70 69 68 67 66 66 65
42 40 33 29 29 27 26 28 27 25 25 26 30 31 41 54 55 62 65 65 65 67 69 69 71 72 72 72 72 72 72 72 72 72 72 71 71 70 67 66 65 70 69 69 69 68 67 66 66
39 37 31 26 23 23 23 23 23 23 23 24 28 28 33 55 58 65 67 67 66 67 69 69 69 70 71 71 71 71 72 72 71 71 71 70 68 66 66 66 69 69 69 69 69 68 68 67 66
37 36 31 29 27 25 24 22 22 21 22 24 27 27 29 52 61 66 65 65 64 65 64 63 64 68 68 69 70 70 71 71 70 70 69 68 66 67 67 67 69 69 70 69 69 67 67 66 66
37 32 28 27 25 24 25 24 25 24 21 21 25 28 42 59 63 61 60 60 62 62 62 61 62 61 65 65 68 69 69 69 69 68 66 65 63 65 65 66 67 68 70 69 68 66 65 65 64
34 30 28 27 24 22 23 23 23 22 21 21 24 28 36 58 59 59 58 56 58 60 60 61 61 61 60 63 66 67 68 68 67 65 62 62 62 63 63 66 67 68 69 68 67 66 65 63 58
32 30 30 29 27 26 24 22 23 22 23 22 23 27 32 50 58 58 57 57 58 59 60 60 60 61 60 60 63 64 67 67 67 63 61 60 62 63 65 66 66 66 65 65 65 63 60 56 55
25 27 27 29 28 28 25 24 23 23 24 29 30 35 42 47 55 56 58 59 59 59 59 60 61 61 60 61 59 58 62 66 64 62 60 58 60 62 63 63 64 63 63 62 61 60 58 56 54
29 29 28 27 27 27 27 24 24 24 28 33 31 35 43 49 51 56 59 59 60 59 60 61 63 63 64 65 58 57 56 56 59 59 59 58 60 59 61 61 61 60 59 58 58 56 54 53 53
32 31 32 33 32 28 25 25 25 24 24 29 32 34 44 48 48 53 58 58 59 60 60 61 65 65 65 66 64 57 54 55 58 58 59 58 59 58 58 57 58 57 57 56 55 54 55 54 56
35 31 33 33 31 30 29 27 25 24 23 24 30 33 44 47 51 51 57 59 60 60 60 61 64 65 65 65 64 65 60 55 56 57 56 56 57 57 57 57 58 58 58 57 57 56 57 57 57
32 33 30 29 29 30 30 25 26 24 22 23 29 35 45 44 48 51 56 58 60 60 60 61 62 62 63 64 64 65 64 61 60 58 58 58 58 58 60 62 61 61 60 59 58 58 57 56 56
30 26 29 29 31 31 30 26 29 26 24 24 26 42 44 44 48 55 57 59 58 59 59 61 61 59 60 62 65 64 64 65 61 63 61 61 61 61 62 63 63 61 61 59 59 57 55 54 55
27 28 28 27 33 37 32 29 31 29 28 30 39 41 43 43 47 55 58 59 60 60 60 61 60 58 60 62 63 62 63 64 64 65 65 64 62 63 63 63 63 62 61 60 59 57 56 55 56
29 30 29 27 32 37 31 29 29 35 39 35 40 43 46 45 48 56 58 58 59 60 60 60 61 61 61 62 62 62 62 62 62 62 63 65 64 64 64 63 62 63 62 60 58 57 56 55 59
34 31 28 29 36 36 32 28 31 35 39 37 36 39 43 47 54 55 57 58 60 59 60 60 60 61 62 62 62 63 63 64 64 64 63 63 63 65 65 64 63 63 62 61 59 57 58 60 61
31 29 27 32 36 35 35 32 33 34 39 38 38 39 41 48 53 53 55 57 58 59 59 58 59 61 61 61 61 62 62 63 63 64 63 63 63 64 64 64 64 63 63 62 62 62 61 60 61
29 32 32 36 34 31 35 27 34 36 37 38 38 39 44 52 53 53 54 57 57 59 60 60 58 60 61 62 61 60 59 59 61 63 64 64 64 64 64 63 63 63 63 62 62 62 60 60 59
31 35 35 35 34 32 35 30 34 37 37 38 40 44 51 52 52 52 55 55 58 58 59 60 60 61 61 61 61 60 58 60 61 61 61 62 63 63 64 63 63 63 62 61 61 60 59 59 57
37 35 34 33 33 29 35 33 32 33 36 39 46 50 51 52 53 54 55 57 57 58 59 59 59 59 61 61 61 60 59 59 59 60 60 61 61 61 61 62 62 62 61 60 60 58 58 58 57
37 35 28 27 28 27 34 32 32 37 38 42 46 48 51 51 51 52 53 54 56 56 57 58 59 59 60 60 61 61 61 60 59 60 60 60 60 60 61 62 61 61 60 60 60 59 59 58 57
37 35 29 24 25 30 32 28 32 40 41 44 46 47 46 47 46 45 50 53 53 54 54 54 53 54 56 60 61 61 61 60 60 60 59 59 60 60 60 61 61 60 60 60 59 59 58 56 55
36 33 30 31 31 29 32 33 37 39 40 39 40 44 46 46 44 44 44 44 45 46 46 46 46 45 46 49 55 61 62 61 60 60 60 59 59 61 61 61 61 61 60 60 59 58 56 54 53
37 35 28 32 27 25 28 28 32 35 39 39 38 40 42 42 43 45 46 46 46 46 46 46 47 48 49 50 52 54 56 58 61 61 61 60 60 60 59 60 60 60 60 59 57 55 52 51 51
33 29 28 26 25 22 23 28 37 37 37 37 39 38 36 36 38 39 41 42 43 44 45 45 46 46 47 47 47 47 48 50 53 55 58 58 58 58 58 57 56 54 54 53 52 50 49 48 47
33 28 25 25 23 26 27 28 34 34 34 35 35 33 36 33 33 34 34 35 36 37 40 41 44 45 45 46 46 46 47 47 49 51 53 56 56 55 54 53 53 52 50 48 47 46 47 45 46

GFSSGP_sfc_dewp_105.txt.gz
Dewpoint
57 56 57 51 44 43 38 41 40 37 34 31 31 30 44 49 48 46 62 68 69 70 71 72 73 73 72 72 72 73 74 74 73 73 72 72 72 71 71 70 71 71 69 68 68 68 68 67 67
55 54 49 47 40 35 35 37 35 35 35 34 31 43 47 52 61 62 62 66 69 70 71 71 73 73 72 72 72 72 73 74 74 73 73 73 71 72 72 71 71 70 68 68 67 67 68 68 68
52 49 46 43 38 35 34 33 33 33 32 30 31 47 48 54 61 62 64 67 69 70 70 71 73 73 72 72 73 72 72 74 74 73 73 73 72 72 71 72 72 71 70 69 67 66 65 65 64
47 45 44 38 35 37 37 37 36 33 32 31 36 46 52 54 59 64 65 68 68 69 69 72 73 73 73 73 73 73 72 73 74 73 73 72 72 72 71 72 71 71 70 69 68 65 65 64 63
44 43 38 36 34 33 33 34 35 31 30 28 28 44 48 58 63 64 64 67 68 68 69 71 72 73 73 73 73 73 73 72 73 73 72 72 72 71 72 71 70 71 70 68 66 65 65 65 64
40 40 34 34 34 32 31 30 28 27 26 25 24 31 46 55 63 64 65 66 68 69 69 70 71 72 72 73 72 73 72 73 72 72 72 72 71 71 71 70 70 70 69 68 67 67 66 65 64
38 36 33 31 28 26 28 28 25 24 23 23 24 24 32 53 62 66 66 66 66 67 67 65 67 70 71 72 72 72 72 72 72 71 71 71 70 70 69 67 70 70 70 70 69 68 67 66 65
35 35 32 32 31 30 29 27 26 25 23 23 23 23 26 51 65 65 65 64 64 63 62 63 62 61 63 69 70 70 70 71 71 70 69 69 67 67 66 66 68 70 70 70 69 68 68 67 66
37 32 30 29 28 28 27 25 25 26 24 24 23 23 45 62 62 61 60 61 62 62 62 62 62 61 61 61 68 69 69 70 69 69 67 66 64 64 64 64 67 68 69 69 68 67 67 66 65
34 30 28 29 28 26 26 25 25 23 22 22 24 26 54 60 59 58 57 57 58 59 61 62 62 61 61 59 61 67 68 68 68 67 65 63 64 63 62 65 66 68 69 68 68 66 66 63 59
33 30 30 31 31 31 30 27 26 24 22 23 25 29 35 46 58 57 56 56 57 58 60 61 61 62 61 61 60 62 67 68 67 65 63 63 63 63 65 66 66 67 65 66 66 65 61 59 57
27 29 29 30 31 29 26 26 25 24 23 25 29 34 36 46 51 56 56 57 57 58 59 60 61 61 61 61 59 59 66 67 66 64 62 62 62 64 64 64 65 65 64 63 63 62 59 57 55
31 31 31 32 32 30 28 26 25 25 25 25 26 29 36 45 48 49 57 58 58 58 59 59 60 60 61 60 60 62 65 67 66 65 63 61 62 63 63 63 63 63 63 62 61 60 58 56 54
34 34 33 33 33 33 33 32 27 25 26 26 26 27 32 43 45 49 55 58 59 58 59 60 61 60 61 61 62 62 62 66 66 65 64 59 61 62 62 62 62 62 61 61 59 57 54 53 52
35 34 35 33 33 33 34 30 29 27 25 26 26 25 30 44 47 48 52 56 59 59 59 59 61 63 63 63 65 64 58 61 62 61 61 60 60 60 60 61 60 60 58 56 56 54 55 56 56
32 32 28 31 33 35 33 25 28 28 26 25 26 26 26 43 44 47 52 58 60 60 60 60 62 64 63 64 64 64 61 57 59 58 58 59 58 57 58 58 58 58 58 58 57 57 56 57 56
30 22 26 29 33 32 32 29 31 29 27 26 25 26 27 44 45 47 53 56 59 59 60 60 62 62 62 62 64 64 63 61 57 58 57 57 57 57 60 60 61 60 59 59 58 57 56 55 55
24 25 28 28 31 33 32 34 36 32 30 30 37 35 40 42 43 46 56 58 59 59 60 61 61 60 61 61 62 64 63 63 64 60 59 59 60 60 62 62 62 61 60 59 59 57 56 54 54
31 30 28 30 33 34 33 34 35 33 36 36 38 39 39 43 47 48 55 57 59 59 59 59 60 59 60 60 61 62 62 62 63 64 62 62 62 62 63 63 63 62 61 60 59 58 56 55 58
30 31 30 31 33 37 35 33 33 33 34 38 39 39 37 44 48 52 55 57 58 59 59 59 59 60 60 60 62 62 62 62 63 63 64 65 63 64 64 63 63 62 62 60 59 57 57 57 60
34 31 29 29 32 36 35 33 33 34 36 36 39 39 40 41 49 52 54 56 58 58 59 60 60 61 61 61 62 62 61 62 62 63 62 63 64 65 64 64 64 63 63 62 61 60 59 59 59
31 32 31 35 34 29 36 25 34 36 37 38 38 38 40 43 51 52 53 55 57 58 60 60 61 60 61 61 61 60 59 59 60 61 62 63 63 64 64 64 63 63 62 61 62 62 61 60 58
32 36 36 35 35 32 32 30 34 37 34 37 38 39 45 51 51 53 54 55 57 59 59 60 60 61 61 61 61 60 58 60 60 61 61 61 62 62 62 63 62 62 62 61 61 60 59 59 59
37 36 35 35 34 28 34 33 31 33 35 37 40 43 49 51 52 53 55 55 56 59 59 59 59 60 60 61 61 60 59 59 59 60 60 61 60 61 61 62 62 61 61 60 59 59 58 58 57
37 34 25 26 27 27 35 31 31 35 39 39 45 48 50 52 52 52 53 54 56 57 57 58 58 58 59 60 60 60 60 59 59 59 60 60 60 59 60 61 61 60 61 60 60 58 58 57 56
34 36 28 21 25 29 34 27 29 37 46 46 47 47 47 47 49 51 53 52 54 55 55 55 55 54 56 58 59 60 60 60 60 60 60 60 60 59 60 60 61 60 60 60 60 59 59 58 57
35 34 37 31 33 29 30 32 36 38 41 44 45 45 45 46 47 47 49 49 51 51 51 51 52 52 51 52 58 59 61 61 60 60 60 59 59 60 60 60 60 61 60 60 60 59 58 57 56
36 37 31 32 23 24 28 29 29 34 39 41 42 43 44 45 46 47 47 46 47 48 47 47 48 48 49 50 52 53 58 60 61 60 60 59 59 59 59 60 60 60 60 60 59 58 58 56 54
34 31 31 27 27 25 23 28 36 38 38 38 38 37 41 44 40 42 40 41 42 43 44 45 45 46 46 47 47 47 47 49 52 54 59 59 59 59 59 59 60 59 59 60 59 58 55 54 53
32 31 26 24 23 26 25 30 39 39 39 37 38 33 33 34 34 34 36 36 36 37 37 39 41 43 45 46 46 46 46 46 48 51 53 55 55 56 56 56 56 56 55 55 56 53 53 53 51

GFSSGP_sfc_dewp_108.txt.gz
Dewpoint
56 55 56 50 44 41 37 41 43 40 35 34 32 30 30 39 46 44 62 67 69 69 71 72 73 73 73 72 73 74 74 74 74 73 72 72 71 71 71 72 71 71 69 69 68 68 66 69 69
53 53 49 46 38 35 33 39 39 38 37 32 32 32 44 48 61 61 64 69 69 70 71 71 73 73 72 72 71 73 74 74 73 73 73 73 71 71 71 71 71 69 68 68 68 67 66 69 69
47 49 45 43 37 34 34 35 36 35 34 33 32 36 47 56 61 62 64 69 70 70 70 71 73 73 72 72 71 71 74 74 74 73 73 73 72 72 71 71 71 70 69 68 68 68 68 67 65
46 44 44 39 36 38 37 37 36 34 33 31 31 31 49 55 62 63 67 69 70 70 71 72 73 73 73 73 73 71 73 74 74 73 73 73 72 72 72 72 70 70 69 68 66 66 65 63 65
45 43 36 35 36 37 35 36 35 32 30 29 27 28 35 58 63 65 68 69 69 69 71 72 73 73 73 73 73 73 72 74 73 73 72 72 72 72 71 72 71 71 70 67 65 65 64 64 65
40 40 34 32 33 34 33 32 30 29 27 25 24 27 32 55 63 65 68 68 68 69 70 71 72 72 73 73 73 73 73 73 73 73 72 72 72 71 72 71 71 70 68 66 66 65 65 64 64
38 36 32 32 31 31 30 29 25 25 24 24 23 22 27 55 62 65 66 68 68 68 67 68 70 70 71 72 72 73 73 72 72 72 72 71 71 71 71 71 71 69 68 67 67 66 66 65 64
37 35 31 33 31 30 32 28 27 26 24 25 24 21 22 31 64 64 65 65 64 64 64 63 63 63 64 68 70 70 71 71 71 71 70 69 69 69 70 69 70 70 70 70 69 67 67 66 65
36 30 30 29 29 30 27 26 26 26 24 24 24 24 38 57 62 61 62 62 62 62 62 62 61 62 61 60 65 69 69 69 70 69 68 67 67 66 64 65 68 70 70 70 69 68 68 67 65
33 30 29 30 29 28 29 29 28 26 25 24 24 28 34 40 50 57 58 59 60 61 61 61 61 61 61 61 60 62 67 68 68 68 68 66 63 63 62 64 66 68 69 69 68 68 67 64 60
33 31 29 31 32 32 32 31 28 25 24 23 24 27 34 42 49 56 56 57 59 60 61 61 61 61 61 61 60 61 65 67 67 67 66 64 64 63 62 65 64 66 65 66 66 65 63 59 57
29 30 32 32 31 31 28 27 25 25 25 26 25 28 34 38 46 49 53 57 57 58 59 60 61 61 62 63 61 60 62 65 67 66 64 65 65 63 64 65 65 65 64 64 63 62 60 58 56
32 32 33 34 34 34 33 31 28 26 25 26 27 28 31 37 44 45 49 57 58 57 58 59 60 60 61 61 61 59 61 64 67 65 64 64 64 64 62 63 64 64 63 63 62 61 59 57 56
33 34 34 35 33 33 32 31 33 31 28 27 27 28 29 32 37 44 49 55 57 57 58 59 59 60 60 60 59 58 61 64 67 66 64 63 63 63 63 62 62 63 62 62 61 60 59 56 55
34 33 33 35 36 34 35 32 31 31 30 27 27 26 29 32 40 45 47 51 57 58 58 59 59 60 60 60 60 60 59 64 65 66 65 63 63 63 62 62 62 62 61 61 60 59 56 54 53
33 31 27 30 34 35 33 26 29 29 29 28 28 28 28 30 36 42 46 51 57 58 58 59 61 62 61 60 60 60 61 63 65 66 65 63 62 62 62 62 62 62 60 59 57 56 55 56 56
28 19 25 29 33 33 31 29 31 32 29 28 28 29 29 31 36 43 46 50 58 59 59 59 60 62 63 62 63 63 62 62 63 65 65 64 63 62 61 61 60 59 59 58 57 57 56 56 56
21 23 27 27 29 31 32 31 33 35 36 31 28 31 36 38 38 41 44 52 58 59 59 59 61 62 62 62 64 63 62 62 62 62 61 60 60 59 59 58 59 59 58 58 58 56 57 56 55
29 29 29 29 31 32 32 33 34 36 37 33 33 36 37 39 41 45 47 56 57 58 58 59 60 60 61 61 61 62 61 62 62 61 59 59 58 59 59 59 60 60 59 58 58 58 56 55 55
31 30 28 30 32 34 33 32 34 34 34 34 34 36 37 39 41 45 50 56 57 57 58 59 60 59 60 61 61 62 62 62 62 62 62 61 60 61 62 61 62 61 60 60 59 58 57 56 58
32 29 29 29 31 35 33 32 33 34 35 34 36 39 39 39 40 46 52 54 56 57 57 58 59 59 59 60 61 62 62 61 61 61 61 61 62 62 63 63 63 62 62 61 60 59 58 58 59
30 31 33 33 33 28 34 25 32 35 36 37 38 37 39 40 43 50 52 53 55 57 59 59 59 60 60 61 60 59 57 57 59 61 61 62 63 63 63 63 63 63 62 61 61 61 59 60 58
32 35 34 34 32 32 32 29 29 35 33 35 37 38 39 41 49 51 51 54 55 57 58 60 60 60 59 61 61 59 58 60 61 61 60 61 61 62 63 63 62 62 61 60 60 60 60 60 59
37 36 35 34 34 26 32 31 31 33 35 35 37 40 40 48 50 51 54 55 55 58 58 59 60 59 60 61 61 60 59 59 59 60 60 60 60 61 61 61 61 61 61 60 60 60 60 59 59
36 34 23 22 25 24 35 32 32 36 37 37 40 46 49 51 52 53 53 53 57 57 58 58 59 58 60 60 60 60 60 59 59 59 60 60 59 59 60 60 60 60 60 60 60 59 58 58 58
34 34 27 21 24 26 33 27 31 37 45 46 46 47 48 48 49 49 51 52 52 53 54 55 55 56 57 58 59 60 60 60 59 59 60 60 60 60 60 60 60 60 60 59 60 59 59 58 58
35 34 37 31 32 28 31 32 34 37 41 44 44 45 46 47 48 48 49 50 51 51 51 52 52 53 53 53 56 58 60 60 59 60 60 59 59 60 60 60 60 60 60 59 59 59 59 59 58
36 38 32 32 24 22 26 29 28 32 38 40 42 43 45 46 46 46 48 49 50 50 50 49 48 48 49 51 52 55 58 59 60 60 59 59 59 59 59 59 59 58 60 60 60 59 59 58 56
35 35 34 31 28 25 22 28 35 36 38 36 41 42 42 44 42 41 39 41 42 43 44 44 45 45 46 46 47 46 47 49 52 55 58 59 59 59 59 59 59 59 59 60 60 59 58 57 57
33 32 29 25 26 26 26 28 39 39 38 35 34 40 38 40 40 36 36 37 37 37 38 38 39 41 44 46 46 45 46 46 47 49 51 54 54 54 55 56 57 57 57 57 58 58 56 56 56

GFSSGP_sfc_dewp_111.txt.gz
Dewpoint
55 53 56 48 41 40 35 38 42 39 37 34 33 32 31 32 32 41 62 68 69 70 71 72 73 73 74 74 75 74 74 74 73 72 71 71 69 70 72 72 71 70 70 70 69 67 67 68 68
47 51 48 45 36 30 25 38 39 41 38 34 32 31 35 41 60 61 64 67 69 70 71 71 73 73 73 73 74 74 74 73 73 73 72 72 70 71 72 72 71 70 69 68 67 68 68 69 67
48 48 43 42 36 32 27 35 37 35 35 33 31 32 41 51 61 61 64 69 68 70 71 71 73 73 72 72 73 74 74 74 73 73 73 73 72 71 72 71 71 70 70 66 68 68 69 68 65
45 45 43 37 37 37 34 35 37 36 34 31 29 28 35 57 61 63 68 69 69 70 70 72 73 73 73 73 72 73 73 73 73 73 72 73 72 72 71 72 70 70 70 68 68 68 67 65 66
45 42 35 34 35 38 36 37 33 32 31 29 27 26 28 50 64 66 68 69 69 70 71 72 73 73 73 73 72 72 73 73 73 73 72 72 72 72 72 71 70 70 68 67 66 65 64 65 66
41 40 31 28 31 35 35 34 30 29 27 25 23 24 26 49 59 65 68 68 69 70 71 71 72 73 73 73 73 72 73 74 73 72 73 72 72 71 72 70 70 69 68 65 65 64 64 65 65
38 35 30 30 31 32 33 32 26 25 26 24 23 23 25 35 58 65 66 67 68 69 69 70 71 71 72 72 73 73 72 73 72 72 72 71 71 71 71 70 70 69 67 66 66 65 65 65 65
38 35 30 31 29 28 31 27 27 25 24 25 24 22 26 33 61 63 64 66 65 66 66 66 65 67 68 69 70 71 72 71 72 71 71 69 69 69 71 70 70 69 68 68 68 66 66 66 65
35 30 28 29 31 30 28 27 28 28 25 26 24 25 35 36 54 59 61 61 64 64 64 63 63 62 62 65 65 68 69 70 70 69 68 67 68 68 68 68 69 69 69 69 68 67 67 67 65
31 28 27 31 29 28 30 30 30 27 26 25 25 26 30 34 39 52 56 59 60 62 62 61 61 61 61 60 60 62 68 67 68 68 68 68 67 66 65 66 67 70 69 69 69 69 68 65 61
33 29 31 30 31 32 31 29 31 26 25 26 24 25 29 33 38 44 50 56 59 60 62 61 61 60 60 60 60 62 64 67 67 66 67 67 65 63 61 65 66 67 66 67 67 66 63 60 57
28 31 32 33 32 32 30 29 28 27 26 27 26 28 29 32 33 40 44 49 56 60 60 61 60 60 60 61 60 59 63 64 66 67 66 65 64 62 61 63 64 64 66 65 63 62 61 58 57
31 32 33 34 35 35 34 32 31 31 31 31 30 29 31 34 35 41 41 47 56 58 60 60 60 61 61 60 60 58 59 63 64 66 66 65 63 63 62 64 64 64 65 64 63 61 60 58 56
33 34 34 34 35 34 33 32 32 31 32 30 30 30 30 32 33 37 40 46 55 57 57 59 60 60 60 60 60 59 59 62 65 66 65 64 64 63 63 63 64 64 64 63 63 60 59 58 55
35 32 33 33 34 35 35 32 31 31 31 31 32 31 31 33 34 35 42 44 50 56 57 58 59 60 59 59 59 59 58 62 65 65 65 64 64 64 62 62 63 63 63 62 62 60 59 57 56
32 30 26 28 34 34 32 26 29 31 31 30 31 31 31 31 33 36 41 44 47 54 57 58 59 59 59 59 59 59 59 59 64 65 65 65 65 64 63 62 62 62 62 62 61 59 58 56 55
26 19 24 28 33 32 32 28 31 32 30 30 30 30 31 32 33 36 39 41 44 55 57 58 59 60 59 60 60 60 60 60 61 65 65 64 65 65 63 63 62 61 61 60 60 58 57 56 55
20 22 26 27 28 31 30 29 31 32 34 33 32 31 31 32 33 36 40 43 46 54 58 58 59 59 61 62 62 62 62 62 62 64 64 64 64 64 64 63 61 61 60 59 58 57 57 56 56
28 29 27 29 31 30 30 30 32 34 36 36 37 34 32 34 37 41 41 45 50 54 57 58 59 60 61 61 60 60 62 61 61 64 63 64 64 64 63 62 61 60 59 59 58 57 56 56 55
30 29 27 29 31 31 31 31 33 34 35 36 36 34 35 36 38 40 43 47 52 54 57 58 59 60 61 60 59 60 61 62 61 62 63 63 63 62 61 61 60 59 59 58 58 57 57 56 57
30 30 27 28 31 33 33 30 32 34 36 36 35 35 36 39 40 40 41 47 52 54 56 57 59 59 59 60 60 60 61 61 61 61 61 61 62 62 62 62 61 60 60 59 59 59 58 56 57
29 29 30 30 33 26 31 23 27 33 35 36 36 37 37 38 40 42 45 49 53 55 56 57 59 58 58 59 59 59 58 58 59 60 61 61 61 62 62 62 62 61 61 60 60 60 58 59 57
31 35 35 34 33 31 29 29 27 33 33 35 37 36 40 40 41 43 48 51 53 55 56 57 58 58 59 59 59 59 57 59 60 60 60 60 61 62 61 62 62 62 62 61 60 60 59 59 58
37 36 35 34 33 26 28 30 22 32 36 37 37 38 41 41 46 49 51 53 52 54 55 57 58 58 60 60 60 60 58 59 59 59 59 59 60 60 61 61 60 60 60 60 60 59 59 59 59
37 34 22 19 21 22 35 32 29 36 36 40 39 41 47 48 49 51 52 52 53 54 56 57 58 58 60 60 60 60 58 59 59 59 59 59 59 59 59 60 60 60 60 60 60 59 59 59 59
34 33 27 19 18 24 34 27 32 37 43 45 46 46 47 48 48 50 50 52 52 53 57 58 57 58 58 58 60 60 60 59 60 60 60 59 59 59 60 60 60 60 60 60 59 59 58 58 58
34 33 37 31 31 28 30 32 35 36 40 43 44 45 46 46 47 48 49 50 51 52 52 53 54 54 54 56 58 59 60 59 59 60 59 59 59 60 60 60 59 59 59 59 59 59 59 58 58
36 38 32 32 24 23 28 29 27 32 35 40 42 43 43 44 44 45 46 46 48 49 49 50 50 51 51 52 53 54 56 59 59 59 59 59 59 60 60 59 59 59 59 59 59 59 59 59 59
36 35 36 35 29 24 23 27 34 34 36 39 40 42 42 41 41 42 42 42 43 44 44 45 45 47 47 47 48 47 48 51 53 55 56 58 58 59 58 59 59 58 58 59 59 59 59 58 58
35 34 31 27 26 25 27 28 37 38 38 38 38 39 36 37 37 37 37 38 38 39 40 40 40 42 45 45 45 45 45 45 45 46 48 50 52 53 53 53 55 56 56 57 57 57 57 57 57

GFSSGP_sfc_dewp_114.txt.gz
Dewpoint
52 53 55 46 40 38 32 35 40 38 38 35 34 32 32 31 30 34 60 68 69 70 72 72 74 74 74 74 74 74 74 74 72 71 70 71 70 71 71 69 69 70 71 68 67 67 65 68 67
47 50 48 43 34 25 18 35 38 41 39 35 33 31 33 36 51 60 63 67 69 71 71 71 73 74 74 74 74 73 74 74 73 70 72 70 70 71 72 71 70 70 70 69 67 67 68 68 67
48 48 43 39 34 25 19 33 39 36 35 33 30 30 36 48 60 61 63 68 70 70 71 71 73 73 74 74 74 73 73 73 73 73 73 72 71 72 72 72 71 71 69 68 69 69 69 66 66
45 44 42 36 34 34 30 35 37 33 33 30 29 27 31 54 58 63 66 68 69 69 70 72 73 73 73 74 74 74 73 72 72 72 72 72 72 72 72 71 71 70 69 68 69 69 67 66 66
44 38 33 31 33 36 36 38 34 33 31 28 25 25 27 43 54 63 66 69 69 70 69 72 73 73 73 73 73 74 74 74 73 72 72 72 72 72 71 71 71 70 69 68 68 68 65 66 66
39 37 24 24 29 34 35 37 31 30 26 25 23 24 26 40 51 61 65 67 69 70 71 71 72 73 73 73 72 73 74 74 73 73 72 72 72 71 71 70 70 69 68 68 67 66 65 66 66
36 31 26 27 29 31 32 33 32 26 25 25 24 23 25 32 39 62 64 65 67 69 69 69 71 71 72 72 73 72 73 73 73 73 72 71 70 71 71 70 69 68 67 66 66 64 66 66 66
38 32 30 30 28 24 29 27 26 25 25 25 24 22 24 31 39 56 62 64 64 66 67 67 68 69 69 69 71 71 71 72 72 72 71 70 69 69 70 69 69 69 68 67 67 66 66 66 66
35 29 26 27 31 28 29 28 29 30 27 26 25 24 33 33 40 48 57 60 63 64 64 65 66 67 67 67 68 69 70 70 70 70 68 68 69 69 68 68 68 68 68 68 67 67 67 67 65
30 24 24 30 30 27 30 30 30 29 27 26 26 27 27 31 34 39 45 54 59 61 63 63 63 63 64 62 64 66 68 68 68 68 68 68 68 68 68 67 67 68 68 68 68 68 68 65 61
33 26 30 30 31 32 30 28 30 28 26 26 26 24 28 30 32 37 39 47 56 59 62 62 62 61 61 61 60 64 66 67 67 67 67 67 68 67 67 67 67 68 66 67 67 67 64 61 59
27 31 32 32 33 34 32 31 31 28 27 28 28 28 30 30 32 34 37 40 45 56 60 62 62 61 60 61 59 60 64 67 67 67 67 65 65 65 63 65 65 66 67 66 64 65 61 59 57
30 31 34 34 34 34 34 32 31 31 31 31 32 32 32 33 33 35 36 40 43 55 59 61 61 60 61 60 60 58 59 62 65 67 67 65 64 64 62 63 64 64 65 65 64 62 60 58 56
33 34 34 34 34 34 33 32 32 31 33 32 32 32 32 33 33 35 37 38 41 53 57 60 60 60 61 60 59 59 58 60 63 65 66 66 65 63 62 63 64 64 64 64 63 61 59 58 56
34 31 32 32 34 33 35 30 31 31 31 31 31 32 33 35 35 34 36 36 39 46 56 58 60 60 60 60 60 59 59 60 63 64 66 65 65 64 63 63 64 64 64 63 62 61 59 57 56
30 28 23 26 34 34 31 26 27 29 30 30 31 31 32 34 35 35 35 37 41 46 53 57 59 60 60 60 59 59 59 58 62 65 64 65 65 64 64 63 64 64 64 62 62 61 59 57 56
25 19 24 27 31 32 31 28 31 32 32 31 31 31 32 33 35 36 36 37 39 43 47 55 58 58 59 59 58 58 58 58 58 64 65 65 65 65 64 64 64 64 63 62 61 60 59 57 56
20 22 25 26 28 31 30 29 31 32 32 31 32 33 34 34 35 36 36 37 39 41 48 54 57 58 58 59 59 59 60 59 59 60 64 64 65 65 65 64 64 63 63 61 60 59 58 57 56
27 25 24 27 30 30 30 30 31 33 34 34 35 36 36 36 37 38 38 39 42 45 49 55 56 58 60 59 59 59 59 60 61 61 63 63 64 64 64 64 63 63 62 61 59 58 57 56 56
29 28 26 27 30 30 30 30 31 33 34 35 35 36 37 36 36 38 41 42 43 44 49 54 57 58 59 60 60 60 61 61 61 61 62 64 63 64 63 63 61 62 62 61 59 58 57 57 56
29 27 27 27 28 31 31 28 29 32 36 36 37 36 36 35 36 39 41 42 44 47 50 54 57 58 59 60 60 61 61 61 60 61 61 62 63 63 62 61 61 61 61 60 60 59 58 56 56
27 30 30 28 30 27 31 23 25 32 34 35 36 36 37 38 39 40 42 43 45 48 51 55 57 58 58 59 60 59 58 57 59 61 61 61 63 62 60 59 58 59 60 60 60 59 59 58 56
30 34 34 33 33 32 29 28 26 33 32 35 37 37 38 39 41 41 42 45 48 51 53 55 57 58 58 59 60 59 57 57 58 59 60 60 61 62 61 60 59 60 61 61 60 59 58 58 58
34 34 34 33 34 25 27 29 25 33 35 36 38 39 41 44 43 44 48 50 51 51 55 55 57 58 57 58 58 58 57 57 58 58 59 60 60 61 62 62 62 62 62 61 60 59 59 59 58
35 34 20 16 23 20 34 32 32 36 37 42 43 45 47 48 47 48 49 50 50 51 54 55 56 57 58 58 57 58 58 56 57 58 59 59 59 59 60 60 60 60 60 60 59 59 59 59 58
34 34 27 16 17 23 33 25 31 38 38 44 45 45 45 46 45 48 49 51 52 53 53 55 56 57 58 59 59 60 60 58 59 59 60 59 59 59 60 60 60 60 60 59 59 59 58 58 58
34 33 37 31 30 27 29 32 36 35 37 41 42 43 43 43 44 44 45 48 50 51 53 55 55 55 57 58 59 59 59 59 59 60 60 59 59 59 60 60 59 59 59 59 59 58 58 58 58
36 38 32 32 23 22 28 28 27 31 33 37 40 40 41 42 42 43 44 45 47 48 50 51 51 52 52 52 53 54 56 58 59 59 59 59 59 59 59 59 59 59 59 59 58 58 59 59 59
36 35 36 35 30 24 23 27 34 32 35 36 39 39 39 40 41 42 43 44 45 45 46 48 49 48 48 48 48 48 48 49 50 51 52 55 55 56 56 57 58 58 58 58 58 58 58 58 58
36 35 34 27 27 26 27 28 38 37 38 38 37 37 37 37 37 38 39 41 42 43 43 44 44 44 44 44 43 43 44 44 44 44 45 47 48 49 49 49 50 51 52 54 54 54 55 55 56

GFSSGP_sfc_dewp_117.txt.gz
Dewpoint
50 53 53 46 39 37 32 31 43 39 39 36 34 33 32 32 31 38 63 67 69 69 72 71 75 74 74 74 74 74 74 73 73 73 72 71 70 70 70 69 69 70 68 67 68 68 66 68 67
48 50 49 41 34 24 17 36 39 40 38 36 33 31 32 35 54 61 64 67 69 70 71 70 75 74 74 74 74 74 74 73 72 72 71 70 70 71 70 70 70 71 70 69 69 67 66 67 67
48 47 44 37 33 20 15 31 38 36 33 31 29 29 36 46 50 60 64 67 69 71 71 71 74 74 74 74 74 73 73 73 72 71 72 72 72 71 71 71 71 71 70 69 68 66 68 66 66
47 44 42 37 30 33 26 35 37 33 33 30 27 27 41 39 48 57 64 68 70 70 71 72 73 73 74 74 74 74 73 73 73 73 73 72 72 72 72 71 71 71 70 70 69 69 66 67 67
43 37 33 31 31 36 38 37 34 33 31 28 26 26 28 35 38 55 64 68 69 70 71 71 73 73 73 74 74 74 74 73 73 73 72 72 72 71 72 72 71 70 69 70 69 68 66 67 67
40 33 23 21 26 32 35 37 34 30 28 26 24 25 28 35 38 52 64 65 69 69 70 70 71 72 73 72 73 73 74 73 73 73 73 73 72 71 71 71 70 69 69 68 68 67 66 67 66
36 27 19 22 24 28 30 30 32 30 26 26 25 24 27 32 39 50 62 65 66 69 69 71 70 70 72 72 72 72 73 73 73 72 72 72 71 71 71 71 70 69 68 68 68 66 67 67 66
39 32 30 29 26 22 29 28 27 26 26 26 25 23 26 32 38 47 53 62 64 65 67 69 70 70 71 71 71 71 71 72 72 72 71 70 69 69 70 70 69 69 69 69 68 67 67 67 67
36 28 25 25 29 25 29 28 29 31 28 27 26 24 30 32 38 43 46 50 60 64 64 65 67 69 70 70 69 69 70 70 70 70 69 69 69 69 69 67 68 69 68 68 67 67 68 67 66
32 22 23 29 31 28 30 30 29 29 27 27 27 29 29 31 34 39 43 46 47 54 62 64 64 66 68 68 69 69 70 70 71 70 70 70 69 69 68 66 67 68 68 68 68 68 68 65 61
32 25 29 29 30 32 30 29 29 28 26 27 26 27 28 31 33 37 39 41 44 48 58 63 63 63 64 65 67 68 69 69 70 70 70 70 70 69 69 68 67 67 65 65 66 65 64 63 61
25 31 32 32 33 34 31 32 31 29 26 27 28 29 31 32 33 35 38 41 44 47 50 60 63 63 63 63 63 65 67 69 69 69 69 69 69 69 69 67 67 67 66 65 66 65 65 63 60
29 31 33 34 34 33 33 32 30 31 31 31 32 33 33 35 35 37 36 38 41 45 50 58 63 63 62 62 62 60 62 67 68 68 68 68 67 67 67 67 66 67 66 65 65 66 64 61 58
33 34 33 34 33 34 32 31 32 30 32 32 33 33 34 35 35 37 37 38 38 41 48 56 61 62 62 62 62 59 58 61 64 68 68 67 67 67 66 66 65 65 67 66 65 64 63 60 58
34 30 31 31 33 32 35 31 32 32 32 31 31 31 33 35 36 36 38 38 37 40 45 53 60 62 62 62 62 61 59 59 61 63 65 66 66 65 64 64 65 65 66 65 65 64 62 60 59
30 27 21 25 32 33 31 25 28 29 30 30 31 32 33 33 35 37 37 38 39 41 43 51 57 61 62 62 62 62 61 60 61 64 63 63 66 65 64 64 64 66 65 65 63 63 62 60 59
26 22 26 27 30 32 31 28 30 32 31 31 31 33 33 35 35 38 38 38 38 40 42 47 54 58 61 62 62 61 61 60 59 61 64 63 63 65 65 65 64 65 65 64 64 61 61 60 59
23 24 25 26 28 30 30 30 31 32 32 31 32 33 34 36 36 38 39 39 39 40 43 45 50 54 59 60 61 61 61 61 60 59 61 63 64 64 66 66 65 65 65 64 63 62 61 60 59
27 25 25 26 28 29 30 30 31 32 33 33 35 36 36 38 39 40 40 40 41 42 42 43 47 53 58 59 59 59 59 60 61 61 60 61 63 64 65 66 65 64 64 63 62 61 60 60 59
28 27 26 28 30 30 30 29 31 33 34 35 36 36 37 38 39 39 40 41 42 42 43 44 49 53 57 60 60 60 60 61 61 62 61 62 62 64 64 64 64 63 63 62 61 61 59 60 59
29 27 27 26 29 30 31 29 28 30 36 36 37 37 38 38 38 39 39 42 45 45 45 45 48 54 57 59 59 60 61 62 62 61 61 62 62 63 63 63 63 63 63 62 62 61 60 58 59
27 29 29 29 31 27 31 25 27 33 33 35 38 39 40 40 40 40 42 43 45 46 47 48 51 54 58 59 59 57 58 58 59 61 61 62 63 63 63 63 63 62 62 61 61 61 60 59 58
29 33 33 33 33 32 29 29 27 33 33 36 38 38 41 42 43 43 44 44 46 48 49 51 53 56 57 58 58 58 57 58 60 61 61 62 62 62 62 62 61 60 61 60 59 59 59 59 58
33 33 33 33 30 27 27 28 27 33 35 36 38 44 46 45 44 46 48 46 50 52 53 54 55 56 57 57 57 57 57 58 59 60 60 60 61 62 62 61 60 60 60 60 61 60 60 60 59
35 33 21 18 25 21 30 32 32 36 37 39 43 42 44 44 43 44 48 50 51 52 53 54 55 55 56 58 58 58 58 59 59 59 59 59 60 60 61 62 60 60 60 60 61 60 59 60 59
33 32 24 17 19 22 32 26 31 35 38 39 40 41 42 44 43 43 45 51 51 51 53 53 55 56 57 57 58 59 59 60 59 59 60 60 60 60 61 61 61 61 61 60 60 60 59 59 59
35 33 35 31 30 27 28 32 36 34 36 38 39 40 40 42 42 43 45 48 48 51 52 55 55 56 57 58 59 59 59 60 58 59 60 60 60 60 60 60 60 60 60 60 59 59 59 59 59
36 38 32 32 23 20 26 28 28 31 34 36 38 39 39 41 41 42 44 45 46 48 50 50 51 51 52 51 53 52 51 55 57 57 58 58 59 59 59 59 59 59 59 59 59 59 58 58 58
36 34 35 35 32 25 22 24 35 34 36 37 38 38 39 39 40 41 43 44 45 45 46 46 46 47 47 48 47 47 48 48 48 49 51 52 52 52 53 53 54 55 56 57 58 58 58 58 58
37 35 34 28 28 28 27 29 38 38 38 38 37 37 37 37 37 39 41 42 43 43 44 44 45 44 45 45 45 45 46 46 46 45 46 46 46 47 47 47 47 48 49 50 51 51 52 52 52

GFSSGP_sfc_dewp_120.txt.gz
Dewpoint
50 53 54 49 33 30 19 20 35 36 35 39 35 35 35 33 33 38 65 67 68 67 69 69 74 74 75 75 74 74 73 74 74 73 73 71 70 69 69 69 68 68 67 67 69 69 69 68 68
51 50 51 42 27 15 13 29 32 36 37 36 34 33 34 36 54 56 63 64 67 67 69 67 74 74 74 74 74 74 74 73 74 73 72 71 70 70 70 69 69 70 70 69 69 68 66 68 67
49 47 42 34 21 14 13 27 34 36 32 32 32 30 37 40 42 52 58 64 67 68 70 68 74 74 74 74 74 74 74 74 73 72 72 71 71 71 70 70 71 71 70 70 68 66 68 67 66
48 47 40 28 19 23 24 31 37 33 31 28 28 29 38 33 39 50 62 66 68 68 69 71 74 74 73 74 73 74 73 73 73 72 72 72 72 71 71 71 71 71 70 69 68 68 67 66 66
45 42 29 22 22 27 32 36 34 32 30 29 27 28 33 33 38 50 64 66 69 68 68 69 73 73 73 73 73 73 73 73 73 72 72 72 71 71 71 71 71 70 70 70 69 67 66 66 67
40 35 19 14 17 27 31 35 35 32 30 26 24 26 30 35 36 43 62 66 68 69 69 67 71 72 72 73 72 73 73 73 73 72 72 71 71 72 72 71 71 70 70 69 69 67 67 66 66
30 23 13 14 14 19 22 29 28 25 28 24 25 23 29 32 38 43 46 64 67 69 69 68 68 69 72 72 72 72 73 73 72 72 72 71 71 71 72 70 70 69 69 69 69 67 67 66 66
35 26 20 18 14 18 29 28 27 26 21 27 26 17 23 34 36 42 43 46 63 66 67 69 68 68 67 66 71 71 71 71 71 71 70 70 70 69 70 69 70 70 69 69 69 67 67 67 67
37 18 16 16 20 23 29 26 29 30 28 27 26 26 26 30 35 39 43 44 45 54 64 66 68 68 67 66 65 70 69 70 69 70 69 68 67 68 68 67 69 69 69 69 69 68 68 68 67
27 18 16 25 29 26 28 28 27 24 23 23 25 27 28 29 31 36 40 41 42 42 47 62 66 67 68 66 67 66 66 66 64 65 67 67 65 65 66 66 67 69 68 68 68 68 68 66 59
29 21 24 27 30 32 29 27 27 24 22 21 19 18 22 28 29 33 35 39 41 41 43 47 61 66 66 68 67 66 71 68 64 63 65 66 65 66 67 69 66 66 65 62 64 63 60 60 58
25 30 30 30 32 31 27 28 26 26 22 20 23 26 27 29 30 32 33 36 39 43 43 44 53 64 65 66 65 65 66 65 64 65 64 65 65 67 67 67 67 66 64 61 58 56 56 59 59
23 27 30 31 31 31 30 28 26 26 26 26 27 29 31 32 33 33 34 35 37 42 44 45 48 60 64 65 64 64 65 67 66 65 65 66 65 65 66 68 68 66 65 64 60 57 58 60 58
30 30 30 31 30 31 29 26 30 23 28 28 29 31 31 32 33 35 36 37 35 36 41 45 46 53 63 64 64 62 62 65 67 66 67 66 66 67 67 67 66 65 65 64 62 59 58 59 58
31 27 27 30 32 30 34 28 29 28 28 29 28 28 31 33 34 35 37 37 37 36 40 41 44 51 59 62 64 63 61 61 64 66 67 66 66 67 65 66 66 65 65 64 64 61 60 58 58
27 26 21 26 29 32 31 19 23 26 29 28 27 29 31 32 33 34 36 36 37 39 40 41 39 46 55 61 63 63 62 59 60 61 61 63 65 66 66 64 64 66 66 66 64 63 62 62 59
24 22 24 24 29 30 31 24 27 28 27 28 29 29 31 33 35 37 38 37 36 38 39 40 42 43 53 59 63 63 63 62 60 60 62 62 60 62 64 65 64 64 65 65 65 64 63 61 60
19 18 20 22 24 28 27 27 28 30 30 30 30 31 33 35 36 39 40 40 39 39 40 40 39 40 44 54 61 64 63 63 62 60 59 61 62 60 61 62 63 64 66 66 65 64 63 62 60
25 24 23 23 26 27 27 28 29 30 31 31 32 35 35 37 40 42 42 42 42 42 41 40 39 39 42 47 55 59 61 62 62 62 61 59 60 61 62 62 63 65 65 65 64 64 63 62 62
28 25 22 25 28 29 28 28 30 31 31 34 36 36 37 39 41 42 42 42 43 42 42 42 40 41 42 46 52 57 59 59 60 61 61 61 60 61 61 62 62 64 64 64 64 64 63 61 62
26 24 24 26 29 30 30 30 27 29 34 35 36 38 40 41 42 42 41 42 43 43 43 42 41 42 42 46 50 58 60 60 60 60 60 61 61 62 62 62 63 64 64 63 63 63 62 60 60
26 28 29 30 30 29 31 28 29 31 33 36 38 40 42 44 45 46 46 44 45 46 47 47 45 43 44 48 53 56 57 58 58 59 60 61 62 61 62 63 62 63 63 63 63 63 62 60 58
26 30 30 31 30 32 28 30 29 33 34 37 39 41 44 44 44 44 47 48 47 48 49 49 47 45 46 50 53 56 58 58 58 60 59 61 61 62 62 63 63 63 62 63 63 62 60 60 59
30 31 32 32 31 26 28 30 33 33 35 37 39 41 42 43 43 43 44 47 51 48 51 51 47 47 48 51 54 55 57 57 58 59 60 61 61 62 62 62 63 63 62 61 62 61 60 60 59
34 32 29 27 26 25 30 31 34 34 36 38 39 40 41 43 41 42 43 45 50 52 53 53 53 50 52 53 55 56 58 58 57 58 59 59 60 60 61 62 62 61 61 62 61 60 60 59 59
31 31 29 22 23 26 30 30 36 34 37 39 40 40 40 41 41 42 44 49 50 51 53 53 53 53 54 55 56 57 59 58 58 59 60 60 59 60 61 62 62 61 61 60 60 60 60 60 60
35 33 35 31 31 27 30 35 35 36 38 39 39 40 40 41 41 43 44 47 47 49 50 53 54 54 55 56 57 58 57 59 59 58 59 60 60 60 61 62 61 61 61 60 60 60 58 59 59
37 38 33 33 25 23 27 29 31 34 36 38 38 38 38 41 41 42 43 45 46 47 47 49 50 50 51 51 52 52 51 54 58 58 58 58 58 58 57 58 60 60 60 60 60 59 59 59 59
36 35 35 35 33 25 21 29 37 37 38 38 35 36 37 39 40 41 42 43 44 45 46 45 46 47 47 47 48 49 48 48 49 49 50 50 50 51 51 52 52 53 53 55 58 58 58 58 58
36 34 32 29 28 29 27 30 38 36 38 37 37 35 36 36 37 38 41 41 42 43 44 44 44 44 45 46 46 45 46 46 46 46 46 47 46 47 47 46 46 47 48 48 49 49 49 49 50

GFSSGP_sfc_dewp_123.txt.gz
Dewpoint
53 52 52 48 33 28 22 18 25 28 30 35 37 35 33 34 35 44 63 63 65 66 69 70 74 74 75 75 75 74 74 74 73 72 72 72 69 69 68 68 67 67 67 69 70 69 68 68 68
50 50 49 41 33 20 17 20 28 32 34 35 35 35 33 37 49 52 60 61 65 66 69 67 74 75 75 75 74 74 74 74 74 73 72 71 69 69 69 69 68 68 69 69 69 69 69 68 68
51 48 41 33 21 19 17 25 27 35 33 32 32 33 35 37 40 50 53 64 66 67 69 69 74 74 74 74 74 74 74 74 74 73 73 71 70 70 70 69 70 71 71 70 69 69 68 67 67
47 46 41 30 19 18 22 25 33 31 31 29 30 29 35 33 40 47 63 66 67 67 68 72 74 74 73 73 74 74 74 73 73 73 72 72 71 71 70 71 71 71 71 69 69 68 67 66 65
47 41 29 22 21 22 28 30 31 30 31 30 29 29 33 35 39 47 63 66 68 68 67 69 73 73 73 73 73 73 73 73 73 73 72 71 71 71 71 71 71 71 70 69 68 67 66 65 66
40 36 22 18 18 23 26 32 30 28 28 27 27 28 31 36 40 44 55 65 67 69 68 69 72 73 73 72 72 72 73 72 72 72 72 71 71 71 71 71 71 71 70 70 68 67 67 66 66
37 26 17 15 15 20 20 28 29 26 27 26 25 21 30 34 39 42 44 55 66 68 69 69 68 69 72 72 72 72 72 72 72 72 72 71 71 71 71 71 70 70 70 70 69 67 67 66 66
33 25 17 14 12 17 26 24 26 24 19 26 24 14 21 35 36 41 42 46 56 65 67 68 69 67 66 67 71 71 71 71 71 71 71 70 70 70 70 70 69 70 70 70 70 67 67 66 66
34 20 18 15 17 22 25 23 27 28 26 23 22 21 25 29 33 37 42 43 45 50 59 66 68 68 67 64 65 69 70 70 70 70 69 68 67 67 67 67 68 69 70 69 69 68 68 68 67
25 20 17 23 26 23 26 26 25 22 20 21 22 23 24 26 27 34 38 40 41 43 46 50 64 67 67 67 63 65 62 63 63 65 66 67 64 63 65 66 67 69 69 69 69 68 68 67 60
25 23 22 24 28 29 25 24 24 22 21 19 18 19 18 21 26 30 33 37 39 40 42 44 48 63 66 66 67 64 65 67 64 61 62 63 61 66 66 69 67 67 66 64 66 65 62 60 57
23 26 27 29 30 29 25 24 23 22 22 19 21 22 24 26 27 29 31 33 41 44 41 43 43 50 64 65 65 65 68 67 65 63 61 62 62 64 68 68 68 66 64 60 59 57 56 55 56
20 24 28 28 28 27 27 25 24 23 23 24 24 25 26 29 30 31 32 32 34 42 45 44 44 46 57 64 64 63 62 64 63 64 63 63 66 65 66 68 69 69 67 62 58 55 53 54 56
25 27 26 28 28 28 27 26 24 24 24 24 26 27 28 29 30 31 33 35 35 36 41 45 44 44 50 61 63 62 61 62 65 65 64 64 64 69 67 67 66 66 69 64 62 58 55 55 57
28 25 26 27 28 28 31 25 25 24 25 25 25 25 28 29 30 31 34 34 35 35 39 42 45 45 46 53 62 62 62 60 63 64 64 64 65 66 67 67 68 69 68 66 64 62 58 57 56
25 24 23 26 29 31 29 19 20 24 24 24 23 23 25 27 28 31 32 33 34 36 37 40 39 43 43 50 58 61 64 60 61 64 64 64 64 65 65 66 65 66 68 68 66 63 60 59 56
23 23 26 23 28 27 30 23 22 25 23 23 24 25 27 29 31 33 35 36 37 37 35 39 42 41 42 46 54 61 63 64 60 61 62 62 63 64 64 64 63 63 66 65 64 64 62 61 60
16 20 18 19 25 27 26 25 25 25 26 26 26 28 29 33 35 38 39 40 40 39 37 38 40 39 40 41 52 60 64 64 63 60 60 61 62 60 62 62 62 62 64 65 64 63 63 62 61
21 19 18 19 22 25 25 25 26 27 28 28 29 32 33 36 39 40 42 43 43 42 41 39 39 40 41 41 47 56 62 63 63 63 61 59 60 61 61 61 61 62 64 64 63 65 64 63 63
24 20 18 22 26 27 27 28 28 29 30 32 34 35 37 39 40 43 44 43 43 43 42 42 41 41 40 42 45 52 59 61 63 63 63 62 60 61 61 61 61 61 64 63 64 64 64 64 63
23 21 22 24 28 28 29 28 27 30 32 35 38 39 40 41 43 44 44 45 46 43 42 41 42 43 41 41 44 50 54 60 60 61 62 62 62 62 62 62 62 62 63 64 64 64 63 61 62
22 27 27 28 29 29 30 27 28 30 32 34 37 39 41 42 44 44 44 44 47 48 48 45 43 43 43 45 44 46 52 55 59 60 60 60 61 60 62 63 62 63 63 63 64 64 64 62 59
26 29 28 29 29 33 27 30 29 33 32 33 36 38 40 41 42 43 43 43 45 48 50 49 46 47 47 45 46 48 49 55 58 59 59 60 61 61 62 62 62 62 63 63 63 63 62 62 61
29 31 31 31 30 27 27 29 32 34 33 34 38 39 40 40 42 41 42 43 44 47 52 51 49 47 46 46 46 48 51 53 56 58 58 59 60 61 61 62 63 63 63 62 62 62 62 62 61
32 30 30 27 28 25 29 30 36 34 34 38 38 39 40 41 42 42 42 44 47 48 52 49 51 48 45 47 48 49 52 54 56 56 58 58 59 59 60 61 63 63 62 62 62 62 61 61 60
29 30 30 21 24 27 28 29 36 34 38 39 39 40 40 41 42 42 43 46 49 51 51 52 51 51 50 48 52 52 54 56 57 56 58 59 58 59 60 61 62 62 62 61 61 61 61 60 60
35 32 35 31 30 27 29 35 35 35 36 36 36 37 38 40 42 42 43 45 47 47 49 50 52 53 53 51 53 54 55 55 56 57 58 59 59 60 60 60 59 60 61 60 60 60 59 59 59
35 38 33 33 25 25 28 31 34 34 36 36 36 35 36 38 40 42 43 44 46 46 47 48 49 49 49 51 53 52 52 53 57 58 58 57 56 58 58 56 59 60 61 60 60 59 59 58 58
36 34 35 34 30 27 22 31 37 36 37 36 35 36 36 37 38 40 42 43 44 45 46 46 46 47 47 48 48 49 48 48 50 51 51 51 51 50 51 51 51 51 52 53 54 54 56 58 58
34 33 33 32 32 31 28 31 36 36 36 37 36 35 35 35 35 37 39 40 41 42 43 43 44 45 45 45 45 46 46 46 46 46 47 48 48 48 48 47 47 47 47 48 48 48 48 49 48

GFSSGP_sfc_dewp_126.txt.gz
Dewpoint
54 51 53 52 40 36 28 24 29 27 32 38 36 34 34 47 50 52 61 62 65 68 70 72 75 75 75 75 74 74 74 74 74 73 72 71 68 68 68 67 67 68 70 71 70 69 69 69 68
52 50 53 46 38 26 22 25 29 32 35 34 35 35 35 43 43 55 57 63 65 68 70 69 75 75 75 75 75 74 74 73 73 73 72 72 69 69 68 68 67 68 69 70 70 69 69 68 69
51 50 47 42 31 28 25 27 34 33 32 33 34 33 38 37 44 47 61 65 66 67 69 70 74 74 75 75 74 74 74 74 73 73 72 72 70 69 69 69 70 70 71 70 70 68 68 68 68
49 50 46 35 27 25 25 28 35 30 30 29 30 33 36 36 41 49 64 66 67 69 70 72 74 74 73 74 74 74 74 74 73 73 73 72 71 70 70 71 71 71 71 70 69 68 67 67 66
49 46 35 25 26 23 29 31 32 30 30 28 29 31 36 37 45 47 63 66 67 69 70 70 73 73 73 73 73 73 73 73 73 73 72 72 71 71 71 71 71 71 71 70 69 68 67 66 66
45 42 31 26 22 23 29 30 30 28 28 27 29 29 37 41 42 45 48 62 67 68 70 70 71 73 73 73 73 73 73 73 72 72 72 72 72 71 71 71 71 71 70 70 68 67 67 66 67
43 34 26 22 23 24 26 26 28 26 27 26 25 22 35 39 41 44 45 50 65 68 68 70 70 71 72 72 72 72 72 72 72 72 72 71 71 71 71 71 71 71 70 70 69 67 67 66 67
41 32 21 17 16 23 27 25 26 24 24 27 25 19 30 35 38 42 44 46 49 57 66 67 69 69 69 69 71 71 71 71 71 71 70 70 69 69 70 70 70 70 71 71 70 68 67 67 68
40 29 22 21 21 25 26 24 28 29 26 24 23 22 27 30 35 38 42 44 45 49 51 53 66 68 68 68 68 70 70 70 70 70 69 68 68 68 68 68 68 69 70 71 70 69 68 67 67
31 25 25 25 27 26 26 26 25 23 21 21 21 23 24 27 29 34 37 40 41 42 45 46 49 64 67 69 67 67 67 69 69 68 68 69 67 65 67 66 67 69 69 69 70 69 68 67 64
30 29 25 27 32 31 27 25 25 23 23 21 19 20 23 26 27 32 34 37 39 41 44 45 46 48 63 66 68 67 65 64 63 63 65 67 66 64 67 67 67 67 66 68 68 67 66 64 62
27 28 28 32 33 32 27 25 23 23 24 24 23 25 26 27 29 31 33 35 38 41 43 44 46 45 49 66 65 67 68 66 67 66 62 62 63 64 68 68 67 67 66 64 65 64 63 61 59
24 28 29 32 32 29 27 26 24 24 24 24 24 26 27 29 30 31 33 34 35 40 43 44 45 47 47 57 64 65 66 67 67 66 63 62 64 64 67 67 68 67 66 63 60 59 58 57 55
26 29 29 30 30 29 28 28 27 24 25 25 25 27 28 30 30 31 34 35 36 37 41 44 45 45 47 51 61 63 62 66 66 64 65 64 63 67 67 67 67 66 67 65 61 57 55 54 55
28 27 29 29 30 31 33 28 26 26 25 25 25 26 28 30 32 31 34 35 35 35 39 42 45 46 45 47 55 61 63 64 66 65 65 64 65 66 66 66 67 67 67 66 65 62 59 56 57
27 25 24 29 32 35 31 21 23 24 24 23 24 24 24 26 27 30 32 33 36 37 37 40 40 43 44 45 50 58 62 63 63 66 65 64 64 65 66 66 66 67 67 67 66 64 62 59 57
25 24 26 27 29 31 30 26 27 28 25 24 24 25 28 31 34 36 39 38 38 38 39 39 41 43 44 43 47 53 60 62 64 63 65 64 64 64 66 66 65 66 66 66 65 65 62 60 59
21 20 21 21 29 29 28 27 27 27 26 25 26 27 31 35 37 40 41 41 42 42 42 41 39 42 41 43 45 52 61 63 64 64 64 63 64 63 64 65 64 63 64 64 64 64 64 62 61
21 19 18 21 26 25 25 26 28 29 29 29 32 33 35 39 41 43 45 46 45 45 44 42 41 39 42 43 43 50 58 61 62 63 63 61 61 62 61 62 62 62 62 63 64 63 63 62 62
24 20 19 24 29 27 28 28 29 30 31 34 37 38 39 42 43 44 45 45 46 46 46 43 43 42 43 43 43 46 56 61 62 62 62 62 62 62 61 61 60 60 62 62 62 63 63 62 62
23 21 23 25 29 29 29 30 29 31 32 36 36 37 39 40 41 42 43 44 45 45 45 47 44 44 43 42 43 45 50 58 60 61 62 62 62 62 61 61 61 61 62 62 61 62 62 60 60
24 27 27 28 29 24 30 20 28 30 32 34 34 36 39 39 40 41 42 42 43 43 45 46 47 44 45 44 43 43 47 51 55 59 61 62 62 62 62 61 61 61 62 61 61 62 62 61 59
28 30 29 29 29 30 28 23 29 33 33 33 35 38 39 41 40 40 41 41 42 43 44 45 49 47 47 45 44 44 45 48 54 58 58 58 60 61 61 61 61 61 61 61 61 61 61 61 60
30 31 31 31 29 22 27 26 26 31 33 34 36 38 39 40 41 42 42 43 45 46 47 46 50 49 48 48 45 44 46 47 53 55 57 58 59 61 61 61 61 62 61 60 60 60 60 61 61
33 29 24 19 26 20 30 27 28 35 35 36 37 39 40 41 41 42 42 43 45 47 50 50 51 50 48 46 46 45 46 48 52 53 56 57 57 58 59 60 61 61 61 62 61 60 60 60 61
30 29 26 16 21 23 28 24 28 35 37 38 37 38 40 40 41 41 43 43 45 47 48 50 53 53 53 49 47 47 48 50 52 54 55 56 57 57 58 59 59 60 60 60 60 59 60 61 60
34 32 35 26 27 26 26 32 36 36 36 36 36 38 37 38 40 41 42 43 44 45 47 48 49 49 50 51 52 51 53 53 53 54 55 56 57 58 58 59 59 60 60 61 60 60 60 60 60
36 38 30 31 21 20 27 27 28 32 34 36 36 37 36 38 38 40 41 42 43 44 46 46 47 47 47 48 49 49 49 50 52 55 56 56 54 57 56 55 54 56 59 60 60 59 59 59 58
35 32 34 33 29 26 23 25 36 33 36 36 37 36 36 36 37 39 41 42 42 43 44 44 45 45 45 46 46 47 47 47 48 49 50 51 50 50 50 50 50 49 49 53 52 52 56 58 56
35 34 33 29 31 33 31 27 36 37 38 38 36 37 34 35 34 34 40 41 41 41 42 43 44 44 44 44 44 44 45 46 45 46 47 48 48 48 48 47 47 47 48 48 49 49 49 49 48